[[{"header":{"parameterUnit":"m.s-1","parameterCategory":1,"la1":30.6,"la2":28.766,"lo1":-90.7593,"lo2":-88.6598,"dx":0.0162,"dy":0.0183,"nx":116,"ny":114,"refTime":"2022-12-13T06:00:00:Z","depth":0,"parameterNumber":2,"parameterNumberName":"U-component_of_WINDS"},"data":[0.0,0.0,0.0,0.0,0.0,0.0,0.0,0.0,0.0,0.0,0.0,0.0,0.0,0.0,0.0,0.0,0.0,0.0,0.0,0.0,0.0,0.0,0.0,0.0,0.0,0.0,0.0,0.0,0.0,0.0,0.0,0.0,0.0,0.0,0.0,0.0,0.0,0.0,0.0,0.0,0.0,0.0,0.0,0.0,0.0,0.0,0.0,0.0,0.0,0.0,0.0,0.0,0.0,0.0,0.0,0.0,0.0,0.0,0.0,0.0,0.0,0.0,0.0,0.0,0.0,0.0,0.0,0.0,0.0,0.0,0.0,0.0,0.0,0.0,0.0,0.0,0.0,0.0,0.0,0.0,0.0,0.0,0.0,0.0,0.0,0.0,0.0,0.0,0.0,0.0,0.0,0.0,0.0,0.0,0.0,0.0,0.0,0.0,0.0,0.0,0.0,0.0,0.0,0.0,0.0,0.0,0.0,0.0,0.0,0.0,0.0,0.0,0.0,0.0,0.0,0.0,0.0,0.0,0.0,0.0,0.0,0.0,0.0,0.0,0.0,0.0,0.0,0.0,0.0,0.0,0.0,0.0,0.0,0.0,0.0,0.0,0.0,0.0,0.0,0.0,0.0,0.0,0.0,0.0,0.0,0.0,0.0,0.0,0.0,0.0,0.0,0.0,0.0,0.0,0.0,0.0,0.0,0.0,0.0,0.0,0.0,0.0,0.0,0.0,0.0,0.0,0.0,0.0,0.0,0.0,0.0,0.0,0.0,0.0,0.0,0.0,0.0,0.0,0.0,0.0,0.0,0.0,0.0,0.0,0.0,0.0,0.0,0.0,0.0,0.0,0.0,0.0,0.0,0.0,0.0,0.0,0.0,0.0,0.0,0.0,0.0,0.0,0.0,0.0,0.0,0.0,0.0,0.0,0.0,0.0,0.0,0.0,0.0,0.0,0.0,0.0,0.0,0.0,0.0,0.0,0.0,0.0,0.0,0.0,0.0,0.0,0.0,0.0,0.0,0.0,0.0,0.0,0.0,0.0,0.0,0.0,0.0,0.0,0.0,0.0,0.0,0.0,0.0,0.0,0.0,0.0,0.0,0.0,0.0,0.0,0.0,0.0,0.0,0.0,0.0,0.0,0.0,0.0,0.0,0.0,0.0,0.0,0.0,0.0,0.0,0.0,0.0,0.0,0.0,0.0,0.0,0.0,0.0,0.0,0.0,0.0,0.0,0.0,0.0,0.0,0.0,0.0,0.0,0.0,0.0,0.0,0.0,0.0,0.0,0.0,0.0,0.0,0.0,0.0,0.0,0.0,0.0,0.0,0.0,0.0,0.0,0.0,0.0,0.0,0.0,0.0,0.0,0.0,0.0,0.0,0.0,0.0,0.0,0.0,0.0,0.0,0.0,0.0,0.0,0.0,0.0,0.0,0.0,0.0,0.0,0.0,0.0,0.0,0.0,0.0,0.0,0.0,0.0,0.0,0.0,0.0,0.0,0.0,0.0,0.0,0.0,0.0,0.0,0.0,0.0,0.0,0.0,0.0,0.0,0.0,0.0,0.0,0.0,0.0,0.0,0.0,0.0,0.0,0.0,0.0,0.0,0.0,0.0,0.0,0.0,0.0,0.0,0.0,0.0,0.0,0.0,0.0,0.0,0.0,0.0,0.0,0.0,0.0,0.0,0.0,0.0,0.0,0.0,0.0,0.0,0.0,0.0,0.0,0.0,0.0,0.0,0.0,0.0,0.0,0.0,0.0,0.0,0.0,0.0,0.0,0.0,0.0,0.0,0.0,0.0,0.0,0.0,0.0,0.0,0.0,0.0,0.0,0.0,0.0,0.0,0.0,0.0,0.0,0.0,0.0,0.0,0.0,0.0,0.0,0.0,0.0,0.0,0.0,0.0,0.0,0.0,0.0,0.0,0.0,0.0,0.0,0.0,0.0,0.0,0.0,0.0,0.0,0.0,0.0,0.0,0.0,0.0,0.0,0.0,0.0,0.0,0.0,0.0,0.0,0.0,0.0,0.0,0.0,0.0,0.0,0.0,0.0,0.0,0.0,0.0,0.0,0.0,0.0,0.0,0.0,0.0,0.0,0.0,0.0,0.0,0.0,0.0,0.0,0.0,0.0,0.0,0.0,0.0,0.0,0.0,0.0,0.0,0.0,0.0,0.0,0.0,0.0,0.0,0.0,0.0,0.0,0.0,0.0,0.0,0.0,0.0,0.0,0.0,0.0,0.0,0.0,0.0,0.0,0.0,0.0,0.0,0.0,0.0,0.0,0.0,0.0,0.0,0.0,0.0,0.0,0.0,0.0,0.0,0.0,0.0,0.0,0.0,0.0,0.0,0.0,0.0,0.0,0.0,0.0,0.0,0.0,0.0,0.0,0.0,0.0,0.0,0.0,0.0,0.0,0.0,0.0,0.0,0.0,0.0,0.0,0.0,0.0,0.0,0.0,0.0,0.0,0.0,0.0,0.0,0.0,0.0,0.0,0.0,0.0,0.0,0.0,0.0,0.0,0.0,0.0,0.0,0.0,0.0,0.0,0.0,0.0,0.0,0.0,0.0,0.0,0.0,0.0,0.0,0.0,0.0,0.0,0.0,0.0,0.0,0.0,0.0,0.0,0.0,0.0,0.0,0.0,0.0,0.0,0.0,0.0,0.0,0.0,0.0,0.0,0.0,0.0,0.0,0.0,0.0,0.0,0.0,0.0,0.0,0.0,0.0,0.0,0.0,0.0,0.0,0.0,0.0,0.0,0.0,0.0,0.0,0.0,0.0,0.0,0.0,0.0,0.0,0.0,0.0,0.0,0.0,0.0,0.0,0.0,0.0,0.0,0.0,0.0,0.0,0.0,0.0,0.0,0.0,0.0,0.0,0.0,0.0,0.0,0.0,0.0,0.0,0.0,0.0,0.0,0.0,0.0,0.0,0.0,0.0,0.0,0.0,0.0,0.0,0.0,0.0,0.0,0.0,0.0,0.0,0.0,0.0,0.0,0.0,0.0,0.0,0.0,0.0,0.0,0.0,0.0,0.0,0.0,0.0,0.0,0.0,0.0,0.0,0.0,0.0,0.0,0.0,0.0,0.0,0.0,0.0,0.0,0.0,0.0,0.0,0.0,0.0,0.0,0.0,0.0,0.0,0.0,0.0,0.0,0.0,0.0,0.0,0.0,0.0,0.0,0.0,0.0,0.0,0.0,0.0,0.0,0.0,0.0,0.0,0.0,0.0,0.0,0.0,0.0,0.0,0.0,0.0,0.0,0.0,0.0,0.0,0.0,0.0,0.0,0.0,0.0,0.0,0.0,0.0,0.0,0.0,0.0,0.0,0.0,0.0,0.0,0.0,0.0,0.0,0.0,0.0,0.0,0.0,0.0,0.0,0.0,0.0,0.0,0.0,0.0,0.0,0.0,0.0,0.0,0.0,0.0,0.0,0.0,0.0,0.0,0.0,0.0,0.0,0.0,0.0,0.0,0.0,0.0,0.0,0.0,0.0,0.0,0.0,0.0,0.0,0.0,0.0,0.0,0.0,0.0,0.0,0.0,0.0,0.0,0.0,0.0,0.0,0.0,0.0,0.0,0.0,0.0,0.0,0.0,0.0,0.0,0.0,0.0,0.0,0.0,0.0,0.0,0.0,0.0,0.0,0.0,0.0,0.0,0.0,0.0,0.0,0.0,0.0,0.0,0.0,0.0,0.0,0.0,0.0,0.0,0.0,0.0,0.0,0.0,0.0,0.0,0.0,0.0,0.0,0.0,0.0,0.0,0.0,0.0,0.0,0.0,0.0,0.0,0.0,0.0,0.0,0.0,0.0,0.0,0.0,0.0,0.0,0.0,0.0,0.0,0.0,0.0,0.0,0.0,0.0,0.0,0.0,0.0,0.0,0.0,0.0,0.0,0.0,0.0,0.0,0.0,0.0,0.0,0.0,0.0,0.0,0.0,0.0,0.0,0.0,0.0,0.0,0.0,0.0,0.0,0.0,0.0,0.0,0.0,0.0,0.0,0.0,0.0,0.0,0.0,0.0,0.0,0.0,0.0,0.0,0.0,0.0,0.0,0.0,0.0,0.0,0.0,0.0,0.0,0.0,0.0,0.0,0.0,0.0,0.0,0.0,0.0,0.0,0.0,0.0,0.0,0.0,0.0,0.0,0.0,0.0,0.0,0.0,0.0,0.0,0.0,0.0,0.0,0.0,0.0,0.0,0.0,0.0,0.0,0.0,0.0,0.0,0.0,0.0,0.0,0.0,0.0,0.0,0.0,0.0,0.0,0.0,0.0,0.0,0.0,0.0,0.0,0.0,0.0,0.0,0.0,0.0,0.0,0.0,0.0,0.0,0.0,0.0,0.0,0.0,0.0,0.0,0.0,0.0,0.0,0.0,0.0,0.0,0.0,0.0,0.0,0.0,0.0,0.0,0.0,0.0,0.0,0.0,0.0,0.0,0.0,0.0,0.0,0.0,0.0,0.0,0.0,0.0,0.0,0.0,0.0,0.0,0.0,0.0,0.0,0.0,0.0,0.0,0.0,0.0,0.0,0.0,0.0,0.0,0.0,0.0,0.0,0.0,0.0,0.0,0.0,0.0,0.0,0.0,0.0,0.0,0.0,0.0,0.0,0.0,0.0,0.0,0.0,0.0,0.0,0.0,0.0,0.0,0.0,0.0,0.0,0.0,0.0,0.0,0.0,0.0,0.0,0.0,0.0,0.0,0.0,0.0,0.0,0.0,0.0,0.0,0.0,0.0,0.0,0.0,0.0,0.0,0.0,0.0,0.0,0.0,0.0,0.0,0.0,0.0,0.0,0.0,0.0,0.0,0.0,0.0,0.0,0.0,0.0,0.0,0.0,0.0,0.0,0.0,0.0,0.0,0.0,0.0,0.0,0.0,0.0,0.0,0.0,0.0,0.0,0.0,0.0,0.0,0.0,0.0,0.0,0.0,0.0,0.0,0.0,0.0,0.0,0.0,0.0,0.0,0.0,0.0,0.0,0.0,0.0,0.0,0.0,0.0,0.0,0.0,0.0,0.0,0.0,0.0,0.0,0.0,0.0,0.0,0.0,0.0,0.0,0.0,0.0,0.0,0.0,0.0,0.0,0.0,0.0,0.0,0.0,0.0,0.0,0.0,0.0,0.0,0.0,0.0,0.0,0.0,0.0,0.0,0.0,0.0,0.0,0.0,0.0,0.0,0.0,0.0,0.0,0.0,0.0,0.0,0.0,0.0,0.0,0.0,0.0,0.0,0.0,0.0,0.0,0.0,0.0,0.0,0.0,0.0,0.0,0.0,0.0,0.0,0.0,0.0,0.0,0.0,0.0,0.0,0.0,0.0,0.0,0.0,0.0,0.0,0.0,0.0,0.0,0.0,0.0,0.0,0.0,0.0,0.0,0.0,0.0,0.0,0.0,0.0,0.0,0.0,0.0,0.0,0.0,0.0,0.0,0.0,0.0,0.0,0.0,0.0,0.0,0.0,0.0,0.0,0.0,0.0,0.0,0.0,0.0,0.0,0.0,0.0,0.0,0.0,0.0,0.0,0.0,0.0,0.0,0.0,0.0,0.0,0.0,0.0,0.0,0.0,0.0,0.0,0.0,0.0,0.0,0.0,0.0,0.0,0.0,0.0,0.0,0.0,0.0,0.0,0.0,0.0,0.0,0.0,0.0,0.0,0.0,0.0,0.0,0.0,0.0,0.0,0.0,0.0,0.0,0.0,0.0,0.0,0.0,0.0,0.0,0.0,0.0,0.0,0.0,0.0,0.0,0.0,0.0,0.0,0.0,0.0,0.0,0.0,0.0,0.0,0.0,0.0,0.0,0.0,0.0,0.0,0.0,0.0,0.0,0.0,0.0,0.0,0.0,0.0,0.0,0.0,0.0,0.0,0.0,0.0,0.0,0.0,0.0,0.0,0.0,0.0,0.0,0.0,0.0,0.0,0.0,0.0,0.0,0.0,0.0,0.0,0.0,0.0,0.0,0.0,0.0,0.0,0.0,0.0,0.0,0.0,0.0,0.0,0.0,0.0,0.0,0.0,0.0,0.0,0.0,0.0,0.0,0.0,0.0,0.0,0.0,0.0,0.0,0.0,0.0,0.0,0.0,0.0,0.0,0.0,0.0,3.3573,2.9273,0.0,0.0,0.0,0.0,0.0,0.0,0.0,0.0,0.0,0.0,0.0,0.0,0.0,0.0,0.0,0.0,0.0,0.0,0.0,0.0,0.0,0.0,0.0,1.179,1.179,1.179,1.179,0.0,0.0,0.0,0.0,0.0,0.0,0.0,0.0,0.0,1.1525,1.359,1.43,1.685,2.0917,1.8737,1.7663,1.7557,0.0,0.0,0.0,0.0,0.0,0.0,0.0,0.0,0.0,0.0,0.0,0.0,0.0,0.0,0.0,0.0,0.0,0.0,0.0,0.0,0.0,0.0,0.0,0.0,0.0,0.0,0.0,0.0,0.0,0.0,0.0,0.0,0.0,0.0,0.0,0.0,0.0,0.0,0.0,0.0,0.0,0.0,0.0,0.0,0.0,0.0,0.0,0.0,0.0,0.0,0.0,0.0,0.0,0.0,0.0,0.0,0.0,0.0,0.0,0.0,0.0,0.0,0.0,0.0,0.0,0.0,0.0,0.0,0.0,0.0,3.8253,3.5739,0.0,0.0,0.0,0.0,0.0,0.0,0.0,0.0,0.0,0.0,0.0,0.0,0.0,0.0,0.0,0.0,0.0,0.0,0.0,0.0,0.0,1.188,1.2119,1.2149,1.2299,1.2628,1.2448,1.2328,1.2328,1.2089,0.0,0.0,0.0,0.0,1.179,1.1913,1.3834,1.7741,1.9073,2.2013,2.6417,2.729,2.6879,2.524,2.1618,0.0,0.0,0.0,0.0,0.0,0.0,0.0,0.0,0.0,0.0,0.0,0.0,0.0,0.0,0.0,0.0,0.0,0.0,0.0,0.0,0.0,0.0,0.0,0.0,0.0,0.0,0.0,0.0,0.0,0.0,0.0,0.0,0.0,0.0,0.0,0.0,0.0,0.0,0.0,0.0,0.0,0.0,0.0,0.0,0.0,0.0,0.0,0.0,0.0,0.0,0.0,0.0,0.0,0.0,0.0,0.0,0.0,0.0,0.0,0.0,0.0,0.0,0.0,4.0796,4.1709,4.2047,4.2221,4.4455,4.7909,4.3353,4.3276,4.5792,3.8602,0.0,0.0,0.0,0.0,0.0,0.0,0.0,0.0,0.0,0.0,0.0,0.0,0.0,0.0,0.0,0.0,0.0,0.0,0.0,1.2239,1.3406,1.3555,1.4217,1.592,1.5052,1.4393,1.4393,1.331,0.0,0.0,0.0,1.179,1.179,1.3783,1.5975,1.8294,2.6648,3.1826,3.3996,3.5431,3.5969,3.5398,2.8025,2.4317,2.3552,0.0,0.0,0.0,0.0,0.0,0.0,0.0,0.0,0.0,0.0,0.0,0.0,0.0,0.0,0.0,0.0,0.0,0.0,0.0,0.0,0.0,0.0,0.0,0.0,0.0,0.0,0.0,0.0,0.0,0.0,0.0,0.0,0.0,0.0,0.0,0.0,0.0,0.0,0.0,0.0,0.0,3.3341,3.4715,0.0,0.0,0.0,0.0,0.0,0.0,0.0,0.0,0.0,0.0,0.0,0.0,0.0,3.7268,3.9876,4.3797,4.6471,4.7939,5.2339,5.4484,5.4552,5.4966,5.5579,5.6186,5.471,0.0,4.9116,4.7261,0.0,0.0,0.0,0.0,0.0,0.0,0.0,0.0,0.0,0.0,0.0,0.0,0.0,0.0,0.0,0.0,0.0,0.0,0.0,0.0,0.0,1.6512,1.8038,1.9295,1.9529,1.8716,1.6521,1.584,0.0,0.0,1.179,1.2149,1.2927,1.5543,2.0003,2.6294,3.2616,3.6577,3.8256,3.8977,3.9265,3.9121,3.5558,3.2353,2.952,2.7564,0.0,0.0,0.0,0.0,0.0,0.0,0.0,0.0,0.0,0.0,0.0,0.0,0.0,0.0,0.0,0.0,0.0,0.0,0.0,0.0,0.0,0.0,0.0,0.0,0.0,0.0,0.0,0.0,0.0,0.0,0.0,0.0,0.0,0.0,0.0,0.0,0.0,0.0,0.0,3.1106,3.4267,3.6056,3.3728,3.1273,0.0,0.0,0.0,0.0,0.0,0.0,0.0,0.0,0.0,4.1724,4.314,4.5355,4.8617,5.0831,5.2287,5.3068,5.551,5.6807,5.7008,5.727,5.7587,5.7832,5.745,5.6404,5.4798,5.1391,4.7894,4.4346,0.0,0.0,0.0,0.0,3.9551,4.0326,0.0,0.0,0.0,0.0,0.0,0.0,0.0,0.0,0.0,0.0,0.0,0.0,1.7364,1.9869,2.1859,2.286,2.351,2.2563,1.9434,1.8395,1.6405,1.3137,1.2546,1.2998,1.448,1.8884,2.5229,3.3422,3.6974,3.938,4.0672,4.0926,4.1107,4.1107,4.1107,3.8905,3.5009,3.2934,3.0326,2.7273,0.0,0.0,0.0,0.0,0.0,0.0,0.0,0.0,0.0,0.0,0.0,0.0,0.0,0.0,0.0,0.0,0.0,0.0,0.0,0.0,0.0,0.0,0.0,0.0,0.0,0.0,0.0,0.0,0.0,0.0,0.0,0.0,0.0,0.0,0.0,0.0,0.0,3.3749,3.6327,3.7739,3.7051,3.5209,0.0,0.0,0.0,0.0,0.0,0.0,4.0307,4.1542,4.4118,4.8291,4.9821,5.2,5.4978,5.5632,5.5975,5.6066,5.6853,5.7444,5.7781,5.7977,5.8377,5.8842,5.8842,5.93,5.9693,5.5064,5.2368,5.0935,4.7953,4.5655,4.4143,4.6053,4.6646,4.7192,0.0,0.0,0.0,0.0,0.0,0.0,0.0,0.0,0.0,0.0,0.0,1.8653,2.1833,2.3269,2.4798,2.6755,2.5775,2.4729,2.3829,2.0511,1.7896,1.6333,1.4623,1.4536,1.6333,2.5046,3.1671,3.5924,3.9247,4.0891,4.1006,4.2186,4.2774,4.2774,4.2774,4.1433,3.9009,3.7377,3.5209,3.2473,2.7651,0.0,0.0,0.0,0.0,0.0,0.0,0.0,0.0,0.0,0.0,0.0,0.0,0.0,0.0,0.0,0.0,0.0,0.0,0.0,0.0,0.0,0.0,0.0,0.0,0.0,0.0,0.0,0.0,0.0,0.0,0.0,0.0,0.0,0.0,0.0,0.0,0.0,0.0,4.0492,4.2918,0.0,0.0,0.0,0.0,3.7504,3.9333,4.2195,4.6241,4.8566,5.0969,5.3526,5.4241,5.4689,5.4907,5.6081,5.6691,5.6786,5.8503,5.9386,5.9521,6.0006,6.0676,6.1402,6.1402,6.1898,6.251,5.9807,5.7073,5.4486,5.35,5.1382,4.9171,5.1963,5.3905,5.5718,0.0,0.0,0.0,1.1601,1.1601,1.1623,1.1659,1.1659,1.2096,1.3321,1.6532,1.9529,2.1548,2.5463,2.8359,2.95,3.0293,2.9573,2.6763,2.3536,2.1117,1.9781,1.7011,1.8451,2.4736,2.9909,3.4653,3.8858,4.0039,4.1167,4.2258,4.27,4.2882,4.2882,4.2882,4.2411,4.1615,4.1035,3.9115,3.6186,3.3376,2.9449,0.0,0.0,0.0,0.0,0.0,0.0,0.0,0.0,0.0,0.0,0.0,0.0,0.0,0.0,0.0,0.0,0.0,0.0,0.0,0.0,0.0,0.0,0.0,0.0,0.0,0.0,0.0,0.0,0.0,0.0,0.0,0.0,0.0,0.0,0.0,0.0,0.0,4.2122,4.4517,0.0,4.1395,4.3137,4.4551,4.4899,4.6622,4.892,5.1891,5.2318,5.338,5.5327,5.62,5.694,5.7546,5.8235,5.8917,5.9529,6.0642,6.1228,6.1368,6.1827,6.2166,6.2433,6.2433,6.2624,6.2853,6.1936,6.0924,5.996,5.9722,5.8948,5.8144,5.9147,5.952,5.9748,0.0,0.0,0.0,1.1578,1.1601,1.1623,1.1659,1.1837,1.2701,1.4754,1.8345,2.1645,2.4024,2.8003,3.0642,3.1132,3.2517,3.2034,2.8845,2.6128,2.3994,2.2425,2.0862,2.3582,3.1115,3.3806,3.6806,4.0318,4.0453,4.118,4.2458,4.2577,4.2768,4.2882,4.2882,4.2882,4.2882,4.2882,4.1724,3.9657,3.7449,3.3918,2.971,0.0,0.0,0.0,0.0,0.0,0.0,0.0,0.0,0.0,0.0,0.0,0.0,0.0,0.0,0.0,0.0,0.0,0.0,0.0,0.0,0.0,0.0,0.0,0.0,0.0,0.0,0.0,0.0,0.0,0.0,0.0,0.0,0.0,0.0,4.1144,4.43,4.3389,4.6989,4.8338,4.5279,4.797,5.0119,5.0532,5.1936,5.3654,5.5704,5.5643,5.6127,5.7449,5.8032,5.8689,5.9432,5.9907,6.0518,6.1334,6.1956,6.2311,6.2378,6.2673,6.2955,6.3223,6.3223,6.3413,6.368,6.368,6.368,6.3604,6.3092,6.2862,6.2803,6.2803,6.2612,6.2391,0.0,0.0,1.1593,1.1601,1.1623,1.1615,1.1615,1.2245,1.4313,1.8749,2.1623,2.489,2.9286,3.0849,3.156,3.1593,3.2266,3.1891,2.9999,2.8255,2.6286,2.4175,2.6146,2.9675,3.4783,3.6668,3.8387,4.0138,4.0597,4.1047,4.1543,4.1973,4.2458,4.2882,4.2882,4.2882,4.2882,4.2882,4.2994,4.285,3.9621,3.7305,3.5313,0.0,0.0,0.0,0.0,0.0,0.0,0.0,0.0,0.0,0.0,0.0,0.0,0.0,0.0,0.0,0.0,0.0,0.0,0.0,0.0,0.0,0.0,0.0,0.0,0.0,0.0,0.0,0.0,0.0,0.0,0.0,0.0,0.0,4.0854,4.4838,4.6975,4.4693,5.0729,5.3535,4.9683,5.2154,5.4008,5.4044,5.4838,5.5978,5.7583,5.8531,5.9335,6.0003,5.9939,6.0003,6.0357,6.0818,6.1371,6.1958,6.2391,6.2591,6.2655,6.2687,6.3144,6.3943,6.3943,6.4438,6.5232,6.5232,6.5232,6.5041,6.3558,6.2849,6.2687,6.2687,6.3155,6.3921,1.1578,1.1601,1.1601,1.1578,1.1601,1.1623,1.1659,1.2222,1.3905,1.7535,2.0283,2.3369,2.7225,2.9219,3.062,3.1527,3.2266,3.2319,3.1426,2.8361,2.635,2.585,3.1043,3.4886,3.6846,3.8454,3.9697,4.0611,4.0754,4.1185,4.2015,4.2175,4.2458,4.2882,4.2882,4.2882,4.2882,4.2882,4.292,4.2884,4.205,4.0418,3.8174,0.0,0.0,0.0,0.0,0.0,0.0,0.0,0.0,0.0,0.0,0.0,0.0,0.0,0.0,0.0,0.0,0.0,0.0,0.0,0.0,0.0,0.0,0.0,0.0,0.0,0.0,0.0,0.0,0.0,0.0,0.0,4.4005,4.6649,4.5972,4.8561,5.0889,5.1891,5.4381,5.5556,5.4335,5.5665,5.6758,5.7279,5.7145,5.7704,5.9161,5.926,5.9595,6.0357,6.0683,6.1248,6.2017,6.2183,6.2608,6.3372,6.3804,6.4057,6.4057,6.4432,6.478,6.5009,6.5009,6.5123,6.5352,6.5352,6.5352,6.5314,6.4762,6.4508,6.4476,6.4476,6.428,6.3861,1.1601,1.1601,1.1601,1.1556,1.1578,1.1593,1.1659,1.2435,1.4464,1.8519,2.0857,2.3734,2.7879,2.9386,3.0379,3.1097,3.1924,3.1805,3.044,2.8574,2.8426,3.0506,3.43,3.7036,3.8422,3.9629,4.0407,4.0796,4.1187,4.1733,4.2447,4.275,4.3137,4.3584,4.3818,4.3896,4.386,4.3534,4.3389,4.3353,4.3139,4.1978,4.0345,3.9511,3.8165,3.649,3.4891,3.3829,3.3113,3.2256,0.0,0.0,0.0,0.0,0.0,0.0,0.0,0.0,0.0,0.0,0.0,0.0,0.0,0.0,0.0,0.0,0.0,0.0,0.0,0.0,0.0,0.0,0.0,0.0,4.8104,5.0895,5.0882,5.2336,5.3935,5.5352,5.6273,5.694,5.7267,5.7741,5.8323,5.9124,5.881,5.9101,6.0223,6.0382,6.0776,6.1492,6.2034,6.2641,6.3334,6.3334,6.3678,6.4326,6.4595,6.4741,6.4741,6.5057,6.5194,6.5194,6.5194,6.5194,6.5194,6.5194,6.5194,6.5194,0.0,0.0,0.0,0.0,6.479,6.4258,1.1593,1.1593,1.1571,1.1511,1.1549,1.1593,1.1593,1.2795,1.554,2.067,2.2433,2.5121,3.0096,3.0492,3.0459,3.06,3.1381,3.0969,2.8722,2.9466,3.1855,3.6039,3.6288,3.7435,3.9568,4.0267,4.0688,4.097,4.1715,4.2339,4.2826,4.3436,4.4001,4.4535,4.5029,4.5233,4.5236,4.4548,4.4222,4.415,4.3462,4.274,4.1905,4.1107,4.0382,3.969,3.8241,3.7293,3.663,3.6012,0.0,0.0,0.0,0.0,0.0,0.0,0.0,0.0,0.0,0.0,0.0,0.0,0.0,0.0,0.0,0.0,0.0,0.0,0.0,0.0,0.0,0.0,0.0,0.0,5.1157,5.4375,5.5123,5.5801,5.6187,5.6334,5.7024,5.7873,5.87,5.8746,5.911,6.0063,6.0034,6.0295,6.1095,6.1667,0.0,0.0,0.0,6.392,6.4289,6.4289,6.4521,6.4888,6.4888,6.4888,6.4888,6.4924,6.4924,6.4924,6.4924,6.4924,6.4924,6.4924,6.4924,6.4924,6.5161,6.5194,6.5128,6.4996,6.4888,6.4888,1.1593,1.1593,1.1601,1.1578,1.1578,1.1601,1.1601,1.3207,1.6239,2.1311,2.2781,2.5401,3.078,3.05,3.0315,3.1328,3.1675,3.1758,3.1529,3.3655,3.5175,3.5742,3.7609,3.9282,4.0495,4.0588,4.1009,4.1849,4.2038,4.2392,4.2943,4.3093,4.3675,4.4492,4.4621,4.491,4.5273,4.5128,4.5055,4.5055,4.491,4.3969,4.2702,4.2484,4.2449,4.2378,4.2014,4.1868,4.1866,4.2305,4.1504,4.0304,4.02,3.8606,0.0,0.0,0.0,0.0,0.0,0.0,0.0,0.0,0.0,0.0,0.0,0.0,0.0,0.0,0.0,0.0,0.0,0.0,0.0,5.1076,5.4255,5.6622,5.6915,5.6962,5.7021,5.717,5.7897,5.8442,5.8637,5.9205,5.9895,6.0747,6.0872,6.1236,6.1931,6.2462,6.2852,6.328,6.3803,6.4328,6.4781,6.4781,6.4817,6.4888,6.4958,0.0,6.4955,6.5095,6.5166,6.5166,6.5166,6.5166,6.5166,6.5166,6.5061,6.4993,6.4958,6.4958,6.4924,6.4888,6.4924,6.4955,1.1593,1.1623,1.1578,1.1578,1.1578,1.1578,1.1578,1.3031,1.5823,2.0665,2.2248,2.4649,2.9329,2.9005,2.8555,2.8809,2.9286,3.0462,3.2724,3.442,3.5934,3.7411,3.8639,3.9561,4.0034,4.0679,4.1244,4.1744,4.2568,4.3216,4.3532,4.4182,4.4747,4.5315,4.5881,4.626,4.6468,4.6069,4.5888,4.5888,4.5454,4.4802,4.4077,4.4077,4.4152,4.4191,4.4191,4.4267,4.4416,4.4778,4.4378,4.3723,4.3686,4.2268,4.0019,0.0,0.0,0.0,0.0,0.0,0.0,0.0,0.0,0.0,0.0,0.0,0.0,0.0,0.0,4.456,4.7397,0.0,5.1982,5.4023,5.6296,5.771,5.7361,5.7601,5.771,5.746,5.8065,5.8667,5.9132,5.988,6.0626,6.1531,6.1604,6.1732,6.2078,6.2781,6.3234,6.3379,6.4172,6.4633,6.4888,6.4888,6.4888,6.4888,6.4924,6.4958,6.4958,6.4993,6.5027,6.5027,6.5027,6.5027,6.5027,6.5027,6.5259,6.5565,6.5495,6.5267,6.4888,6.4888,6.4924,6.4958,1.1593,1.1601,1.1578,1.1601,1.1578,1.1578,1.1578,1.2741,1.5169,1.9582,2.1193,2.3328,2.6936,2.6693,2.6154,2.5797,2.686,2.9138,3.2946,3.436,3.627,3.8957,3.9189,3.9408,3.9487,4.0746,4.1475,4.1697,4.3174,4.3956,4.4097,4.5108,4.5648,4.595,4.6926,4.7407,4.75,4.6969,4.6721,4.6685,4.6033,4.578,4.578,4.578,4.5562,4.5309,4.5309,4.524,4.5246,4.5573,4.5651,4.5617,4.5909,4.4996,4.3213,4.0306,3.8386,0.0,0.0,0.0,0.0,0.0,0.0,0.0,0.0,4.2705,4.3615,4.6309,4.7361,4.867,5.1435,5.2908,5.4375,5.6503,5.7855,5.842,5.7768,5.8239,5.8435,5.7883,5.829,5.8979,5.988,6.061,6.1371,6.2095,6.206,6.2005,6.2005,6.2695,6.3234,6.3379,6.4212,6.467,6.4781,6.4853,6.4853,6.4781,6.4853,6.4888,6.4926,6.5078,6.5154,6.5154,6.5305,6.5381,6.5419,6.5571,6.5912,6.6367,6.6518,6.6101,6.5381,6.5381,6.5381,6.5381,1.1578,1.1556,1.1534,1.1593,1.1556,1.1511,1.1511,1.2668,1.4907,1.8838,1.998,2.1486,2.4233,2.3888,2.3733,2.4533,2.7226,2.9902,3.231,3.5785,3.7945,3.8328,3.8924,3.9587,4.0249,4.1011,4.1797,4.2665,4.3498,4.3956,4.4097,4.427,4.4597,4.5267,4.585,4.6424,4.7017,4.7421,4.7591,4.7554,4.7482,4.7446,4.7446,4.7446,4.654,4.5309,4.5309,4.4838,4.4479,4.5888,4.6005,4.5721,4.7052,4.6912,4.5939,4.4007,4.089,3.7957,3.7522,3.831,3.9792,4.2156,4.3286,4.5515,0.0,5.1894,5.1572,5.5322,5.6102,5.6455,5.7607,5.7774,5.8058,5.9035,5.9361,5.9434,5.9361,5.9434,5.9434,5.9361,5.9434,5.9796,6.0593,6.139,6.1933,6.2005,6.2005,6.2005,6.2005,6.2114,6.253,6.3334,6.3505,6.3803,6.4289,6.467,6.467,6.4289,6.467,6.4888,6.4926,6.5646,6.5988,6.6025,6.6783,6.7125,6.7162,6.7883,6.7807,6.7314,6.8034,6.7845,6.7125,6.7125,6.7125,6.7125,1.1578,1.1534,1.1511,1.1601,1.1534,1.1489,1.1489,1.2322,1.3885,1.6668,1.7663,1.8788,2.0645,1.9912,1.9905,2.1463,2.4823,2.8072,3.1023,3.515,3.7765,3.8195,3.8891,3.9421,3.9719,4.0448,4.1034,4.1388,4.2551,4.3174,4.338,4.4057,4.4618,4.5161,4.6,4.6566,4.6972,4.745,4.7699,4.7699,4.7699,4.7699,4.7699,4.7699,4.7301,4.6649,4.6178,4.549,0.0,4.6106,4.6001,4.5678,4.7192,4.6871,4.5678,4.444,4.2592,4.147,4.3978,4.3832,4.3905,4.7846,4.9049,5.0132,5.3663,5.4073,5.4592,5.7559,5.8214,5.8432,5.927,5.9211,5.9361,6.03,6.0356,6.0303,6.0303,6.0303,6.0303,6.0303,6.0303,6.0448,6.0774,6.1534,6.2005,6.2005,6.2005,6.2005,6.2005,6.2255,6.2581,6.2951,6.328,6.3861,6.4885,6.5122,6.5502,6.6069,6.6748,6.7049,6.7087,6.7921,6.83,6.8337,6.8679,6.883,6.8868,6.9209,6.9437,6.9588,6.9929,7.0157,7.0081,6.811,6.739,6.739,1.1556,1.1511,1.1511,1.1556,1.1511,1.1489,1.1489,1.1919,1.2873,1.4684,1.5389,1.6067,1.7013,1.5979,1.6188,1.8535,2.2045,2.5727,2.9526,3.4088,3.6982,3.7864,3.8791,3.9288,3.9288,3.9984,4.0382,4.0382,4.1607,4.2294,4.2442,4.353,4.4202,4.4511,4.5645,4.6341,4.666,4.7276,4.7572,4.7699,4.7699,4.7699,4.7699,4.7699,4.7301,4.6685,4.6163,4.5472,4.4822,4.4967,4.4646,4.4433,4.5631,4.5196,4.414,4.3956,4.3487,4.3674,4.6452,4.7037,4.7797,5.1777,5.3417,5.4246,5.4989,5.5702,5.6696,5.8514,5.9001,5.9256,6.0005,6.0046,6.0194,6.1134,6.119,6.1136,6.1136,6.1136,6.1136,6.1136,6.1136,6.1136,6.1136,6.1679,6.2005,6.2005,6.2005,6.2005,6.2005,6.2308,6.2764,6.3356,6.3664,6.4559,6.6,6.6261,6.6808,6.765,6.8527,6.8944,6.8982,6.9816,7.0346,7.0574,7.0574,7.0574,7.0612,7.0839,7.1142,7.1445,7.1445,7.1673,7.1711,6.9058,6.8375,6.8792,1.1489,1.1489,1.1489,1.1489,1.1489,1.1489,1.1489,1.1518,1.1983,1.3292,1.3467,1.3522,1.363,1.2511,1.306,1.6304,1.9596,2.338,2.7866,3.2708,3.5887,3.7051,3.8526,3.9288,3.9288,3.9984,4.0382,4.0382,4.1077,4.1442,4.1475,4.2204,4.2684,4.2946,4.4313,4.532,4.595,4.666,4.7196,4.7699,4.7699,4.7699,4.7699,4.7699,4.625,4.4256,4.4612,4.4235,4.334,4.1797,4.1339,4.1495,4.1794,4.1645,4.1669,4.3048,4.34,4.3197,4.219,4.5972,5.0562,5.2308,5.5176,5.7752,5.831,5.8578,5.8883,5.9605,5.9683,5.9885,6.0788,6.0827,6.1027,6.186,6.1969,6.1969,6.1969,6.1969,6.1969,6.1969,6.1969,6.1969,6.1969,6.2005,6.2005,6.2005,6.2005,6.2005,6.2005,6.2005,6.293,6.4956,6.5044,6.5852,6.743,6.8436,6.875,6.8294,6.9344,6.9854,6.9891,7.0687,7.1521,7.2317,7.2317,7.2317,7.2355,7.3189,7.3037,7.2355,7.2355,7.1862,7.1029,7.0157,7.0839,7.2241,1.1489,1.1489,1.1489,1.1489,1.1489,1.1489,1.1489,1.1489,1.1809,1.2628,1.2744,0.0,0.0,0.0,0.0,0.0,1.8338,2.1761,2.6018,3.1036,3.443,3.5855,3.8071,3.9288,3.9288,3.952,3.9653,3.9653,4.0382,4.0746,4.0746,4.1475,4.1863,4.2122,4.3003,4.3802,4.441,4.5007,4.5574,4.6142,4.6602,4.6494,4.6287,4.7916,4.559,4.1497,0.0,4.0531,3.9508,3.9009,3.8681,3.8673,3.955,3.958,3.9593,4.1355,4.2853,4.4498,4.742,5.0322,5.3225,5.5934,5.7824,5.9009,5.9248,5.9372,5.9641,6.0336,6.0082,5.9973,6.0719,6.081,6.0919,6.1172,6.1679,6.2005,6.2005,6.2005,6.2005,6.2005,6.2005,6.2005,6.2005,6.2005,6.2005,6.2005,6.2476,6.3019,6.3563,6.4106,6.5112,6.6696,6.6786,6.7613,6.9425,6.9784,7.0304,7.104,7.1933,7.2658,7.3227,7.3492,7.3795,7.4061,7.4061,7.4061,7.4023,7.3757,7.3454,7.3151,7.262,7.2203,7.1938,7.1635,7.1703,7.1761,1.1489,1.1489,1.1489,1.1489,1.1489,0.0,0.0,0.0,0.0,0.0,0.0,0.0,0.0,0.0,0.0,0.0,0.0,2.0416,2.402,2.8474,3.1726,3.3319,3.5064,3.6247,3.6718,3.6313,3.6593,3.7535,3.8241,3.8974,3.9676,4.0601,4.11,4.1244,4.1991,4.2638,4.3256,4.3827,4.4414,4.505,4.4856,4.457,4.4306,4.4821,4.198,0.0,3.6706,3.5469,3.4376,3.4978,3.5613,3.6494,3.7969,3.8963,3.9975,4.1859,4.3678,4.6158,5.1012,5.336,5.5233,5.8196,5.932,5.974,5.9977,6.0155,6.0425,6.1064,6.0429,5.9865,6.0267,6.0375,6.0375,6.0375,6.1317,6.2005,6.2005,6.2005,6.2005,6.2005,6.2005,6.2114,6.2404,6.2693,6.273,6.244,6.3164,6.3961,6.4794,6.5591,6.6671,6.8145,6.8182,6.9044,7.0796,7.0995,7.1631,7.2692,7.3213,7.374,7.4267,7.4267,7.4267,7.4267,7.4267,7.4267,7.4229,7.3665,7.3439,7.3364,7.2536,7.2234,7.2197,7.1896,7.1569,7.1275,1.1489,1.1489,1.1489,0.0,0.0,0.0,0.0,0.0,0.0,0.0,0.0,0.0,0.0,0.0,0.0,0.0,0.0,0.0,2.1789,2.5124,2.7845,2.9801,2.999,3.0734,3.2127,3.0926,3.1642,3.427,3.4936,3.6214,3.8084,3.9391,4.0029,4.0117,4.0978,4.1627,4.2193,4.2832,4.3506,4.3986,4.2475,4.1858,4.1705,3.9035,3.6022,3.2966,3.1324,2.9627,2.8421,3.0076,3.258,3.5329,3.7362,3.9971,4.2608,4.4407,4.606,4.8263,5.264,5.5015,5.679,5.9108,5.9792,6.0098,6.0701,6.0953,6.1151,6.1643,6.0484,5.9325,5.9144,5.9289,5.9434,5.9434,6.0919,6.2114,6.215,6.215,6.215,6.215,6.2186,6.2476,6.3237,6.4033,6.4215,6.349,6.4142,6.4939,6.5736,6.6533,6.7692,6.931,6.9346,7.0071,7.1583,7.2153,7.2687,7.3187,7.3187,7.3187,7.3187,7.3187,7.3187,7.3187,7.3187,7.3187,7.3187,7.3149,7.3149,7.3075,7.2258,7.1909,7.1835,7.1056,7.0708,7.0907,0.0,0.0,0.0,0.0,0.0,0.0,0.0,0.0,0.0,0.0,0.0,0.0,0.0,0.0,0.0,0.0,0.0,0.0,1.9834,2.2646,2.5333,2.7814,2.9344,3.0481,3.1349,3.1082,3.1494,3.2656,3.2965,3.3559,3.4526,3.4984,3.5396,3.5771,3.612,3.6752,3.749,3.774,3.7863,3.7901,3.8018,3.7456,3.672,3.7677,3.4891,3.0526,3.1252,2.9144,2.6555,2.9965,3.4517,3.9254,4.2363,4.3273,4.3918,4.7286,4.9621,5.1726,5.4653,5.7442,5.9724,6.0339,6.0955,6.1516,6.1679,6.1245,6.0429,5.8746,5.7188,5.5377,5.2951,5.4907,5.6899,5.6899,6.0267,6.3092,6.3708,6.378,6.378,6.378,6.4323,6.4758,6.4975,6.5736,6.6351,6.675,6.6967,6.7438,6.8235,6.9032,7.0145,7.1531,7.1567,7.1945,7.276,7.296,7.3029,7.3187,7.3187,7.3187,7.3187,7.3187,7.3187,7.3187,7.3187,7.3187,7.3149,7.2555,7.2332,7.2206,7.1353,7.1056,7.1093,7.1464,7.1353,7.125,0.0,0.0,0.0,0.0,0.0,0.0,0.0,0.0,0.0,0.0,0.0,0.0,0.0,0.0,0.0,0.0,0.0,0.0,0.0,2.0117,2.2204,2.401,2.5116,2.6195,2.718,2.6626,2.7242,2.915,2.92,3.0002,3.1467,3.1792,3.2091,3.245,3.3016,3.3623,3.4108,3.4617,3.4806,0.0,0.0,3.3899,3.3294,3.3348,3.1133,2.8115,2.907,2.9622,3.0663,3.5322,3.9245,4.2777,4.6275,4.7196,4.7587,5.0937,5.2918,5.4544,5.6935,5.9434,6.1353,6.1353,6.1679,6.1643,6.0231,5.9542,5.8347,5.5233,5.3639,5.2118,4.9981,5.3096,5.5993,5.5993,6.0339,6.3889,6.4323,6.4396,6.4504,6.4867,6.5337,6.5881,6.6569,6.7366,6.8199,6.8995,6.8742,6.8887,6.9647,7.0444,7.1246,7.1975,7.2011,7.2153,7.2463,7.2463,7.2463,7.2463,7.2463,7.2463,7.2463,7.2463,7.2463,7.2463,7.2463,7.2463,7.2463,7.2333,7.2296,7.2333,7.2553,7.2606,7.2679,7.3178,7.3127,7.2936,0.0,0.0,0.0,0.0,0.0,0.0,0.0,0.0,0.0,1.4107,1.3874,1.4078,1.5182,1.5298,0.0,0.0,0.0,0.0,0.0,0.0,1.9217,2.0059,2.0088,2.0709,2.203,2.0878,2.1808,2.4852,2.4865,2.6077,2.8431,2.8982,2.9234,2.9358,3.0462,3.1048,3.1186,3.2259,3.2789,3.2685,3.1335,3.0818,3.0642,0.0,2.6766,2.6236,2.6507,3.0478,3.6485,4.2097,4.476,4.6313,4.9892,5.1502,5.248,5.4581,5.5812,5.6935,5.9035,6.0774,6.2005,6.2005,6.2005,6.1172,5.7949,5.6993,5.5654,5.1502,4.9901,4.896,4.8134,5.1756,5.5051,5.5595,6.0231,6.3961,6.4468,6.4649,6.5011,6.5808,6.6098,6.6786,6.8199,6.8923,6.9647,7.0335,6.9647,6.9539,7.0335,7.1024,7.1386,7.1494,7.1494,7.1494,7.1494,7.1494,7.1494,7.1494,7.1494,7.1494,7.1494,7.1494,7.1494,7.1494,7.1494,7.1567,7.1712,7.2436,7.2762,7.3016,7.4428,7.5044,7.5116,7.5225,7.5334,7.5334,0.0,0.0,0.0,0.0,0.0,0.0,0.0,0.0,0.0,0.0,1.6285,1.5066,0.0,0.0,0.0,0.0,0.0,0.0,0.0,0.0,0.0,2.003,2.0088,2.0436,2.1204,2.1,2.1407,2.2586,2.2687,2.323,2.4177,2.4433,2.4788,2.5149,2.5883,2.6498,2.7105,2.8109,2.8274,2.7858,2.7959,2.7636,2.7098,2.6601,0.0,0.0,2.7599,3.0683,3.5163,4.1745,4.6712,5.0878,5.4762,5.6066,5.6247,5.6681,5.784,5.9072,5.9506,6.0774,6.2005,6.2005,6.2005,6.1172,5.7949,5.5887,5.3324,4.8338,4.5894,4.4294,4.3168,4.6359,5.0234,5.3566,5.7659,6.1607,6.4903,6.5953,6.6677,6.751,6.8742,6.9684,6.9937,7.0082,7.0227,7.0372,6.9647,6.9539,7.0335,7.0517,7.0879,7.1494,7.1494,7.1494,7.1494,7.1494,7.1494,7.1494,7.1494,7.1494,7.1494,7.1494,7.1494,7.1494,7.1494,7.1893,7.2509,7.2653,7.3088,7.374,7.403,7.4537,7.5189,7.5841,7.6492,7.7144,0.0,0.0,0.0,0.0,0.0,0.0,0.0,1.675,1.8724,2.1249,2.0524,1.913,1.7475,1.6372,1.5531,0.0,0.0,0.0,0.0,0.0,0.0,1.9072,0.0,0.0,2.0001,2.0001,2.0349,2.1017,0.0,2.0895,2.1537,2.1649,2.1963,2.2509,2.3462,2.4212,2.4874,2.5926,2.6251,2.6037,2.6517,2.6535,2.6203,0.0,0.0,0.0,2.9417,3.2378,3.6182,4.0608,4.5717,5.1034,5.5713,5.7188,5.7116,5.6681,5.8021,5.9506,5.9108,6.0484,6.2005,6.2005,6.2005,6.0738,5.5848,5.3495,5.0605,4.4614,4.2429,4.1483,4.1143,4.4729,4.8605,5.1357,5.6536,6.1064,6.3418,6.5881,6.7728,6.8525,6.9684,7.0553,7.0915,7.0625,7.0372,7.0372,6.9249,6.8923,6.972,7.0154,7.0553,7.0915,7.1313,7.1494,7.1494,7.1494,7.1494,7.1494,7.1494,7.1494,7.1494,7.1494,7.1494,7.1494,7.1494,7.1965,7.2726,7.316,7.3812,7.4609,7.5442,7.6022,7.6456,7.7253,7.7796,7.8195,0.0,0.0,0.0,0.0,0.0,0.0,0.0,1.9362,2.1685,2.4355,2.4588,2.3397,2.0436,1.8143,1.6518,0.0,0.0,0.0,0.0,0.0,0.0,0.0,0.0,0.0,0.0,0.0,0.0,1.9885,1.9362,0.0,0.0,0.0,0.0,0.0,2.2159,2.2933,2.3456,2.4649,2.5214,0.0,0.0,2.6231,2.6432,0.0,0.0,0.0,0.0,3.3661,3.6831,3.9713,4.3798,4.8506,5.3656,5.5952,5.6573,5.5957,5.7478,5.9253,5.8782,6.0303,6.2005,6.2005,6.2005,6.0339,5.3965,5.1322,4.8396,4.1829,3.9838,3.9578,4.0564,4.386,4.7301,4.9908,5.5233,5.9724,6.1752,6.5048,6.7728,6.9032,6.9756,7.048,7.1422,7.0517,6.9937,7.0118,6.8633,6.809,6.8887,6.9684,7.0191,7.0372,7.1132,7.1494,7.1494,7.1494,7.1494,7.1494,7.1494,7.1494,7.1494,7.1494,7.1494,7.1494,7.1494,7.2074,7.3016,7.3667,7.45,7.5478,7.6746,7.7362,7.7579,7.8195,7.8557,7.8702,0.0,0.0,0.0,0.0,0.0,0.0,0.0,2.1034,2.3757,2.6968,2.6881,2.5749,2.3688,2.0698,1.8346,0.0,0.0,0.0,0.0,0.0,0.0,0.0,0.0,0.0,0.0,0.0,0.0,1.9188,1.913,0.0,0.0,0.0,0.0,0.0,0.0,2.2162,2.2422,2.3856,0.0,0.0,0.0,0.0,0.0,0.0,0.0,0.0,0.0,3.2719,3.5036,3.9842,4.1931,4.3227,4.7732,5.1886,5.5124,5.5015,5.6681,5.8637,5.9325,6.0738,6.2005,6.2005,6.2005,6.0339,5.3965,5.0653,4.7393,4.1683,3.8719,3.8058,4.1033,4.1977,4.4222,5.0198,5.2371,5.5305,6.1208,6.3599,6.5844,6.8814,6.9249,6.9865,7.135,6.9502,6.8525,6.9249,6.78,6.7257,6.809,6.885,6.9647,7.0372,7.1132,7.1494,7.1494,7.1494,7.1494,7.1494,7.1494,7.1494,7.1494,7.1494,7.1494,7.1494,7.1494,7.2364,7.3812,7.3885,7.479,7.6203,7.6348,7.6855,7.7507,7.7579,7.8086,7.8702,0.0,0.0,0.0,0.0,0.0,0.0,1.9682,2.1814,2.4626,2.8997,2.8647,2.7569,2.6484,2.3036,1.9856,1.7417,0.0,0.0,0.0,0.0,0.0,0.0,0.0,0.0,0.0,0.0,1.9304,1.9711,1.9711,0.0,0.0,0.0,0.0,0.0,0.0,2.2251,2.2673,2.3588,0.0,0.0,0.0,0.0,0.0,0.0,0.0,0.0,0.0,0.0,3.4858,3.688,3.9069,4.1126,4.1905,4.5242,4.9256,5.1513,5.4568,5.7369,5.8006,6.005,6.2005,6.2005,6.1281,5.8947,5.281,4.9317,4.5776,4.0202,3.7909,3.7658,4.0157,4.0235,4.1605,4.6825,4.937,5.2173,5.6414,6.0846,6.4323,6.6098,6.8017,6.9249,6.9394,6.8995,6.8452,6.78,6.7148,6.6931,6.7257,6.8054,6.885,6.9647,7.0408,7.106,7.1494,7.1494,7.1494,7.1494,7.1494,7.1494,7.1531,7.2001,7.1965,7.1531,7.2001,7.2871,7.3921,7.3921,7.4863,7.6275,7.6275,7.6492,7.6818,7.7326,7.7688,7.805,0.0,0.0,0.0,0.0,0.0,1.6806,2.0304,2.2555,2.5335,2.9375,2.9112,2.8294,2.7681,2.3955,2.0669,1.8782,1.7563,0.0,0.0,0.0,0.0,0.0,0.0,0.0,0.0,0.0,1.9711,2.0378,2.0553,2.1075,0.0,0.0,2.1917,2.2556,0.0,0.0,0.0,0.0,0.0,0.0,0.0,0.0,0.0,0.0,0.0,0.0,0.0,0.0,0.0,0.0,0.0,3.8967,3.8106,4.0158,4.3742,4.8155,5.2248,5.5615,5.6865,5.9384,6.1716,6.1969,6.0431,5.7493,5.192,4.8103,4.4308,3.9111,3.7426,3.7439,3.9061,3.9177,4.0369,4.4457,4.7168,5.0185,5.417,5.8782,6.2404,6.4178,6.6388,6.7728,6.7655,6.838,6.8271,6.6895,6.6786,6.6786,6.6786,6.7329,6.8126,6.914,6.9973,7.0734,7.1494,7.1494,7.1639,7.1857,7.1857,7.2001,7.2219,7.2798,7.2762,7.2255,7.2834,7.3523,7.4283,7.4283,7.508,7.6275,7.6275,7.6275,7.6348,7.6927,7.7144,7.7217,0.0,0.0,0.0,0.0,0.0,0.0,1.999,2.34,2.6147,2.7544,2.7831,2.7623,2.6905,2.2788,2.0611,2.183,1.8433,0.0,0.0,0.0,0.0,0.0,0.0,0.0,0.0,0.0,2.0378,2.0988,2.1656,2.2614,2.3862,2.3178,2.3252,2.3833,0.0,0.0,0.0,0.0,0.0,0.0,0.0,0.0,0.0,0.0,0.0,0.0,0.0,0.0,0.0,0.0,0.0,0.0,0.0,3.7701,3.9631,4.5337,4.9745,5.3421,5.6506,5.9023,6.1027,6.1824,5.9689,5.6204,5.1544,4.7237,4.3019,3.8761,3.7386,3.7145,3.7958,3.9018,4.086,4.4157,4.6016,4.9421,5.6197,5.7913,5.9941,6.3925,6.4432,6.5084,6.6677,6.7547,6.7692,6.6858,6.6786,6.6786,6.6786,6.6822,6.7547,6.914,6.9973,7.0734,7.1494,7.1494,7.1893,7.269,7.269,7.3124,7.3885,7.3885,7.3885,7.3885,7.3885,7.4356,7.5116,7.5116,7.5587,7.6275,7.6275,7.6275,7.6275,7.6311,7.6311,7.6311,0.0,0.0,0.0,0.0,0.0,0.0,0.0,2.0122,2.2294,2.5773,2.5092,2.4701,2.562,2.1904,1.9982,2.1521,1.8717,0.0,0.0,0.0,0.0,0.0,0.0,0.0,0.0,2.0407,2.1452,2.2962,2.363,2.4355,2.5168,2.4559,2.4123,2.3862,2.3178,2.2888,0.0,0.0,0.0,0.0,0.0,0.0,0.0,0.0,0.0,0.0,0.0,0.0,0.0,0.0,0.0,0.0,0.0,0.0,0.0,4.0171,4.4833,4.9463,5.1349,5.3561,5.5142,5.4382,5.2714,5.0189,4.625,4.3484,4.0728,3.7035,3.6547,3.6951,3.7582,3.7732,3.9691,4.5444,4.6478,4.8889,5.546,5.8963,6.1353,6.2621,6.4215,6.5844,6.7474,6.6858,6.6496,6.6786,6.6786,6.6786,6.6786,6.6786,6.7293,6.8343,6.914,6.9937,7.0734,7.1241,7.1893,7.2726,7.2726,7.3124,7.3921,7.45,7.4428,7.3957,7.45,7.4863,7.5116,7.5116,7.5587,7.6275,7.6275,7.6275,7.6275,7.6275,7.6275,7.6275,0.0,0.0,0.0,0.0,0.0,0.0,0.0,1.8191,1.9891,2.2663,2.185,2.1766,2.3753,2.0574,1.9152,2.1297,1.9265,0.0,0.0,0.0,0.0,0.0,0.0,0.0,2.0088,2.0698,2.2178,2.4617,2.5487,2.6358,2.7229,2.6852,2.5923,2.4588,2.3949,2.3351,0.0,0.0,0.0,0.0,0.0,0.0,2.9438,0.0,0.0,0.0,0.0,0.0,0.0,0.0,0.0,0.0,0.0,0.0,0.0,0.0,4.0721,4.4545,4.7291,4.9776,5.1395,5.0749,4.8818,4.6309,4.3545,4.1032,3.8628,3.59,3.5941,3.6471,3.6722,3.692,3.8699,4.387,4.4894,4.7394,5.4223,5.7542,6.0122,6.2223,6.4033,6.5663,6.6967,6.646,6.6279,6.675,6.6786,6.6786,6.6786,6.6786,6.704,6.7547,6.8597,6.9575,7.0372,7.1422,7.2364,7.316,7.3486,7.403,7.4826,7.5334,7.5297,7.4826,7.5334,7.5551,0.0,7.5551,7.5841,7.6275,7.6275,7.6275,7.6275,7.6275,7.6275,7.6275,0.0,0.0,0.0,0.0,0.0,0.0,0.0,1.7268,1.8677,1.8929,1.8469,1.9023,2.1393,1.8991,1.8312,2.1019,0.0,0.0,0.0,0.0,0.0,0.0,0.0,0.0,2.0146,2.0814,2.2672,2.5865,2.7258,2.8565,2.9755,2.9813,2.8419,2.5894,2.5284,2.4239,0.0,0.0,0.0,0.0,2.4987,2.623,0.0,0.0,0.0,0.0,0.0,0.0,0.0,0.0,0.0,0.0,0.0,0.0,0.0,0.0,0.0,0.0,0.0,4.6946,4.8837,4.9466,4.7034,4.4092,4.2672,3.9699,0.0,3.5404,3.5543,3.5844,3.5655,3.6559,3.8071,4.0569,4.2242,4.5717,5.2925,5.4885,5.755,6.2911,6.4142,6.4867,6.57,6.6388,6.6786,6.6786,6.6786,6.6786,6.6786,6.6786,6.6786,6.6786,6.8343,6.9539,7.0299,7.1893,7.3124,7.3921,7.4754,7.5515,7.6275,7.6275,7.6275,7.6275,7.6275,7.6275,7.6275,7.6275,7.6275,7.6275,7.6275,7.6275,7.6275,7.6275,7.6275,7.6275,0.0,0.0,0.0,0.0,0.0,0.0,0.0,0.0,0.0,0.0,1.7727,1.7677,1.9058,1.8049,1.7773,0.0,0.0,0.0,0.0,0.0,0.0,0.0,0.0,0.0,2.0756,2.1888,2.3804,2.6562,2.8797,3.0306,3.109,3.1584,3.0219,2.7258,2.662,2.5081,0.0,0.0,0.0,0.0,2.5452,2.6289,0.0,0.0,0.0,0.0,3.0364,3.1491,0.0,0.0,0.0,0.0,0.0,0.0,0.0,0.0,3.5943,3.6788,3.8037,0.0,4.1452,4.0508,3.9613,3.8722,0.0,3.6937,3.6058,3.5271,3.5453,3.5983,3.686,3.7589,3.9203,4.2652,4.5536,4.9103,5.4187,5.9078,6.3345,6.6496,6.6496,6.6569,6.7366,6.704,6.6786,6.6786,6.6786,6.6786,6.6786,6.6786,6.6786,6.6786,6.8343,6.9285,6.9466,7.1603,7.3124,7.3921,7.4754,7.5515,7.6275,7.6275,7.6275,7.6275,7.6275,7.6275,7.6275,7.6275,7.6275,7.6275,7.6275,7.6275,7.6275,7.6275,7.6275,7.6275,0.0,0.0,0.0,0.0,0.0,0.0,0.0,0.0,0.0,0.0,0.0,1.6441,1.7338,1.7371,0.0,0.0,0.0,0.0,0.0,0.0,0.0,0.0,0.0,1.9682,2.0959,2.1975,2.4065,2.7229,2.9464,3.1206,3.2425,3.2774,3.1409,2.845,2.6387,2.453,0.0,0.0,0.0,2.5224,2.4604,0.0,0.0,0.0,0.0,0.0,2.9598,3.0693,0.0,3.328,3.4054,3.4518,0.0,0.0,0.0,0.0,3.5181,3.5512,3.5512,3.7102,3.8593,3.7798,3.7367,3.7003,3.6605,3.5976,3.5379,3.5077,3.5178,3.5643,3.6578,3.8525,4.0789,4.345,4.7724,5.2299,5.71,6.2201,6.5844,6.6786,6.7184,6.7402,6.7438,6.7076,6.6786,6.6786,6.6786,6.6786,6.6786,6.6786,6.6786,6.6786,6.8343,6.8995,6.8633,7.135,7.2726,7.2834,7.4392,7.5334,7.5768,7.613,7.6275,7.6275,7.6275,7.6275,7.6275,7.6275,7.6275,7.6275,7.6275,7.6275,7.6275,7.6275,7.6275,7.6275,0.0,0.0,0.0,0.0,0.0,0.0,0.0,0.0,0.0,0.0,0.0,0.0,0.0,0.0,0.0,0.0,0.0,0.0,0.0,0.0,0.0,0.0,1.9346,1.9837,2.1333,2.1902,2.4025,2.7723,2.9929,3.1903,3.3616,3.4109,3.2716,2.961,2.5836,2.3717,2.2859,2.2352,2.3136,2.4646,2.3543,0.0,0.0,0.0,0.0,0.0,0.0,0.0,0.0,3.2916,3.3624,3.3856,3.5114,0.0,0.0,0.0,0.0,0.0,3.5048,3.6771,3.8427,3.7996,3.74,3.6936,3.6936,3.5876,3.4883,3.4883,3.5081,3.5652,3.7047,4.0212,4.3158,4.4865,4.9927,5.5394,6.0322,6.4251,6.6424,6.5844,6.7003,6.7619,6.704,6.6858,6.6786,6.6786,6.6786,6.6786,6.6786,6.6786,6.6786,6.6786,6.8235,6.8633,6.7836,7.106,7.2291,7.1531,7.3849,7.5008,7.5152,7.5804,7.6167,7.6275,7.6275,7.6275,7.6275,7.6275,7.6275,7.6275,7.6275,7.6275,7.6275,7.6275,7.6275,7.6275,0.0,0.0,0.0,0.0,0.0,0.0,0.0,0.0,0.0,0.0,0.0,0.0,0.0,0.0,0.0,0.0,0.0,0.0,0.0,0.0,0.0,2.1307,2.0068,2.048,2.2863,2.2937,2.4557,2.7969,3.1355,3.3441,3.4341,3.7041,3.5503,3.0277,2.6968,2.4559,2.2888,2.2801,2.3281,2.4036,2.3833,0.0,0.0,0.0,0.0,0.0,0.0,0.0,0.0,3.2486,3.2862,3.2895,3.3127,0.0,0.0,0.0,0.0,0.0,3.5644,3.7897,3.9454,3.697,3.6241,3.6174,3.6174,3.5512,3.4883,3.4883,3.5876,3.817,4.2808,4.4783,4.6946,5.0904,5.4579,5.8034,6.1371,6.4106,6.5989,6.6569,6.6822,6.7221,6.7764,6.7221,6.6786,6.6786,6.6786,6.6786,6.6786,6.6786,6.6786,6.6786,6.7692,6.78,6.7003,7.0806,7.2291,7.1531,7.3269,7.4464,7.5116,7.5261,7.5659,7.6275,7.6275,7.6275,7.6275,7.6275,7.6275,7.6275,7.6275,7.6275,7.6275,7.6275,7.6275,7.6275,0.0,0.0,0.0,0.0,0.0,0.0,0.0,0.0,0.0,0.0,0.0,0.0,0.0,0.0,0.0,0.0,0.0,0.0,0.0,0.0,2.1106,2.3386,2.2456,2.2622,2.4132,2.5571,2.7505,3.0017,3.3431,3.5633,3.6675,3.6412,3.3689,2.8913,2.6387,2.4413,2.2888,2.2888,2.331,2.3955,0.0,0.0,0.0,0.0,0.0,0.0,0.0,0.0,0.0,0.0,3.1846,3.2255,3.3168,0.0,0.0,0.0,0.0,0.0,3.4816,3.6373,3.8162,3.8791,4.0117,4.1388,4.1741,4.158,4.0927,3.9345,3.9935,4.1784,4.4941,4.7683,5.1716,5.8688,6.0639,6.2073,6.4266,6.5917,6.6858,6.6822,6.7184,6.7438,6.7366,6.704,6.6786,6.6786,6.6786,6.6786,6.6786,6.6786,6.6786,6.6786,6.7583,6.7619,6.6822,6.9901,7.106,7.0263,7.2291,7.3704,7.45,7.537,7.5949,7.6275,7.6275,7.6275,7.6275,7.6275,7.6275,7.6275,7.6275,7.6275,7.6275,7.6445,7.6445,7.6512,0.0,0.0,0.0,0.0,0.0,0.0,0.0,0.0,0.0,0.0,0.0,0.0,0.0,0.0,0.0,0.0,0.0,0.0,0.0,2.0156,2.1663,2.49,2.4926,2.5494,2.6872,2.8781,3.0752,3.285,3.5854,3.7943,3.9018,3.5769,3.2164,2.8316,2.6083,2.4268,2.2933,2.2978,2.336,2.386,0.0,0.0,0.0,0.0,0.0,0.0,0.0,0.0,0.0,0.0,0.0,0.0,0.0,0.0,0.0,3.3031,3.3809,3.4816,3.4419,3.5512,3.7566,4.0845,4.2734,4.4371,4.6819,4.6748,4.575,4.4238,4.4829,4.6167,4.7858,5.1847,5.7168,6.392,6.483,6.5192,6.6605,6.7329,6.751,6.6858,6.7366,6.7474,6.6858,6.6786,6.6786,6.6786,6.6786,6.6786,6.6786,6.6786,6.6786,6.6786,6.7402,6.7438,6.6822,6.8814,6.9611,6.9213,7.1386,7.2834,7.3667,7.508,7.5841,7.6022,7.6203,7.6275,7.6275,7.6275,7.6275,7.6275,7.6275,7.6378,7.6378,7.6578,7.668,7.6745,0.0,0.0,0.0,0.0,0.0,0.0,0.0,0.0,0.0,0.0,0.0,0.0,0.0,0.0,0.0,0.0,0.0,0.0,0.0,2.1275,2.2696,2.5008,2.6509,2.909,3.2787,3.2304,3.3333,3.5983,3.8544,4.0041,4.0523,3.7201,3.3819,3.0467,2.7292,2.4849,2.3068,2.3201,2.329,2.3393,2.364,0.0,0.0,0.0,0.0,0.0,0.0,0.0,0.0,0.0,0.0,0.0,0.0,0.0,3.2187,3.2028,3.3383,3.5048,3.5678,3.74,3.9587,4.1872,4.005,3.9701,4.731,4.6363,4.4702,4.741,4.9608,5.1787,5.4244,5.9531,6.3506,6.3382,6.4577,6.5808,6.6677,6.6858,6.6858,6.6822,6.6858,6.6858,6.6822,6.6786,6.6786,6.6786,6.6786,6.6786,6.6786,6.6786,6.6786,6.6786,6.6858,6.6858,6.6786,6.7728,6.8525,6.9213,7.0806,7.2001,7.2834,7.3704,7.45,7.5261,7.5985,7.6275,7.6275,7.6275,7.6275,7.6275,7.6275,7.6445,7.6614,7.6737,7.6866,7.7029,0.0,0.0,0.0,0.0,0.0,0.0,0.0,0.0,0.0,0.0,0.0,0.0,0.0,0.0,0.0,0.0,0.0,0.0,0.0,2.0704,2.2692,2.6303,2.7509,3.0084,3.4268,3.5473,3.717,3.9401,4.1168,4.1365,4.0078,3.6503,3.2962,2.9568,2.6733,2.4875,2.3834,2.3702,2.398,2.4398,2.4315,2.4338,0.0,0.0,0.0,0.0,0.0,0.0,0.0,0.0,2.8135,2.9139,2.9353,3.1098,3.2892,3.1742,3.2754,3.4187,3.3988,3.6539,3.9686,4.1409,4.1508,4.2741,4.9018,5.0895,5.1623,5.2804,5.4261,5.5953,5.7917,6.2026,6.5048,6.4722,6.5192,6.5881,6.6677,6.6786,6.6786,6.6786,6.6786,6.6786,6.6786,6.6786,6.6786,6.6786,6.6786,6.6786,6.6786,6.6786,6.6786,6.6786,6.6786,6.6786,6.6786,6.809,6.8887,6.9213,7.077,7.1929,7.2726,7.3559,7.4102,7.4428,7.5225,7.5551,7.5587,7.6094,7.6275,7.6275,7.6445,7.6512,7.6614,7.6902,7.7029,7.7092,0.0,0.0,0.0,0.0,0.0,0.0,0.0,0.0,0.0,0.0,0.0,0.0,0.0,0.0,0.0,0.0,0.0,0.0,1.9187,2.0141,2.2361,2.6071,2.7632,3.0212,3.4121,3.6856,3.9166,4.0959,4.2319,4.168,3.9188,3.5775,3.2912,3.0441,2.7174,2.5878,2.6091,2.5019,2.4883,2.5369,2.5277,2.5092,0.0,0.0,0.0,0.0,0.0,0.0,0.0,0.0,2.7517,2.8845,2.8996,3.0957,3.2957,3.15,3.3194,3.5313,3.4352,3.6804,4.0083,4.1972,4.3197,4.5208,5.0186,5.2838,5.473,5.6646,5.7876,5.9122,6.0705,6.3083,6.4939,6.5192,6.5446,6.5881,6.6677,6.6786,6.6786,6.6786,6.6786,6.6786,6.6786,6.6786,6.6786,6.6786,6.6786,6.6786,6.6786,6.6786,6.6786,6.6786,6.6786,6.6786,6.6786,6.8126,6.8923,6.9213,7.0517,7.1567,7.2364,7.316,7.3523,7.3595,7.4392,7.4754,7.479,7.5587,7.6058,7.6342,7.6643,7.6708,7.6708,7.7029,7.7155,7.7155,0.0,0.0,0.0,0.0,0.0,0.0,0.0,0.0,0.0,0.0,0.0,0.0,0.0,0.0,0.0,0.0,0.0,0.0,1.846,1.9876,2.1665,2.3884,2.68,2.9755,3.2597,3.6274,3.8898,4.0328,4.1749,4.0974,3.8012,3.5364,3.4086,3.3841,2.908,2.8158,2.999,2.7232,2.6018,2.6059,2.6383,2.6083,2.5567,0.0,0.0,0.0,0.0,0.0,0.0,0.0,2.6993,2.7805,2.8852,3.0494,3.1869,3.1209,3.4943,3.8924,3.7466,3.8725,4.111,4.3959,4.4721,4.5976,5.0559,5.102,5.2283,5.8268,6.0344,6.1507,6.2908,6.32,6.3454,6.4287,6.5084,6.5881,6.6677,6.6786,6.6786,6.6786,6.6786,6.6786,6.6786,6.6786,6.6786,6.6786,6.6786,6.6786,6.6786,6.6786,6.6786,6.6786,6.6786,6.6786,6.6786,6.7619,6.8416,6.9176,7.0009,7.077,7.1531,7.2327,7.269,7.2726,7.3559,7.3921,7.3957,7.479,7.5587,7.6378,7.6866,7.6929,7.6866,7.7181,7.7304,7.7304,0.0,0.0,0.0,0.0,0.0,0.0,0.0,0.0,0.0,0.0,0.0,0.0,0.0,0.0,0.0,0.0,0.0,0.0,1.846,1.9876,2.1433,2.3156,2.6038,2.8296,2.9656,3.2729,3.6538,4.1033,4.1058,3.9489,3.6598,3.4969,3.3096,3.1102,2.9872,2.9102,2.8659,2.7624,2.775,2.8694,2.8592,2.8129,2.7536,0.0,0.0,0.0,0.0,0.0,0.0,0.0,0.0,0.0,2.8682,3.0895,3.3182,3.2628,3.4235,3.6108,3.5678,3.9388,4.3363,4.3197,4.7135,5.1256,5.2124,5.3107,5.5043,5.9718,6.3004,6.4852,6.4178,6.4504,6.4975,6.5192,6.5446,6.5881,6.6677,6.6786,6.6786,6.6786,6.6786,6.6786,6.6786,6.6786,6.6786,6.6786,6.6786,6.6786,6.6786,6.6786,6.6786,6.6786,6.6786,6.6786,6.6786,6.7619,6.8416,6.9176,7.0009,7.077,7.1531,7.1748,7.1857,7.1893,7.2726,7.3088,7.316,7.4537,7.5653,7.6475,7.6154,7.6454,7.6883,7.5996,7.5983,7.646,0.0,0.0,0.0,0.0,0.0,0.0,0.0,0.0,0.0,0.0,1.7515,1.7657,0.0,0.0,0.0,0.0,0.0,0.0,1.8087,1.971,2.1334,2.2824,2.5741,2.8025,2.9648,3.1636,3.3988,3.6638,3.74,3.6572,3.4286,3.4397,3.3874,3.2793,3.2934,3.2498,3.156,3.0239,2.9835,3.0064,2.9889,2.9417,2.8787,0.0,0.0,0.0,0.0,0.0,0.0,0.0,0.0,0.0,2.8159,3.0195,3.264,3.329,3.5825,3.856,3.9421,4.3396,4.7371,4.7734,5.0591,5.3666,5.5168,5.6231,5.7946,6.1354,6.4111,6.5736,6.541,6.5482,6.57,6.6025,6.6098,6.6243,6.675,6.6786,6.6786,6.6786,6.6786,6.6786,6.6786,6.6786,6.6786,6.6786,6.6786,6.6786,6.6786,6.6786,6.6786,6.6786,6.6786,6.6786,6.6786,6.7293,6.7945,6.8706,6.9539,7.0299,7.106,7.1386,7.1494,7.1531,7.2001,7.2436,7.2862,7.3905,7.4906,7.5725,7.5406,7.5823,7.647,7.5335,7.5616,7.6533,0.0,0.0,0.0,0.0,0.0,0.0,0.0,0.0,0.0,1.7496,1.7505,1.7515,0.0,0.0,0.0,1.7515,1.7515,1.7515,1.7515,1.9538,2.1334,2.2824,2.5839,2.8754,3.1427,3.1967,3.1239,2.9317,3.2199,3.2829,3.1427,3.3789,3.5578,3.6804,3.6936,3.687,3.6406,3.3591,3.1669,3.051,3.051,3.0079,2.9417,2.9417,0.0,0.0,0.0,0.0,0.0,0.0,0.0,0.0,2.751,2.8878,3.0846,3.3192,3.8253,4.3595,4.5715,4.873,5.2014,5.4882,5.4428,5.4559,5.9045,6.0178,6.0826,6.2959,6.4027,6.5048,6.6424,6.6134,6.5953,6.6677,6.6786,6.6786,6.6786,6.6786,6.6786,6.6786,6.6786,6.6786,6.6786,6.6786,6.6786,6.6786,6.6786,6.6786,6.6786,6.6786,6.6786,6.6786,6.6786,6.6786,6.6786,6.6786,6.7221,6.8017,6.8814,6.9611,7.0408,7.1168,7.1494,7.1494,7.1494,7.2065,7.3016,7.3166,7.3665,7.4395,7.4628,7.5202,7.5764,7.4969,7.5726,7.7011,0.0,0.0,0.0,0.0,0.0,0.0,0.0,0.0,1.7566,1.7529,1.7505,1.7505,1.7515,1.7505,0.0,1.7515,1.7505,1.7505,1.7515,1.9538,2.1334,2.2824,2.6766,2.9516,3.0742,2.9218,2.8528,2.8588,3.094,3.1338,2.998,3.3326,3.475,3.4551,3.5711,3.4949,3.2696,3.0874,3.0278,3.051,3.051,3.0079,2.9417,2.9417,2.8191,0.0,0.0,0.0,0.0,0.0,0.0,0.0,2.7844,2.8874,2.9972,3.1671,3.558,3.9719,4.1342,4.6537,5.1824,5.3057,5.5883,5.8908,6.1253,6.2682,6.3538,6.3413,6.4927,6.6207,6.5917,6.6243,6.6605,6.6786,6.6786,6.6786,6.6786,6.6786,6.6786,6.6786,6.6786,6.6786,6.6786,6.6786,6.6786,6.6786,6.6786,6.6786,6.6786,6.6786,6.6786,6.6786,6.6786,6.6786,6.6786,6.6786,6.7221,6.8017,6.8814,6.9611,7.0408,7.1168,7.1494,7.1494,7.1656,7.2128,7.279,7.3068,7.3665,7.4358,7.3922,7.4359,7.4932,7.356,7.4037,7.5395,0.0,0.0,0.0,0.0,0.0,0.0,0.0,0.0,1.7681,1.7715,1.7726,1.7737,1.7737,1.7737,0.0,0.0,1.7505,1.7505,1.7515,1.9843,2.2493,2.5408,2.7694,2.892,2.8953,2.7528,2.6601,2.627,2.7793,2.8655,2.8986,3.2663,3.4352,3.4386,3.5876,3.5081,3.2597,3.147,3.0808,3.0543,3.0907,3.0609,2.988,2.9185,2.7992,2.6634,2.5938,0.0,0.0,0.0,0.0,0.0,0.0,0.0,2.8953,3.1835,3.5048,3.8758,4.3846,4.8361,5.2127,5.4477,5.7491,6.0359,6.1905,6.347,6.4644,6.495,6.5935,6.6677,6.6243,6.6533,6.6786,6.6786,6.6786,6.6786,6.6786,6.6786,6.6786,6.6786,6.6786,6.6786,6.6786,6.6786,6.6786,6.6786,6.6786,6.6786,6.6786,6.6786,6.6786,6.6786,6.6786,6.6786,6.6786,6.6786,6.7003,6.7438,6.8235,6.931,7.0531,7.1231,7.1557,7.1656,7.1718,7.2096,7.2522,7.2705,7.3081,7.347,7.3127,7.3575,7.4184,7.2936,7.3523,7.4918,0.0,0.0,0.0,0.0,0.0,0.0,0.0,0.0,0.0,1.8044,1.8057,1.807,1.8048,1.8027,1.7895,0.0,0.0,0.0,1.7515,2.0202,2.3586,2.7628,2.7926,2.776,2.7334,2.6336,2.5375,2.4381,2.4878,2.6303,2.8622,3.2034,3.4054,3.4949,3.6042,3.5379,3.3359,3.2232,3.104,3.0013,3.0609,3.0444,2.9648,2.8323,2.74,2.6571,2.5342,2.5375,2.6071,2.6303,0.0,0.0,0.0,0.0,2.803,3.1603,3.4518,3.8181,4.5763,4.9492,5.2401,5.6892,5.9282,6.0807,6.2007,6.3705,6.532,6.6523,6.6786,6.6786,6.6786,6.6786,6.6786,6.6786,6.6786,6.6786,6.6786,6.6786,6.6786,6.6786,6.6786,6.6786,6.6786,6.6786,6.6786,6.6786,6.6786,6.6786,6.6786,6.6786,6.6786,6.6786,6.6786,6.6786,6.6786,6.6786,6.6786,6.6822,6.7764,6.9092,7.0835,7.133,7.1656,7.1878,7.1878,7.2024,7.2263,7.2299,7.2416,7.2438,7.2496,7.2899,7.3413,7.2753,7.3523,7.4918,0.0,0.0,0.0,0.0,0.0,0.0,0.0,0.0,0.0,0.0,1.8363,1.8307,1.8266,1.8086,1.7958,1.7939,1.7704,1.7566,1.7505,0.0,0.0,2.5441,2.617,2.6733,2.73,2.5309,2.4812,2.5905,2.5375,2.6535,2.9317,3.1702,3.3557,3.4883,3.4419,3.3359,3.1735,2.9118,2.7931,2.7765,2.7827,2.7429,2.67,2.5872,2.5077,2.4414,2.4216,2.4613,2.5441,2.67,2.7168,0.0,0.0,0.0,2.7433,2.7997,3.104,3.4665,3.6588,4.3404,5.1594,5.8117,6.0877,6.2042,6.2279,6.4448,6.6523,6.6786,6.6786,6.6786,6.6786,6.6786,6.6786,6.6786,6.6786,6.6786,6.6786,6.6786,6.6786,6.6786,6.6786,6.6786,6.6786,6.6786,6.6786,6.6786,6.6786,6.6786,6.6786,6.6786,6.6786,6.6786,6.6786,6.6786,6.6786,6.6786,6.6786,6.6822,6.8307,6.9987,7.1635,7.1744,7.1842,7.1988,7.2144,7.2144,7.2048,7.238,7.238,7.2358,7.2438,7.2569,7.2642,7.2532,7.3523,7.4918,0.0,0.0,0.0,0.0,0.0,0.0,0.0,0.0,0.0,0.0,0.0,1.8619,1.8565,1.8408,1.8225,1.8035,1.7794,1.7947,1.8718,2.0295,2.2192,2.4381,2.4813,2.5144,2.5441,2.4083,2.3918,2.4978,2.4646,2.617,2.945,3.0841,3.2464,3.422,3.3094,3.2,3.0841,2.8323,2.68,2.6071,2.6108,2.7391,2.8895,2.5347,2.5547,2.7267,2.4009,2.3519,2.4646,2.5706,2.6601,2.73,2.7337,0.0,0.0,0.0,2.8959,3.214,3.8362,4.55,5.2501,5.8084,6.0839,6.242,6.2877,6.4939,6.6786,6.6786,6.6786,6.6786,6.6786,6.6786,6.6786,6.6786,6.6786,6.6786,6.6786,6.6786,6.6786,6.6786,6.6786,6.6786,6.6786,6.6786,6.6786,6.6786,6.6786,6.6786,6.6786,6.6786,6.6786,6.6786,6.6786,6.6786,6.6786,6.6786,6.704,6.751,6.8754,6.9999,7.1247,7.1842,7.2084,7.2204,7.2263,7.2263,7.2321,7.2438,7.2438,7.238,7.2496,7.2496,7.2496,7.2496,7.323,7.4294,0.0,0.0,0.0,0.0,0.0,0.0,0.0,0.0,0.0,0.0,0.0,1.8878,1.8878,0.0,0.0,0.0,1.7915,1.8165,1.911,1.9903,2.1139,2.2886,2.315,2.3348,2.3484,2.2922,2.3088,2.405,2.4215,2.6173,2.9755,3.0526,3.2054,3.4114,3.2575,3.157,3.0907,2.8357,2.6803,2.6042,2.662,2.8696,3.111,2.7911,2.8973,3.1532,2.5902,2.477,2.595,2.5579,2.6274,2.7374,2.7411,2.7411,0.0,0.0,0.0,3.0034,3.9821,4.5452,5.0147,5.6249,5.9504,6.1606,6.3357,6.535,6.6786,6.6786,6.6786,6.6786,6.6786,6.6786,6.6786,6.6786,6.6786,6.6786,6.6786,6.6786,6.6786,6.6786,6.6786,6.6786,6.6786,6.6786,6.6786,6.6786,6.6786,6.6786,6.6786,6.6786,6.6786,6.6786,6.6786,6.6786,6.6786,6.6845,6.7352,6.8367,6.8909,6.9828,7.1208,7.1728,7.2116,7.2358,7.2358,7.2416,7.2496,7.2496,7.2496,7.2496,7.2496,7.2496,7.2496,7.2496,7.3156,7.4074,0.0,0.0,0.0,0.0,0.0,0.0,0.0,0.0,0.0,0.0,0.0,1.907,1.907,1.8896,1.8714,1.8502,1.817,1.7905,1.7713,1.8595,1.9375,1.997,2.0699,0.0,2.2074,2.2011,2.2648,2.4081,2.4813,2.7011,3.0642,3.1533,3.3115,3.5157,3.3428,3.2597,3.2332,2.8826,2.7703,2.8481,3.054,3.111,3.115,3.4935,3.6531,3.6106,3.1011,3.0179,3.0902,2.7501,2.6852,2.7487,2.7487,2.7487,2.7317,0.0,0.0,0.0,3.5877,3.83,4.1221,5.2046,5.6447,5.9249,6.3538,6.5694,6.6786,6.6786,6.6786,6.6786,6.6786,6.6786,6.6786,6.6786,6.6786,6.6786,6.6786,6.6786,6.6786,6.6786,6.6786,6.6786,6.6786,6.6786,6.6786,6.6786,6.6786,6.6786,6.6786,6.6786,6.6786,6.6786,6.6786,6.6786,6.6786,6.6903,6.7782,6.9309,6.8699,6.9785,7.2189,7.1494,7.1626,7.2496,7.2496,7.2496,7.2496,7.2496,7.2496,7.2496,7.2496,7.2496,7.2496,7.2496,7.3487,7.4845,0.0,0.0,0.0,0.0,0.0,0.0,0.0,0.0,0.0,0.0,0.0,0.0,0.0,1.8914,1.8769,1.8695,1.8428,1.8128,1.7871,1.8654,1.9131,1.9094,1.9848,2.0585,2.1267,2.1267,2.1974,2.3443,2.4178,2.6215,2.9388,3.0704,3.2168,3.3717,3.2596,3.2174,3.1983,2.8277,2.7023,2.7811,3.0214,3.3388,3.6789,3.7216,3.932,4.1506,3.6998,3.4158,3.2565,3.2754,3.1104,2.8963,2.9038,2.833,2.7353,2.6651,2.719,2.9056,3.4086,3.6654,3.9657,4.6882,5.2277,5.6364,5.8945,6.2892,6.6025,6.6025,6.646,6.6786,6.6786,6.6786,6.6786,6.6786,6.6786,6.6786,6.6786,6.6786,6.6786,6.6786,6.6786,6.6786,6.6786,6.6786,6.6786,6.6786,6.6786,6.6786,6.6786,6.6786,6.6786,6.6786,6.6786,6.6845,6.6903,6.7549,6.8466,6.9559,6.9383,7.012,7.1531,7.1354,7.1411,7.1762,7.2275,7.2496,7.2496,7.2496,7.2496,7.2496,7.2496,7.2496,7.2496,7.2496,7.3523,7.4918,0.0,0.0,0.0,0.0,0.0,0.0,0.0,0.0,1.8906,1.8379,0.0,0.0,0.0,0.0,2.0259,1.9646,1.9188,1.8728,1.8205,1.8689,1.8879,1.8654,1.9297,1.9993,2.0711,2.0955,2.1776,2.3167,2.3905,2.5648,2.8364,2.9643,3.112,3.2646,3.1366,3.1458,3.2503,2.9454,2.8345,2.8905,3.2649,3.6076,3.9156,4.1346,4.3544,4.5101,4.2445,3.9838,3.7888,3.9105,3.7339,3.4404,3.2701,2.9573,2.6386,2.595,2.6521,2.7975,3.0862,3.3407,3.6752,4.2901,4.7212,5.1422,5.6644,6.054,6.3522,6.5265,6.6243,6.6786,6.6786,6.6786,6.6786,6.6786,6.6786,6.6786,6.6786,6.6786,6.6786,6.6786,6.6786,6.6786,6.6786,6.6786,6.6786,6.6786,6.6786,6.6786,6.6786,6.6786,6.6786,6.6786,6.6845,6.6903,6.7019,6.7757,6.8528,6.9274,6.9189,6.9685,7.0747,7.0861,7.1064,7.1358,7.2165,7.2496,7.2496,7.2496,7.2496,7.2496,7.2496,7.2496,7.2496,7.2496,7.3523,7.4918,0.0,0.0,0.0,0.0,0.0,0.0,0.0,0.0,1.9159,1.9159,0.0,0.0,0.0,0.0,0.0,2.133,2.0523,1.966,1.8612,1.8557,1.8557,1.8538,1.8974,1.9602,2.0429,2.1053,2.2024,2.3287,2.4028,2.5478,2.7668,2.8586,3.0146,3.2138,2.9859,3.0744,3.3806,3.2445,3.1772,3.2139,3.8128,3.91,3.8007,4.7687,4.951,4.6897,4.7479,4.7527,4.7232,4.6248,4.5187,4.3393,3.8164,3.0972,2.4469,2.456,2.4532,2.4871,0.0,0.0,0.0,3.9926,4.1499,4.4295,5.6633,5.8482,5.906,6.4339,6.6025,6.6605,6.6786,6.6786,6.6786,6.6786,6.6786,6.6786,6.6786,6.6786,6.6786,6.6786,6.6786,6.6786,6.6786,6.6786,6.6786,6.6786,6.6786,6.6786,6.6786,6.6786,6.6786,6.6822,6.6961,6.7019,6.7055,6.7395,6.7945,6.8714,6.8073,6.8531,7.0073,7.0073,7.055,7.1321,7.2165,7.2496,7.2496,7.2496,7.2496,7.2496,7.2496,7.2496,7.2496,7.2496,7.3523,7.4918,0.0,0.0,0.0,0.0,0.0,1.9682,1.8883,1.9937,2.0825,0.0,0.0,0.0,2.3469,2.4194,2.4245,2.3154,2.2865,2.1846,1.9731,1.9569,1.9511,1.9295,1.9409,2.0048,2.1236,2.1453,2.1962,2.2877,2.3596,2.4799,2.651,2.7809,2.917,3.0566,3.0538,3.0891,3.1274,2.9274,3.0558,3.4158,3.7854,4.1489,4.5301,5.1529,5.4037,5.4508,5.6364,5.4611,5.1633,5.3089,4.8235,4.0495,3.3698,2.9042,2.6049,2.6082,2.686,2.7639,2.7194,0.0,0.0,0.0,0.0,0.0,4.5045,4.8306,5.2161,5.9293,6.0738,6.1969,6.6062,6.6786,6.6786,6.6786,6.6786,6.6786,6.6786,6.6786,6.6786,6.6786,6.6786,6.6786,6.6786,6.6786,6.6786,6.6786,6.6786,6.6786,6.6786,6.6786,6.6845,6.6961,6.704,6.7502,6.8235,6.8403,6.8917,6.9687,6.8935,6.8788,6.9265,6.9816,7.022,7.0513,7.1908,7.2496,7.2496,7.2496,7.2496,7.2496,7.2496,7.2496,7.2496,7.2496,7.3523,7.4918,0.0,0.0,1.9911,2.0568,2.1316,2.1935,2.2154,2.2718,2.3333,0.0,0.0,0.0,2.6763,2.7247,2.6957,2.5425,2.4375,2.303,2.1215,2.0132,1.9627,1.9874,1.9795,2.0435,2.1861,2.1896,2.2373,2.3389,2.3467,2.39,2.4809,2.6333,2.7289,2.7775,2.8459,2.9008,2.9351,2.7057,2.9105,3.434,3.9328,4.2901,4.5924,5.2444,5.4617,5.4762,5.8854,5.7686,5.4864,5.8574,5.2974,4.3195,3.6569,3.1812,2.8347,2.6664,2.7526,2.8833,2.8126,2.921,3.0834,3.1809,0.0,0.0,4.3452,4.6397,5.0257,5.9312,6.1045,6.2005,6.5627,6.6025,6.5917,6.6243,6.6315,6.6424,6.675,6.6786,6.6786,6.6786,6.6786,6.6786,6.6786,6.6786,6.6786,6.6786,6.6786,6.6786,6.6786,6.6786,6.6845,6.7019,6.7154,6.7485,6.8201,6.833,6.8641,6.9082,6.8605,6.8385,6.8458,6.9559,7.011,7.0183,7.1798,7.2496,7.2496,7.2496,7.2496,7.2496,7.2496,7.2496,7.2532,7.2899,7.3817,7.4955,0.0,0.0,2.1094,2.2722,2.3763,2.4949,2.6542,2.6228,2.641,0.0,2.8273,2.9138,3.1392,3.1465,3.0457,2.8166,2.5737,2.3925,2.289,2.0496,1.9488,2.0391,2.0352,2.0952,2.2389,2.2495,2.3081,2.4222,2.3492,2.3221,2.3323,2.4673,2.515,2.4844,2.5087,2.6237,2.7927,2.5941,2.8334,3.4038,4.1339,4.3728,4.3824,5.2226,5.3748,5.2154,5.7949,5.8565,5.7333,6.1824,5.7469,4.9108,4.318,3.7363,3.1862,2.7571,2.8094,2.9925,2.9465,3.0423,3.219,3.4725,3.3952,0.0,4.6274,4.7732,4.979,6.0088,6.2186,6.2512,6.378,6.349,6.3237,6.378,6.4468,6.5337,6.6496,6.6677,6.6677,6.6677,6.6677,6.6714,6.6786,6.6786,6.6786,6.6786,6.6786,6.6786,6.6786,6.6786,6.6845,6.7019,6.7154,6.7395,6.7671,6.7707,6.7724,6.7834,6.7724,6.7687,6.7724,6.9376,7.011,7.0183,7.1798,7.2496,7.2496,7.2496,7.2496,7.2496,7.2496,7.2569,7.2716,7.345,7.4258,7.5139,2.0457,2.1176,2.221,2.3819,2.5682,2.7295,2.8283,2.8845,2.9734,3.1342,3.2072,3.3104,3.4863,3.3915,3.2648,3.1518,2.9198,2.665,2.3935,2.2023,2.1079,2.126,2.1837,2.253,2.3254,2.3838,2.3981,2.3649,2.3506,2.4052,2.5248,2.4928,2.4917,2.5185,2.4584,2.5068,2.6375,2.778,3.1763,3.7386,4.0203,4.4939,5.0995,5.6573,5.9108,5.9941,6.1824,6.1788,6.0412,5.7659,5.5288,5.2066,4.3858,4.1114,3.9731,3.374,3.4129,3.5863,3.2912,3.2603,3.3211,3.3413,3.3419,0.0,3.702,3.7749,3.9871,4.6963,4.8279,4.9293,5.3349,5.4472,5.4436,5.3313,5.7442,6.1969,6.5374,6.5844,6.5844,6.5844,6.5844,6.6098,6.675,6.6786,6.6786,6.6786,6.6786,6.6786,6.6786,6.6786,6.6903,6.7154,6.721,6.7651,6.8623,6.8017,6.8017,6.8678,6.8017,6.7687,6.7724,6.9376,7.011,7.0183,7.1798,7.2496,7.2496,7.2496,7.2496,7.2496,7.2496,7.2899,7.3487,7.3634,7.4625,7.5909,2.1379,2.2524,2.4078,2.6414,2.8408,3.0341,3.2276,3.258,3.2993,3.4238,3.508,3.5674,3.6017,3.5323,3.4191,3.2557,2.9831,2.7182,2.4741,2.2298,2.0971,2.0953,2.1696,2.2616,2.3667,2.4064,2.446,2.4869,2.4042,2.366,2.3652,2.4033,2.5111,2.6623,2.4395,2.5419,2.8711,2.7635,3.0504,3.629,4.1868,4.7699,5.3603,5.8383,6.0701,6.1534,6.2331,6.2331,6.1462,5.7876,5.5003,5.2196,4.8179,4.5462,4.2713,3.7435,3.7828,3.9082,3.4914,3.4526,3.5357,3.549,3.5424,0.0,0.0,3.8905,4.031,4.6643,4.6561,4.6395,5.0017,5.0053,4.9655,5.0017,5.4436,5.7804,5.784,6.2693,6.6207,6.6207,6.6207,6.6351,6.675,6.6786,6.6967,6.7366,6.7402,6.7402,6.7402,6.704,6.6903,6.721,6.721,6.7561,6.8274,6.7907,6.7907,6.8311,6.7871,6.7687,6.7724,6.9376,7.011,7.0183,7.1798,7.2496,7.2496,7.2496,7.2496,7.2496,7.2496,7.2973,7.3744,7.4147,7.5065,7.6166,2.1935,2.3644,2.5812,2.8445,3.0575,3.2821,3.5496,3.5376,3.5284,3.6193,3.7404,3.7961,3.7351,3.7314,3.6552,3.4731,3.1597,2.8858,2.6753,2.3741,2.219,2.2501,2.2172,2.297,2.5041,2.4314,2.4439,2.5534,2.423,2.3035,2.1984,2.3071,2.4915,2.7251,2.5068,2.6838,3.1254,2.8489,3.0776,3.6834,4.4765,4.9619,5.2661,5.8058,6.0013,6.0086,6.1498,6.2005,6.1607,5.8891,5.5535,5.2354,5.1484,4.8944,4.5319,3.9984,4.0637,4.2013,3.6906,3.6689,3.7993,3.8319,3.8174,3.8753,0.0,0.0,0.0,4.7518,4.6613,4.5381,4.7047,4.5888,4.5164,4.6649,5.0597,5.2299,4.8931,5.7188,6.3563,6.3563,6.5084,6.5917,6.5482,6.541,6.6134,6.7932,6.7062,6.6917,6.8005,6.728,6.7019,6.7266,6.7266,6.7378,6.7687,6.7687,6.7687,6.7687,6.7687,6.7687,6.7724,6.9376,7.011,7.0183,7.1798,7.2496,7.2496,7.2496,7.2496,7.2532,7.2679,7.312,7.3817,7.4771,7.5542,7.6203,2.1481,2.3879,2.6269,2.7355,3.0428,3.3128,3.4191,3.475,3.5284,3.6193,3.8872,4.0928,4.1552,4.1625,4.1772,4.2213,3.9282,3.5834,3.203,2.9368,2.8576,2.999,2.5987,2.5491,2.9308,2.5776,2.366,2.3095,2.291,2.3071,2.3542,2.3071,2.334,2.4462,2.7718,2.9475,3.0252,3.4164,3.9763,4.625,4.8061,4.7772,4.7083,5.4725,5.7152,5.7007,6.0701,6.2005,6.1426,5.7724,5.6527,5.5354,4.8525,4.9749,5.1837,4.2159,4.35,4.6757,4.0528,3.9985,4.0854,3.9586,4.0238,4.06,3.8319,0.0,3.9441,3.8753,0.0,3.879,3.7631,0.0,0.0,3.5602,4.0419,4.3969,4.2846,4.8061,5.1973,5.1973,5.8854,6.2766,6.0629,6.0412,6.2567,6.7819,6.3566,6.2966,6.8065,6.7591,6.7266,6.747,6.747,6.7524,6.7687,6.7687,6.7687,6.7687,6.7687,6.7687,6.7724,6.9376,7.011,7.0183,7.1798,7.2496,7.2496,7.2496,7.2496,7.2569,7.3303,7.3597,7.3891,7.5395,7.6019,7.6263,2.2734,2.4712,2.664,2.7796,3.0433,3.2747,3.392,3.5855,3.7316,3.7886,3.9363,4.0891,4.2176,4.1038,4.1295,4.3975,4.1258,3.8065,3.4954,3.2837,3.1224,3.0027,2.7076,2.6249,2.7967,2.5387,2.3595,2.2735,2.2298,2.1988,2.1843,2.1516,2.3769,2.8167,3.0451,3.3988,3.8405,3.9531,4.1211,4.3214,4.4883,4.4411,4.3978,5.5064,5.9124,5.919,6.1316,6.2168,6.1967,6.0311,5.7231,5.4209,5.5057,5.236,4.8384,4.5872,4.536,4.4704,4.0631,4.1615,4.3356,4.1361,4.2304,4.2846,3.9224,3.8174,3.7957,3.7739,0.0,0.0,0.0,0.0,0.0,0.0,3.8572,4.06,3.7957,4.3607,4.8532,4.9908,5.3349,5.6464,5.8709,5.8891,6.148,6.7746,6.3421,6.2874,6.8122,6.8086,6.796,6.8201,6.7726,6.7781,6.8385,6.7907,6.7687,6.7687,6.7687,6.7687,6.7724,6.9376,7.011,7.0183,7.1798,7.2496,7.2496,7.2496,7.2496,7.2569,7.3377,7.4001,7.4478,7.5139,7.5927,7.6679,2.3367,2.5115,2.667,2.7471,2.9677,3.2044,3.3929,3.6525,3.8358,3.872,3.9697,4.1098,4.3057,4.2018,4.275,4.6691,4.4777,4.2271,3.9753,3.7008,3.532,3.5018,2.9965,2.8219,3.043,2.6731,2.4129,2.2829,2.199,2.1407,2.1061,2.1061,2.4231,2.9988,3.2657,3.7582,4.3871,4.4017,4.4419,4.5039,4.6018,4.6603,4.77,5.6067,5.9989,6.1147,6.1947,6.2182,6.1995,6.1339,5.785,5.4464,5.8592,5.461,4.8693,4.9935,4.8981,4.6679,4.2959,4.4162,4.5688,4.2414,4.2668,4.2847,3.9512,3.8207,3.7739,3.8101,3.7305,0.0,0.0,0.0,3.5204,3.5747,0.0,3.8065,3.4733,3.926,4.3643,4.5599,4.7192,5.0126,5.5305,5.4798,5.747,6.5403,6.1345,6.1485,6.8199,6.8309,6.8255,6.8403,6.7854,6.7872,6.8568,6.7981,6.7687,6.7687,6.7687,6.7797,6.8054,6.9449,7.022,7.0513,7.1908,7.2496,7.2496,7.2496,7.2496,7.2569,7.312,7.397,7.4822,7.5043,7.5587,7.627,2.2393,2.4717,2.6173,2.5447,2.7856,3.092,3.3982,3.595,3.728,3.7846,3.9983,4.2538,4.5479,4.6755,4.8898,5.2606,5.2451,5.0935,4.8124,4.2763,4.28,4.9811,3.6523,3.2606,4.0487,3.1297,2.5267,2.2886,2.2045,2.199,2.2738,2.2738,2.4089,2.6863,3.4055,3.9077,4.2483,4.7163,5.2681,5.8105,5.5842,5.7667,6.123,5.7083,5.7838,6.1303,6.2105,6.1922,6.0901,5.8665,5.8263,5.8081,5.4606,5.5806,5.7715,5.4041,5.5533,5.6828,4.9747,4.8433,4.7736,4.223,4.0266,3.9252,3.7544,3.8277,3.9115,3.8355,3.9948,4.1035,3.9586,3.926,3.8464,3.6182,3.5892,0.0,0.0,3.3647,3.4154,3.5023,3.984,4.4729,0.0,4.5671,4.8115,5.9529,5.5158,5.6932,6.8257,6.8164,6.7724,6.7724,6.7687,6.7687,6.7724,6.7687,6.7687,6.7687,6.7687,6.8091,6.8898,6.9706,7.0513,7.1321,7.2165,7.2496,7.2496,7.2496,7.2496,7.2496,7.2532,7.3314,7.4582,7.5399,7.5176,7.483,2.3439,2.5603,2.6883,2.5455,2.7314,3.0326,3.415,3.6497,3.8949,4.2121,4.3547,4.5926,5.0277,5.0113,5.1398,5.5603,5.4869,5.3417,5.1687,4.7719,4.6801,4.9811,4.0084,3.6156,3.946,3.3109,2.8022,2.4537,2.4261,2.4261,2.4518,2.3968,2.5324,2.8416,3.5247,4.1225,4.647,5.0321,5.3763,5.6658,5.5852,5.7334,6.0163,6.0624,6.1682,6.31,6.3905,6.4067,6.3789,6.2998,6.1495,6.0066,6.0921,5.8794,5.6108,5.6923,5.6181,5.4862,5.3433,5.4737,5.4875,4.8148,4.701,4.5838,3.9425,3.9173,3.9758,3.7874,3.9799,4.147,4.0347,3.9329,3.8564,3.8277,3.693,3.5296,0.0,3.2516,3.2089,0.0,0.0,0.0,0.0,0.0,0.0,0.0,5.7288,5.9956,6.7687,6.8862,6.9265,6.9265,6.8752,6.8495,6.8495,6.7944,6.7687,6.7687,6.7687,6.8128,6.8935,6.9743,7.055,7.1358,7.2165,7.2496,7.2496,7.2496,7.2496,7.2496,7.2496,7.3001,7.3781,7.4598,7.5135,7.5494,2.485,2.5981,2.6726,2.6194,2.8564,3.1749,3.5341,3.8378,4.1358,4.4483,4.6214,4.8607,5.2322,5.2183,5.3306,5.7069,5.6813,5.5691,5.3875,5.1434,5.0695,5.218,4.522,4.2249,4.4232,3.8102,3.2999,2.9278,2.753,2.6686,2.6649,2.5841,2.6906,2.9659,3.5018,4.1148,4.7719,5.1573,5.5133,5.8143,5.8143,5.9417,6.1446,6.3429,6.3372,6.2522,6.4501,6.5066,6.4934,6.5191,6.409,6.2952,6.5081,6.2695,5.9538,6.163,6.0382,5.8253,5.785,5.9014,5.8809,5.27,5.1444,4.9825,4.2665,4.2264,4.285,4.0992,4.154,4.2996,4.4958,4.1723,3.9246,4.063,3.8118,3.5248,0.0,3.2201,0.0,0.0,0.0,0.0,0.0,0.0,0.0,0.0,0.0,0.0,0.0,6.8678,6.9376,6.9669,6.8898,6.8458,6.8458,6.7944,6.7687,6.7687,6.7687,6.8128,6.8935,6.9743,7.055,7.1358,7.2165,7.2496,7.2496,7.2496,7.2496,7.2496,7.2496,7.2926,7.3604,7.4163,7.4937,7.5741,2.6505,2.6177,2.6211,2.7814,3.136,3.4846,3.7368,4.1266,4.4238,4.5048,4.8061,5.0675,5.2159,5.3383,5.507,5.7446,5.8652,5.8091,5.5315,5.4064,5.4649,5.7307,5.1738,5.0438,5.4363,4.5773,3.968,3.6523,3.1604,2.9182,2.9159,2.8338,2.8778,3.0393,3.356,3.9093,4.6287,5.1059,5.6895,6.2952,6.2989,6.387,6.5191,6.5375,6.2915,5.9942,6.398,6.4934,6.4383,6.5154,6.5925,6.6549,6.6549,6.7063,6.7687,6.7687,6.7687,6.6843,6.2952,6.1337,5.9795,5.5757,5.3512,5.1197,4.7091,4.7344,4.8218,4.7341,4.5404,4.5915,5.2601,4.6207,4.0625,4.2776,3.9057,3.5089,3.2757,0.0,0.0,0.0,0.0,0.0,0.0,0.0,0.0,0.0,0.0,0.0,0.0,6.743,6.7797,6.8862,6.8128,6.765,6.7614,6.7614,6.7614,6.7614,6.765,6.8128,6.9009,6.9743,7.055,7.1431,7.2165,7.2496,7.2496,7.2496,7.2496,7.2496,7.2496,7.3156,7.4056,7.4064,7.4702,7.5501,2.7621,2.9867,3.2173,3.3154,3.3708,3.5037,3.8209,4.1189,4.4493,4.8418,5.1318,5.4344,5.7835,5.9035,5.9985,6.0969,6.1306,6.1049,6.0002,5.7978,5.8086,6.089,5.5463,5.3302,5.5244,4.7352,4.2078,3.9863,3.457,3.1874,3.1678,3.0834,3.0687,3.1201,3.3844,3.9392,4.7021,5.0105,5.6565,6.4714,6.5301,6.4714,6.3723,6.6145,6.4934,6.2328,6.5815,6.6953,6.6806,6.699,6.721,6.7393,6.7393,6.7504,6.7687,6.7687,6.7687,6.7467,6.6402,6.5962,6.4861,6.075,5.8547,5.6263,5.2229,5.2522,5.3066,5.0968,5.1993,5.2505,5.0081,4.6647,4.3432,4.1019,3.7071,0.0,0.0,0.0,0.0,3.3952,0.0,0.0,0.0,0.0,0.0,0.0,0.0,0.0,6.6366,6.3943,6.431,6.8752,6.8128,6.7393,6.6806,6.6806,6.6806,6.6806,6.7393,6.8421,6.9816,7.0,7.0881,7.2202,7.2422,7.2496,7.2496,7.2496,7.2496,7.2553,7.2963,7.3677,7.4582,7.498,7.5281,7.5501,3.066,3.3711,3.6334,3.642,3.8175,4.0154,4.1991,4.3825,4.6538,5.0818,5.3951,5.6511,5.8498,6.079,6.2201,6.2302,6.2648,6.2129,6.0408,6.0379,6.0594,6.0882,5.9045,5.827,5.8731,5.2856,4.8011,4.4268,3.918,3.5525,3.3253,3.2109,3.1555,3.169,3.397,3.8328,4.4415,5.1096,5.7299,6.2842,6.5081,6.5338,0.0,6.6476,6.6256,6.5191,6.7026,6.7687,6.7687,6.7687,6.7687,6.7687,6.7687,6.7687,6.7687,6.7687,6.7687,6.7687,6.7687,6.7687,6.7136,6.4824,6.3576,6.1851,5.7813,5.7556,5.7813,5.6365,5.5852,5.5778,5.6099,4.9911,4.3098,3.7937,3.4934,0.0,0.0,0.0,0.0,0.0,3.552,0.0,0.0,0.0,0.0,0.0,0.0,0.0,0.0,6.1777,6.3392,6.8752,6.743,6.6439,6.5999,6.5999,6.6145,6.6512,6.732,6.8348,6.9596,6.9926,7.0807,7.2018,7.2349,7.2496,7.2496,7.2496,7.2667,7.2926,7.3628,7.4199,7.4745,7.5281,7.5501,7.5501,3.4353,3.7209,3.9269,3.8393,4.2944,4.6896,4.7439,4.8258,4.9939,5.3072,5.632,5.8154,5.7504,6.079,6.2963,6.2748,6.3327,6.253,5.957,6.2106,6.2575,5.9966,6.2272,6.3445,6.2965,5.9245,5.4461,4.8605,4.3684,3.8758,3.3892,3.2418,3.1734,3.1756,3.3979,3.7345,4.2132,5.3456,5.8961,6.0493,6.4163,6.6035,6.6659,6.6659,6.71,6.7687,6.7687,6.7687,6.7687,6.7687,6.7687,6.7687,6.7687,6.7687,6.7687,6.7687,6.7687,6.7687,6.7687,6.7687,6.7687,6.7687,6.7687,6.6769,6.3209,6.2401,6.2401,6.2401,5.9061,5.8107,6.453,5.4069,4.2396,3.6083,3.4321,0.0,0.0,0.0,0.0,0.0,0.0,0.0,0.0,0.0,0.0,0.0,0.0,0.0,0.0,0.0,6.2658,6.8421,6.6549,6.5301,6.5007,6.5301,6.5705,6.6182,6.721,6.8164,6.9082,6.9779,7.0587,7.1505,7.2202,7.2496,7.2496,7.2553,7.2926,7.3566,7.4374,7.4745,7.4863,7.5318,7.5501,7.5501,3.6122,3.8992,4.1069,4.0213,4.3785,4.8143,5.225,5.3566,5.4828,5.674,5.93,6.1172,6.1745,6.3083,6.4199,6.4818,6.4978,6.4825,6.4215,6.4731,6.4719,6.3871,6.4329,6.4369,6.385,5.9175,5.4574,5.0123,4.3781,3.7841,3.2377,3.2077,3.1591,3.1087,3.3493,4.0002,4.9603,5.6441,6.1614,6.5338,6.6733,6.7357,6.7467,6.7467,6.7577,6.7687,6.7687,6.7687,6.7687,6.7687,6.7687,6.7687,6.7687,6.7687,6.7687,6.7687,6.7687,6.7687,6.7687,6.7687,6.7687,6.7687,6.7687,6.7504,6.6769,6.6623,6.6623,6.6623,6.5962,6.4567,6.1961,5.4913,4.7829,4.2616,0.0,0.0,0.0,0.0,0.0,0.0,0.0,0.0,0.0,0.0,0.0,0.0,0.0,0.0,0.0,0.0,5.6381,6.6586,6.6512,6.5301,6.3282,6.5264,6.5705,6.453,6.6659,6.8458,6.9889,7.0036,7.0881,7.2312,7.2459,7.2496,7.2553,7.3017,7.3677,7.446,7.4664,7.498,7.5392,7.5501,7.5501,7.5501,3.9854,4.17,4.3393,4.4282,4.7972,5.2026,5.5677,5.8451,5.9894,5.9289,6.0217,6.1134,6.1554,6.3541,6.4993,6.5375,6.5413,6.5413,6.5413,6.522,6.5019,6.481,6.5192,6.5199,6.4772,6.305,5.8342,5.0541,4.6995,4.0992,3.2807,3.2411,3.2015,3.1845,3.7303,4.2912,4.894,5.7638,6.2278,6.3944,6.6901,6.7915,6.7687,6.7687,6.7687,6.7687,6.7687,6.7687,6.7687,6.7687,6.7687,6.7687,6.7687,6.7687,6.7687,6.7687,6.7687,6.7687,6.7687,6.7687,6.7687,6.7687,6.7687,6.7687,6.7687,6.7687,6.7687,6.7687,6.7687,6.6072,6.0786,5.5207,5.0655,0.0,0.0,0.0,0.0,0.0,0.0,0.0,0.0,0.0,0.0,0.0,0.0,0.0,0.0,0.0,0.0,0.0,5.5427,0.0,6.5888,6.4677,6.3503,6.5081,6.5485,6.4751,6.7173,6.8935,7.011,7.055,7.1358,7.2496,7.2496,7.2496,7.2553,7.3364,7.4064,7.4745,7.498,7.5281,7.5501,7.5501,7.5501,7.5501,4.4201,4.524,4.6663,4.9048,5.2702,5.6066,5.8304,6.194,6.3674,6.1764,6.1468,6.144,6.144,6.3809,6.5413,6.5413,6.5566,6.5681,6.5681,6.5541,6.5483,6.5483,6.6091,6.6253,6.5916,6.6824,6.2508,5.2673,5.0685,4.4751,3.5248,3.3559,3.3483,3.5191,4.2101,4.6625,4.9596,5.8905,6.2818,6.3152,6.6881,6.8185,6.781,6.7741,6.7687,6.7687,6.7687,6.7687,6.7687,6.7687,6.7687,6.7687,6.7687,6.7687,6.7687,6.7687,6.7687,6.7741,6.781,6.7794,6.7741,6.7967,6.7863,6.7741,6.781,6.7794,6.7687,6.7687,6.7687,6.5999,6.0493,5.7079,5.4442,5.239,0.0,0.0,0.0,0.0,0.0,0.0,0.0,0.0,0.0,0.0,0.0,0.0,0.0,0.0,5.6859,0.0,0.0,0.0,6.4383,6.3135,6.2805,6.464,6.5485,6.5338,6.776,6.9339,7.011,7.0954,7.1762,7.2496,7.2496,7.263,7.2871,7.3784,7.4417,7.4903,7.5356,7.5501,7.5501,7.5501,7.5501,7.5501,4.8355,5.0087,5.1779,5.3587,5.6126,5.8527,6.0186,6.2708,6.4545,6.4958,6.4976,6.4917,6.4917,6.5222,6.5413,6.5413,6.6139,6.6598,6.6598,6.7216,6.7598,6.7598,6.7674,6.7681,6.7649,6.7417,6.4723,5.9474,5.2892,4.6607,4.0673,3.6014,3.7083,4.3059,4.6113,5.1939,5.9597,6.1489,6.4634,6.8366,6.8399,6.8394,6.8297,6.7863,6.7687,6.7687,6.7687,6.7687,6.7687,6.7687,6.7687,6.7687,6.7687,6.7687,6.7687,6.7687,6.7687,6.7757,6.8235,6.8033,6.7915,6.8734,6.8346,6.781,6.8235,6.7982,6.7687,6.7687,6.7687,6.6182,6.119,6.2952,6.2316,5.3665,5.4717,0.0,0.0,0.0,5.528,5.818,0.0,0.0,0.0,3.9129,0.0,0.0,0.0,0.0,0.0,0.0,0.0,6.1961,6.1227,6.0052,5.8584,6.3759,6.6035,6.5338,6.776,6.9339,7.011,7.0954,7.1762,7.2496,7.2496,7.3034,7.3916,7.4417,7.4942,7.5427,7.5501,7.5501,7.5501,7.5501,7.5501,7.5501,5.3472,5.3703,5.4472,5.7703,5.8704,5.9935,6.2617,6.4296,6.529,6.5542,6.5465,6.5413,6.5413,6.5872,6.6178,6.6178,6.6942,6.74,6.74,6.7706,6.7897,6.7897,6.8394,6.8661,6.8661,6.9093,6.665,6.1256,5.5313,4.9472,4.379,4.1208,4.3061,4.8793,5.3836,5.8033,6.1576,6.546,6.8068,6.9504,6.9003,6.8642,6.8346,6.7863,6.7687,6.7687,6.7687,6.7687,6.7687,6.7687,6.7687,6.7687,6.7687,6.7687,6.7794,6.8033,6.8134,6.8198,6.8688,6.8734,6.8651,6.9003,6.887,6.8605,6.878,6.8642,6.8538,6.8538,6.8538,6.7895,6.5594,6.414,6.2872,6.1713,6.0772,6.1114,0.0,0.0,0.0,6.5386,0.0,0.0,0.0,0.0,0.0,0.0,0.0,0.0,0.0,0.0,0.0,5.7079,6.1227,6.2328,6.0162,6.4383,6.6329,6.6035,6.8458,6.9779,7.0146,7.1431,7.2202,7.2496,7.2853,7.3364,7.4056,7.454,7.5019,7.5501,7.5501,7.5501,7.5501,7.5501,7.5501,7.5501,5.8319,5.8088,5.8665,6.2397,6.2512,6.2935,6.5359,6.6192,6.6496,6.6403,6.6289,6.6124,6.5796,6.656,6.7056,6.7056,6.7821,6.8279,6.8279,6.8508,6.8623,6.8623,6.9266,6.961,6.961,7.0279,6.8587,6.4441,5.9077,5.435,5.021,4.8286,5.0077,5.5161,6.0141,6.3045,6.4458,6.8623,7.0213,6.9965,6.9504,6.9003,6.8548,6.8084,6.781,6.7687,6.7687,6.7687,6.7687,6.7687,6.7687,6.7741,6.7863,6.7915,6.7982,6.8501,6.8642,6.8734,6.9223,6.9306,6.9269,6.9508,6.9388,6.9227,6.9347,6.9265,6.9139,6.9139,6.9139,6.9053,6.8743,6.5858,6.3979,6.5534,6.4735,6.4345,6.5715,6.7895,0.0,6.6993,6.4483,6.263,6.1919,5.2441,0.0,0.0,0.0,0.0,0.0,0.0,0.0,0.0,6.0823,6.2548,6.1263,6.4494,6.6366,6.688,6.9045,7.011,7.0146,7.1762,7.261,7.2742,7.3261,7.3774,7.4243,7.4705,7.5132,7.5501,7.5501,7.5501,7.5501,7.5501,7.5501,7.5501,6.2589,6.3897,6.5282,6.7859,6.8321,6.8321,6.8359,6.8306,6.8252,6.8252,6.8196,6.7774,6.682,6.74,6.7897,6.7897,6.8661,6.9196,6.9196,6.9922,7.0381,7.0381,7.0483,7.0585,7.0585,7.0678,7.0669,7.0593,6.4715,6.1761,6.1608,5.7378,5.8055,6.2891,6.3762,6.6445,7.0304,7.0381,7.0419,7.0386,6.9965,6.9504,6.9047,6.8586,6.8084,6.7687,6.7687,6.7687,6.7687,6.7687,6.7687,6.7757,6.8284,6.8394,6.8501,6.9053,6.9185,6.931,6.9851,6.9664,6.9511,7.0445,6.9995,6.9433,6.9887,6.9626,6.9313,6.9313,6.9313,6.9313,6.9313,6.9275,6.7429,6.214,6.5727,6.7051,6.0887,6.2652,0.0,6.0476,5.169,5.0263,6.1321,4.9948,0.0,0.0,0.0,0.0,0.0,0.0,0.0,6.13,5.9281,5.8841,6.0419,6.3686,6.6109,6.7687,6.9339,7.011,7.0146,7.1762,7.2798,7.335,7.3774,7.4243,7.4745,7.5281,7.5501,7.5501,7.5501,7.5501,7.5501,7.5501,7.5501,7.5501,6.6359,6.7013,6.7436,6.8282,6.8398,6.8398,6.8398,6.8371,6.8345,6.8317,6.8761,6.8935,6.8578,6.874,6.8893,6.8893,6.9728,7.0226,7.0226,7.0455,7.0609,7.0609,7.0647,7.0678,7.0678,7.0699,7.0758,7.0758,6.5448,6.281,6.2682,6.1927,6.3904,6.8212,6.8449,6.926,7.0419,7.0419,7.0419,7.0348,6.9965,6.9701,6.9544,6.9047,6.878,6.8642,6.8642,6.8642,6.8642,6.8642,6.8688,6.8788,6.9265,6.901,6.8651,6.947,6.974,6.9851,7.0342,7.0407,7.0369,7.0639,7.0508,7.0337,7.0477,7.0342,7.0238,7.0238,7.0238,7.0171,6.9851,6.9776,6.8905,6.6332,6.8297,6.913,6.6383,6.7959,6.8751,6.7014,6.4294,6.3913,6.7509,5.8837,0.0,0.0,0.0,0.0,0.0,0.0,0.0,0.0,6.13,6.3246,6.2071,6.4751,6.6659,6.7724,6.9339,7.066,7.1762,7.2687,7.3141,7.335,7.4109,7.4544,7.4745,7.5281,7.5501,7.5501,7.5501,7.5501,7.5501,7.5501,7.5501,7.5501,6.8667,6.9129,6.936,6.936,6.936,6.936,6.936,6.936,6.9294,6.9267,6.9728,7.0008,6.9951,6.9951,6.9923,6.9864,7.0401,7.0708,7.0708,7.0708,7.0708,7.0708,7.0699,7.0729,7.0729,7.0787,7.0843,7.0843,6.7691,6.6115,6.6062,6.6573,6.8206,7.0678,7.0647,7.0585,7.0451,7.0451,7.0451,7.0386,7.0144,6.9965,6.9778,6.9504,6.9261,6.9091,6.9091,6.9091,6.9091,6.9134,6.9181,6.9269,6.9814,6.9588,6.9272,7.0064,7.0271,7.0375,7.0699,7.0787,7.0815,7.0787,7.0787,7.0815,7.0787,7.0758,7.0758,7.0758,7.0758,7.0699,7.0369,7.0337,7.008,6.9306,6.9997,7.0296,6.9305,7.0747,7.0527,6.6853,6.7078,6.758,0.0,6.2886,6.035,0.0,0.0,0.0,0.0,0.0,5.6756,5.9124,6.364,6.5448,6.42,6.5742,6.7063,6.8164,6.9962,7.1507,7.2798,7.3313,7.3628,7.3869,7.4455,7.4786,7.5057,7.5356,7.5501,7.5501,7.5501,7.5501,7.5501,7.5501,7.5501,7.5501,6.9783,7.0398,7.0898,7.0898,7.0898,7.0898,7.0898,7.0898,7.0898,7.0898,7.0898,7.0898,7.0898,7.0898,7.0843,7.0699,7.0699,7.0699,7.0699,7.0699,7.0699,7.0699,7.0758,7.0787,7.0787,7.0871,7.0898,7.0898,7.0898,7.0898,7.0898,7.0843,7.0787,7.0787,7.0729,7.0678,7.0623,7.0623,7.0522,7.0419,7.0419,7.0179,6.9853,6.9853,6.9584,6.9176,6.9176,6.9176,6.9219,6.9265,6.9306,6.9391,6.9992,7.0162,7.0266,7.0661,7.0787,7.0815,7.0871,7.0898,7.0898,7.0898,7.0898,7.0898,7.0898,7.0898,7.0898,7.0898,7.0898,7.0898,7.0898,7.0898,7.0898,7.0898,7.0898,7.0629,6.9821,7.1091,6.9382,6.1912,6.2459,6.3427,6.337,6.3291,6.5459,0.0,0.0,0.0,0.0,5.9816,5.8405,6.703,6.6173,6.5867,6.6602,6.6623,6.7467,6.9137,7.1072,7.2444,7.3364,7.3821,7.4287,7.4705,7.4745,7.5057,7.5501,7.5501,7.5501,7.5501,7.5501,7.5501,7.5501,7.5501,7.5501,7.5501,7.0629,7.0783,7.0898,7.0898,7.0898,7.0898,7.0898,7.0898,7.0898,7.0898,7.0898,7.0898,7.0898,7.0898,7.0871,7.0843,7.0843,7.0843,7.0843,7.0843,7.0843,7.0843,7.0871,7.0871,7.0871,7.0898,7.0898,7.0898,7.0898,7.0898,7.0898,7.0871,7.0843,7.0787,7.0758,7.0729,7.0678,7.0616,7.0554,7.0554,7.0451,7.0315,7.0247,7.0247,7.0213,7.0071,7.0071,7.0071,7.0106,7.0213,7.0315,7.0375,7.0601,7.069,7.0748,7.0843,7.0871,7.0871,7.0898,7.0898,7.0898,7.0898,7.0898,7.0898,7.0898,7.0898,7.0898,7.0898,7.0898,7.0898,7.0898,7.0898,7.0898,7.0898,7.0898,7.0629,6.9821,7.0552,7.0256,6.7806,6.8367,6.8925,6.8925,6.8838,6.7514,6.4384,6.5635,6.539,6.2773,6.2277,6.4104,6.8547,6.8007,6.7753,6.7938,6.8194,6.9299,7.1272,7.1761,7.2609,7.3869,7.4287,7.4585,7.4745,7.5132,7.5392,7.5501,7.5501,7.5501,7.5501,7.5501,7.5501,7.5501,7.5501,7.5501,7.5501,7.0898,7.0898,7.0898,7.0898,7.0898,7.0898,7.0898,7.0898,7.0898,7.0898,7.0898,7.0898,7.0898,7.0898,7.0898,7.0898,7.0898,7.0898,7.0898,7.0898,7.0898,7.0898,7.0898,7.0898,7.0898,7.0898,7.0898,7.0898,7.0898,7.0898,7.0898,7.0898,7.0871,7.0843,7.0843,7.0787,7.0729,7.0708,7.0647,7.0585,7.0522,7.0451,7.0419,7.0419,7.0419,7.0419,7.0451,7.0522,7.0522,7.0647,7.0737,7.0729,7.0815,7.0871,7.0898,7.0898,7.0898,7.0898,7.0898,7.0898,7.0898,7.0898,7.0898,7.0898,7.0898,7.0898,7.0898,7.0898,7.0898,7.0898,7.0898,7.0898,7.0898,7.0898,7.0591,7.0206,6.9744,7.009,7.0206,6.9744,7.0371,7.0843,7.0843,7.0787,6.9424,6.6145,6.6739,6.6574,6.5129,6.6135,6.7387,6.8784,6.8772,6.8688,6.8688,6.9644,7.0685,7.1749,7.2735,7.3613,7.4331,7.4863,7.5095,7.5095,7.5392,7.5501,7.5501,7.5501,7.5501,7.5501,7.5501,7.5501,7.5501,7.5501,7.5501,7.5501,7.0898,7.0898,7.0898,7.0898,7.0898,7.0898,7.0898,7.0898,7.0898,7.0898,7.0898,7.0898,7.0898,7.0898,7.0898,7.0898,7.0898,7.0898,7.0898,7.0898,7.0898,7.0898,7.0898,7.0898,7.0898,7.0898,7.0898,7.0898,7.0898,7.0898,7.0898,7.0898,7.0898,7.0898,7.0898,7.0871,7.0815,7.0787,7.0737,7.0616,7.0623,7.0522,7.0419,7.0419,7.0419,7.0451,7.0554,7.0623,7.0616,7.0767,7.0787,7.0815,7.0871,7.0898,7.0898,7.0898,7.0898,7.0898,7.0898,7.0898,7.0898,7.0898,7.0898,7.0898,7.0898,7.0898,7.0898,7.0898,7.0898,7.0898,7.0898,7.0898,7.0706,7.0052,6.9821,6.9475,6.8821,6.9283,6.9706,6.9706,7.0398,7.0898,7.0898,7.0843,7.0815,7.0787,7.0017,6.9774,7.0394,6.9795,6.9175,6.8637,6.9011,6.9289,6.9466,7.0818,7.1651,7.2003,7.3821,7.4745,7.4863,7.5281,7.5501,7.5501,7.5501,7.5501,7.5501,7.5501,7.5501,7.5501,7.5501,7.5501,7.5501,7.5501,7.5501,7.5501,7.0898,7.0898,7.0898,7.0898,7.0898,7.0898,7.0898,7.0898,7.0898,7.0898,7.0898,7.0898,7.0898,7.0898,7.0898,7.0898,7.0898,7.0898,7.0898,7.0898,7.0898,7.0898,7.0898,7.0898,7.0898,7.0898,7.0898,7.0898,7.0898,7.0898,7.0898,7.0898,7.0898,7.0898,7.0898,7.0898,7.0871,7.0815,7.0787,7.0767,7.0647,7.0623,7.0554,7.0451,7.0451,7.0554,7.0585,7.0616,7.0708,7.0758,7.0787,7.0815,7.0871,7.0898,7.0898,7.0898,7.0898,7.0898,7.0898,7.0898,7.0898,7.0898,7.0898,7.0898,7.0898,7.0898,7.0898,7.0898,7.0898,7.0898,7.0898,7.0898,6.9744,6.6167,6.7898,6.8436,6.482,6.7398,6.9706,6.9706,7.0398,7.0898,7.0898,7.0898,7.0871,7.0787,7.0643,7.0268,6.9604,7.0141,7.008,6.919,6.9509,7.0146,7.1118,7.1381,7.2429,7.4207,7.4513,7.4942,7.5392,7.5462,7.5501,7.5501,7.5501,7.5501,7.5501,7.5501,7.5501,7.5501,7.5501,7.5501,7.5501,7.5501,7.5501,7.5501,7.0898,7.0898,7.0898,7.0898,7.0898,7.0898,7.0898,7.0898,7.0898,7.0898,7.0898,7.0898,7.0898,7.0898,7.0898,7.0898,7.0898,7.0898,7.0898,7.0898,7.0898,7.0898,7.0898,7.0898,7.0898,7.0898,7.0898,7.0898,7.0898,7.0898,7.0898,7.0898,7.0898,7.0898,7.0898,7.0898,7.0898,7.0871,7.0815,7.0787,7.0737,7.0678,7.0647,7.0578,7.0578,7.0647,7.0708,7.0737,7.0758,7.0815,7.0843,7.0843,7.0898,7.0898,7.0898,7.0898,7.0898,7.0898,7.0898,7.0898,7.0898,7.0898,7.0898,7.0898,7.0898,7.0898,7.0898,7.0898,7.0898,7.0898,7.0898,7.0898,7.0129,6.7744,6.8667,6.8859,6.6397,6.8167,6.9706,6.9706,7.0398,7.0898,7.0898,7.0898,7.0871,7.0843,7.0815,7.0633,7.0153,7.0507,7.0516,7.0072,7.009,7.0608,7.1598,7.2053,7.3042,7.4447,7.4904,7.5245,7.5501,7.5501,7.5501,7.5501,7.5501,7.5501,7.5501,7.5501,7.5501,7.5501,7.5501,7.5501,7.5501,7.5501,7.5501,7.5501,7.0898,7.0898,7.0898,7.0898,7.0898,7.0898,7.0898,7.0898,7.0898,7.0898,7.0898,7.0898,7.0898,7.0898,7.0898,7.0898,7.0898,7.0898,7.0898,7.0898,7.0898,7.0898,7.0898,7.0898,7.0898,7.0898,7.0898,7.0898,7.0898,7.0898,7.0898,7.0898,7.0898,7.0898,7.0898,7.0898,7.0898,7.0898,7.0871,7.0815,7.0787,7.0758,7.0699,7.0737,7.0737,7.0699,7.0758,7.0815,7.0815,7.0871,7.0898,7.0898,7.0898,7.0898,7.0898,7.0898,7.0898,7.0898,7.0898,7.0898,7.0898,7.0898,7.0898,7.0898,7.0898,7.0898,7.0898,7.0898,7.0898,7.0898,7.0898,7.0898,7.0398,6.8783,6.9167,6.9206,6.7744,6.8783,6.9783,6.9975,7.0514,7.0898,7.0898,7.0898,7.0898,7.0898,7.0843,7.0815,7.0815,7.0758,7.0699,7.0708,7.0515,7.0948,7.1985,7.2673,7.3514,7.4507,7.5157,7.5501,7.5501,7.5501,7.5501,7.5501,7.5501,7.5501,7.5501,7.5501,7.5501,7.5501,7.5501,7.5501,7.5501,7.5501,7.5501,7.5501,7.0898,7.0898,7.0898,7.0898,7.0898,7.0898,7.0898,7.0898,7.0898,7.0898,7.0898,7.0898,7.0898,7.0898,7.0898,7.0898,7.0898,7.0898,7.0898,7.0898,7.0898,7.0898,7.0898,7.0898,7.0898,7.0898,7.0898,7.0898,7.0898,7.0898,7.0898,7.0898,7.0898,7.0898,7.0898,7.0898,7.0898,7.0898,7.0898,7.0871,7.0815,7.0787,7.0787,7.0699,7.0729,7.0787,7.0787,7.0843,7.0898,7.0898,7.0898,7.0898,7.0898,7.0898,7.0898,7.0898,7.0898,7.0898,7.0898,7.0898,7.0898,7.0898,7.0898,7.0898,7.0898,7.0898,7.0898,7.0898,7.0898,7.0898,7.0898,7.0898,6.959,6.5628,6.7628,6.859,6.532,6.7667,6.9975,7.0706,7.086,7.0898,7.0898,7.0898,7.0898,7.0898,7.0898,7.0898,7.0898,7.0898,7.0815,7.0669,7.0616,7.1325,7.2902,7.2979,7.3819,7.5386,7.5462,7.5501,7.5501,7.5501,7.5501,7.5501,7.5501,7.5501,7.5501,7.5501,7.5501,7.5501,7.5501,7.5501,7.5501,7.5501,7.5501,7.5501,7.0898,7.0898,7.0898,7.0898,7.0898,7.0898,7.0898,7.0898,7.0898,7.0898,7.0898,7.0898,7.0898,7.0898,7.0898,7.0898,7.0898,7.0898,7.0898,7.0898,7.0898,7.0898,7.0898,7.0898,7.0898,7.0898,7.0898,7.0898,7.0898,7.0898,7.0898,7.0898,7.0898,7.0898,7.0898,7.0898,7.0898,7.0898,7.0898,7.0898,7.0871,7.0871,7.0843,7.0815,7.0843,7.0871,7.0871,7.0871,7.0898,7.0898,7.0898,7.0898,7.0898,7.0898,7.0898,7.0898,7.0898,7.0898,7.0898,7.0898,7.0898,7.0898,7.0898,7.0898,7.0898,7.0898,7.0898,7.0898,7.0898,7.0898,7.0898,7.0898,7.0206,6.809,6.9283,6.9821,6.8013,6.9321,7.0552,7.086,7.0898,7.0898,7.0898,7.0898,7.0898,7.0898,7.0898,7.0898,7.0898,7.0898,7.1304,7.2293,7.1743,7.1925,7.2979,7.3476,7.4354,7.5501,7.5501,7.5501,7.5501,7.5501,7.5501,7.5501,7.5501,7.5501,7.5501,7.5501,7.5501,7.5501,7.5501,7.5501,7.5501,7.5501,7.5501,7.5501,7.0898,7.0898,7.0898,7.0898,7.0898,7.0898,7.0898,7.0898,7.0898,7.0898,7.0898,7.0898,7.0898,7.0898,7.0898,7.0898,7.0898,7.0898,7.0898,7.0898,7.0898,7.0898,7.0898,7.0898,7.0898,7.0898,7.0898,7.0898,7.0898,7.0898,7.0898,7.0898,7.0898,7.0898,7.0898,7.0898,7.0898,7.0898,7.0898,7.0898,7.0898,7.0898,7.0898,7.0898,7.0898,7.0898,7.0898,7.0898,7.0898,7.0898,7.0898,7.0898,7.0898,7.0898,7.0898,7.0898,7.0898,7.0898,7.0898,7.0898,7.0898,7.0898,7.0898,7.0898,7.0898,7.0898,7.0898,7.0898,7.0898,7.0898,7.0898,7.0898,7.0706,7.0167,7.0552,7.0706,7.0167,7.0552,7.0898,7.0898,7.0898,7.0898,7.0898,7.0898,7.0898,7.0898,7.0898,7.0898,7.0898,7.0898,7.1525,7.2861,7.2532,7.2709,7.3395,7.3934,7.4622,7.5501,7.5501,7.5501,7.5501,7.5501,7.5501,7.5501,7.5501,7.5501,7.5501,7.5501,7.5501,7.5501,7.5501,7.5501,7.5501,7.5501,7.5501,7.5501,7.0898,7.0898,7.0898,7.0898,7.0898,7.0898,7.0898,7.0898,7.0898,7.0898,7.0898,7.0898,7.0898,7.0898,7.0898,7.0898,7.0898,7.0898,7.0898,7.0898,7.0898,7.0898,7.0898,7.0898,7.0898,7.0898,7.0898,7.0898,7.0898,7.0898,7.0898,7.0898,7.0898,7.0898,7.0898,7.0898,7.0898,7.0898,7.0898,7.0898,7.0898,7.0898,7.0898,7.0898,7.0898,7.0898,7.0898,7.0898,7.0898,7.0898,7.0898,7.0898,7.0898,7.0898,7.0898,7.0898,7.0898,7.0898,7.0898,7.0898,7.0898,7.0898,7.0898,7.0898,7.0898,7.0898,7.0898,7.0898,7.0898,7.0898,7.0898,7.0898,7.0898,7.0898,7.0898,7.0898,7.0898,7.0898,7.0898,7.0898,7.0898,7.0898,7.0898,7.0898,7.0898,7.0898,7.0898,7.0898,7.0898,7.0898,7.1294,7.2092,7.2899,7.3653,7.4375,7.4274,7.4622,7.5501,7.5501,7.5501,7.5501,7.5501,7.5501,7.5501,7.5501,7.5501,7.5501,7.5501,7.5501,7.5501,7.5501,7.5501,7.5501,7.5501,7.5501,7.5501,7.0898,7.0898,7.0898,7.0898,7.0898,7.0898,7.0898,7.0898,7.0898,7.0898,7.0898,7.0898,7.0898,7.0898,7.0898,7.0898,7.0898,7.0898,7.0898,7.0898,7.0898,7.0898,7.0898,7.0898,7.0898,7.0898,7.0898,7.0898,7.0898,7.0898,7.0898,7.0898,7.0898,7.0898,7.0898,7.0898,7.0898,7.0898,7.0898,7.0898,7.0898,7.0898,7.0898,7.0898,7.0898,7.0898,7.0898,7.0898,7.0898,7.0898,7.0898,7.0898,7.0898,7.0898,7.0898,7.0898,7.0898,7.0898,7.0898,7.0898,7.0898,7.0898,7.0898,7.0898,7.0898,7.0898,7.0898,7.0898,7.0898,7.0898,7.0898,7.0898,7.0898,7.0898,7.0898,7.0898,7.0898,7.0898,7.0898,7.0898,7.0898,7.0898,7.0898,7.0898,7.0898,7.0898,7.0898,7.1168,7.1783,7.1245,7.1822,7.387,7.3505,7.3983,7.5449,7.5288,7.5302,7.5501,7.5501,7.5501,7.5501,7.5501,7.5501,7.5501,7.5501,7.5501,7.5501,7.5501,7.5501,7.5501,7.5501,7.5501,7.5501,7.5501,7.5501,7.5501,7.0898,7.0898,7.0898,7.0898,7.0898,7.0898,7.0898,7.0898,7.0898,7.0898,7.0898,7.0898,7.0898,7.0898,7.0898,7.0898,7.0898,7.0898,7.0898,7.0898,7.0898,7.0898,7.0898,7.0898,7.0898,7.0898,7.0898,7.0898,7.0898,7.0898,7.0898,7.0898,7.0898,7.0898,7.0898,7.0898,7.0898,7.0898,7.0898,7.0898,7.0898,7.0898,7.0898,7.0898,7.0898,7.0898,7.0898,7.0898,7.0898,7.0898,7.0898,7.0898,7.0898,7.0898,7.0898,7.0898,7.0898,7.0898,7.0898,7.0898,7.0898,7.0898,7.0898,7.0898,7.0898,7.0898,7.0898,7.0898,7.0898,7.0898,7.0898,7.0898,7.0898,7.0898,7.0898,7.0898,7.0898,7.0898,7.0898,7.0898,7.0898,7.0898,7.0898,7.0898,7.0898,7.0898,7.0898,7.1129,7.1668,7.1206,7.1937,7.4168,7.3649,7.4196,7.5895,7.5801,7.5633,7.5532,7.5535,7.5501,7.5501,7.5501,7.5501,7.5501,7.5501,7.5535,7.557,7.5535,7.5535,7.557,7.5535,7.5501,7.5501,7.5501,7.5535,7.5532,7.0898,7.0898,7.0898,7.0898,7.0898,7.0898,7.0898,7.0898,7.0898,7.0898,7.0898,7.0898,7.0898,7.0898,7.0898,7.0898,7.0898,7.0898,7.0898,7.0898,7.0898,7.0898,7.0898,7.0898,7.0898,7.0898,7.0898,7.0898,7.0898,7.0898,7.0898,7.0898,7.0898,7.0898,7.0898,7.0898,7.0898,7.0898,7.0898,7.0898,7.0898,7.0898,7.0898,7.0898,7.0898,7.0898,7.0898,7.0898,7.0898,7.0898,7.0898,7.0898,7.0898,7.0898,7.0898,7.0898,7.0898,7.0898,7.0898,7.0898,7.0898,7.0898,7.0898,7.0898,7.0898,7.0898,7.0898,7.0898,7.0898,7.0898,7.0898,7.0898,7.0898,7.0898,7.0898,7.0898,7.0898,7.0898,7.0898,7.0898,7.0898,7.0898,7.0898,7.0898,7.0898,7.0898,7.0898,7.0898,7.0898,7.0975,7.1783,7.3437,7.3591,7.437,7.5895,7.5895,7.5801,7.5599,7.5532,7.5535,7.5535,7.5501,7.5501,7.5535,7.5535,7.5532,7.5599,7.5532,7.5532,7.5599,7.5532,7.5535,7.5535,7.5535,7.5532,7.5599,7.0898,7.0898,7.0898,7.0898,7.0898,7.0898,7.0898,7.0898,7.0898,7.0898,7.0898,7.0898,7.0898,7.0898,7.0898,7.0898,7.0898,7.0898,7.0898,7.0898,7.0898,7.0898,7.0898,7.0898,7.0898,7.0898,7.0898,7.0898,7.0898,7.0898,7.0898,7.0898,7.0898,7.0898,7.0898,7.0898,7.0898,7.0898,7.0898,7.0898,7.0898,7.0898,7.0898,7.0898,7.0898,7.0898,7.0898,7.0898,7.0898,7.0898,7.0898,7.0898,7.0898,7.0898,7.0898,7.0898,7.0898,7.0898,7.0898,7.0898,7.0898,7.0898,7.0898,7.0898,7.0898,7.0898,7.0898,7.0898,7.0898,7.0898,7.0898,7.0898,7.0898,7.0898,7.0898,7.0898,7.0898,7.0898,7.0898,7.0898,7.0898,7.0898,7.0898,7.0898,7.0898,7.0898,7.0898,7.0898,7.0898,7.1552,7.2399,7.3476,7.413,7.4938,7.5985,7.5925,7.5833,7.566,7.5599,7.5566,7.5566,7.5497,7.5535,7.5566,7.5566,7.5633,7.566,7.566,7.566,7.566,7.566,7.5628,7.5628,7.5628,7.566,7.566,7.0898,7.0898,7.0898,7.0898,7.0898,7.0898,7.0898,7.0898,7.0898,7.0898,7.0898,7.0898,7.0898,7.0898,7.0898,7.0898,7.0898,7.0898,7.0898,7.0898,7.0898,7.0898,7.0898,7.0898,7.0898,7.0898,7.0898,7.0898,7.0898,7.0898,7.0898,7.0898,7.0898,7.0898,7.0898,7.0898,7.0898,7.0898,7.0898,7.0898,7.0898,7.0898,7.0898,7.0898,7.0898,7.0898,7.0898,7.0898,7.0898,7.0898,7.0898,7.0898,7.0898,7.0898,7.0898,7.0898,7.0898,7.0898,7.0898,7.0898,7.0898,7.0898,7.0898,7.0898,7.0898,7.0898,7.0898,7.0898,7.0898,7.0898,7.0898,7.0898,7.0898,7.0898,7.0898,7.0898,7.0898,7.0898,7.0898,7.0898,7.0898,7.0898,7.0898,7.0898,7.0898,7.0898,7.0898,7.1091,7.1514,7.1937,7.2783,7.4053,7.413,7.4553,7.5361,7.534,7.5272,7.5242,7.5501,7.5666,7.5666,7.5566,7.5566,7.5666,7.5599,7.5666,7.5794,7.5724,7.5763,7.5794,7.5724,7.5692,7.5692,7.5692,7.5763,7.5794,7.0898,7.0898,7.0898,7.0898,7.0898,7.0898,7.0898,7.0898,7.0898,7.0898,7.0898,7.0898,7.0898,7.0898,7.0898,7.0898,7.0898,7.0898,7.0898,7.0898,7.0898,7.0898,7.0898,7.0898,7.0898,7.0898,7.0898,7.0898,7.0898,7.0898,7.0898,7.0898,7.0898,7.0898,7.0898,7.0898,7.0898,7.0898,7.0898,7.0898,7.0898,7.0898,7.0898,7.0898,7.0898,7.0898,7.0898,7.0898,7.0898,7.0898,7.0898,7.0898,7.0898,7.0898,7.0898,7.0898,7.0898,7.0898,7.0898,7.0898,7.0898,7.0898,7.0898,7.0898,7.0898,7.0898,7.0898,7.0898,7.0898,7.0898,7.0898,7.0898,7.0898,7.0898,7.0898,7.0898,7.0898,7.0898,7.0898,7.0898,7.0898,7.0898,7.0898,7.0898,7.0898,7.0898,7.0898,7.1206,7.1937,7.2245,7.3053,7.4437,7.413,7.4168,7.4707,7.4861,7.4861,7.4707,7.5403,7.5763,7.5724,7.5666,7.5666,7.5724,7.5666,7.5731,7.5895,7.5794,7.5826,7.5895,7.5794,7.5724,7.5724,7.5724,7.5826,7.5925,7.0898,7.0898,7.0898,7.0898,7.0898,7.0898,7.0898,7.0898,7.0898,7.0898,7.0898,7.0898,7.0898,7.0898,7.0898,7.0898,7.0898,7.0898,7.0898,7.0898,7.0898,7.0898,7.0898,7.0898,7.0898,7.0898,7.0898,7.0898,7.0898,7.0898,7.0898,7.0898,7.0898,7.0898,7.0898,7.0898,7.0898,7.0898,7.0898,7.0898,7.0898,7.0898,7.0898,7.0898,7.0898,7.0898,7.0898,7.0898,7.0898,7.0898,7.0898,7.0898,7.0898,7.0898,7.0898,7.0898,7.0898,7.0898,7.0898,7.0898,7.0898,7.0898,7.0898,7.0898,7.0898,7.0898,7.0898,7.0898,7.0898,7.0898,7.0898,7.0898,7.0898,7.0898,7.0898,7.0898,7.0898,7.0898,7.0898,7.0898,7.0898,7.0898,7.0898,7.0898,7.0898,7.0898,7.0898,7.0937,7.1052,7.2514,7.3437,7.3668,7.4976,7.5361,7.4707,7.5438,7.5438,7.4707,7.5562,7.5955,7.5864,7.5763,7.5763,7.5864,7.5864,7.5925,7.5985,7.5985,7.5947,7.5985,7.5985,7.5947,7.5947,7.5947,7.5947,7.5985,7.0898,7.0898,7.0898,7.0898,7.0898,7.0898,7.0898,7.0898,7.0898,7.0898,7.0898,7.0898,7.0898,7.0898,7.0898,7.0898,7.0898,7.0898,7.0898,7.0898,7.0898,7.0898,7.0898,7.0898,7.0898,7.0898,7.0898,7.0898,7.0898,7.0898,7.0898,7.0898,7.0898,7.0898,7.0898,7.0898,7.0898,7.0898,7.0898,7.0898,7.0898,7.0898,7.0898,7.0898,7.0898,7.0898,7.0898,7.0898,7.0898,7.0898,7.0898,7.0898,7.0898,7.0898,7.0898,7.0898,7.0898,7.0898,7.0898,7.0898,7.0898,7.0898,7.0898,7.0898,7.0898,7.0898,7.0898,7.0898,7.0898,7.0898,7.0898,7.0898,7.0898,7.0898,7.0898,7.0898,7.0898,7.0898,7.0898,7.0898,7.0898,7.0898,7.0898,7.0898,7.0898,7.0898,7.0898,7.1091,7.1591,7.236,7.3206,7.413,7.4437,7.463,7.4707,7.5091,7.5091,7.4707,7.5592,7.5985,7.5955,7.5864,7.5856,7.5955,7.5895,7.5925,7.6015,7.6015,7.6015,7.6015,7.6015,7.6015,7.6015,7.6015,7.6015,7.6015]},{"header":{"parameterUnit":"m.s-1","parameterCategory":1,"la1":30.6,"la2":28.766,"lo1":-90.7593,"lo2":-88.6598,"dx":0.0162,"dy":0.0183,"nx":116,"ny":114,"refTime":"2022-12-13T06:00:00:Z","depth":0,"parameterNumber":3,"parameterNumberName":"V-component_of_WINDS"},"data":[0.0,0.0,0.0,0.0,0.0,0.0,0.0,0.0,0.0,0.0,0.0,0.0,0.0,0.0,0.0,0.0,0.0,0.0,0.0,0.0,0.0,0.0,0.0,0.0,0.0,0.0,0.0,0.0,0.0,0.0,0.0,0.0,0.0,0.0,0.0,0.0,0.0,0.0,0.0,0.0,0.0,0.0,0.0,0.0,0.0,0.0,0.0,0.0,0.0,0.0,0.0,0.0,0.0,0.0,0.0,0.0,0.0,0.0,0.0,0.0,0.0,0.0,0.0,0.0,0.0,0.0,0.0,0.0,0.0,0.0,0.0,0.0,0.0,0.0,0.0,0.0,0.0,0.0,0.0,0.0,0.0,0.0,0.0,0.0,0.0,0.0,0.0,0.0,0.0,0.0,0.0,0.0,0.0,0.0,0.0,0.0,0.0,0.0,0.0,0.0,0.0,0.0,0.0,0.0,0.0,0.0,0.0,0.0,0.0,0.0,0.0,0.0,0.0,0.0,0.0,0.0,0.0,0.0,0.0,0.0,0.0,0.0,0.0,0.0,0.0,0.0,0.0,0.0,0.0,0.0,0.0,0.0,0.0,0.0,0.0,0.0,0.0,0.0,0.0,0.0,0.0,0.0,0.0,0.0,0.0,0.0,0.0,0.0,0.0,0.0,0.0,0.0,0.0,0.0,0.0,0.0,0.0,0.0,0.0,0.0,0.0,0.0,0.0,0.0,0.0,0.0,0.0,0.0,0.0,0.0,0.0,0.0,0.0,0.0,0.0,0.0,0.0,0.0,0.0,0.0,0.0,0.0,0.0,0.0,0.0,0.0,0.0,0.0,0.0,0.0,0.0,0.0,0.0,0.0,0.0,0.0,0.0,0.0,0.0,0.0,0.0,0.0,0.0,0.0,0.0,0.0,0.0,0.0,0.0,0.0,0.0,0.0,0.0,0.0,0.0,0.0,0.0,0.0,0.0,0.0,0.0,0.0,0.0,0.0,0.0,0.0,0.0,0.0,0.0,0.0,0.0,0.0,0.0,0.0,0.0,0.0,0.0,0.0,0.0,0.0,0.0,0.0,0.0,0.0,0.0,0.0,0.0,0.0,0.0,0.0,0.0,0.0,0.0,0.0,0.0,0.0,0.0,0.0,0.0,0.0,0.0,0.0,0.0,0.0,0.0,0.0,0.0,0.0,0.0,0.0,0.0,0.0,0.0,0.0,0.0,0.0,0.0,0.0,0.0,0.0,0.0,0.0,0.0,0.0,0.0,0.0,0.0,0.0,0.0,0.0,0.0,0.0,0.0,0.0,0.0,0.0,0.0,0.0,0.0,0.0,0.0,0.0,0.0,0.0,0.0,0.0,0.0,0.0,0.0,0.0,0.0,0.0,0.0,0.0,0.0,0.0,0.0,0.0,0.0,0.0,0.0,0.0,0.0,0.0,0.0,0.0,0.0,0.0,0.0,0.0,0.0,0.0,0.0,0.0,0.0,0.0,0.0,0.0,0.0,0.0,0.0,0.0,0.0,0.0,0.0,0.0,0.0,0.0,0.0,0.0,0.0,0.0,0.0,0.0,0.0,0.0,0.0,0.0,0.0,0.0,0.0,0.0,0.0,0.0,0.0,0.0,0.0,0.0,0.0,0.0,0.0,0.0,0.0,0.0,0.0,0.0,0.0,0.0,0.0,0.0,0.0,0.0,0.0,0.0,0.0,0.0,0.0,0.0,0.0,0.0,0.0,0.0,0.0,0.0,0.0,0.0,0.0,0.0,0.0,0.0,0.0,0.0,0.0,0.0,0.0,0.0,0.0,0.0,0.0,0.0,0.0,0.0,0.0,0.0,0.0,0.0,0.0,0.0,0.0,0.0,0.0,0.0,0.0,0.0,0.0,0.0,0.0,0.0,0.0,0.0,0.0,0.0,0.0,0.0,0.0,0.0,0.0,0.0,0.0,0.0,0.0,0.0,0.0,0.0,0.0,0.0,0.0,0.0,0.0,0.0,0.0,0.0,0.0,0.0,0.0,0.0,0.0,0.0,0.0,0.0,0.0,0.0,0.0,0.0,0.0,0.0,0.0,0.0,0.0,0.0,0.0,0.0,0.0,0.0,0.0,0.0,0.0,0.0,0.0,0.0,0.0,0.0,0.0,0.0,0.0,0.0,0.0,0.0,0.0,0.0,0.0,0.0,0.0,0.0,0.0,0.0,0.0,0.0,0.0,0.0,0.0,0.0,0.0,0.0,0.0,0.0,0.0,0.0,0.0,0.0,0.0,0.0,0.0,0.0,0.0,0.0,0.0,0.0,0.0,0.0,0.0,0.0,0.0,0.0,0.0,0.0,0.0,0.0,0.0,0.0,0.0,0.0,0.0,0.0,0.0,0.0,0.0,0.0,0.0,0.0,0.0,0.0,0.0,0.0,0.0,0.0,0.0,0.0,0.0,0.0,0.0,0.0,0.0,0.0,0.0,0.0,0.0,0.0,0.0,0.0,0.0,0.0,0.0,0.0,0.0,0.0,0.0,0.0,0.0,0.0,0.0,0.0,0.0,0.0,0.0,0.0,0.0,0.0,0.0,0.0,0.0,0.0,0.0,0.0,0.0,0.0,0.0,0.0,0.0,0.0,0.0,0.0,0.0,0.0,0.0,0.0,0.0,0.0,0.0,0.0,0.0,0.0,0.0,0.0,0.0,0.0,0.0,0.0,0.0,0.0,0.0,0.0,0.0,0.0,0.0,0.0,0.0,0.0,0.0,0.0,0.0,0.0,0.0,0.0,0.0,0.0,0.0,0.0,0.0,0.0,0.0,0.0,0.0,0.0,0.0,0.0,0.0,0.0,0.0,0.0,0.0,0.0,0.0,0.0,0.0,0.0,0.0,0.0,0.0,0.0,0.0,0.0,0.0,0.0,0.0,0.0,0.0,0.0,0.0,0.0,0.0,0.0,0.0,0.0,0.0,0.0,0.0,0.0,0.0,0.0,0.0,0.0,0.0,0.0,0.0,0.0,0.0,0.0,0.0,0.0,0.0,0.0,0.0,0.0,0.0,0.0,0.0,0.0,0.0,0.0,0.0,0.0,0.0,0.0,0.0,0.0,0.0,0.0,0.0,0.0,0.0,0.0,0.0,0.0,0.0,0.0,0.0,0.0,0.0,0.0,0.0,0.0,0.0,0.0,0.0,0.0,0.0,0.0,0.0,0.0,0.0,0.0,0.0,0.0,0.0,0.0,0.0,0.0,0.0,0.0,0.0,0.0,0.0,0.0,0.0,0.0,0.0,0.0,0.0,0.0,0.0,0.0,0.0,0.0,0.0,0.0,0.0,0.0,0.0,0.0,0.0,0.0,0.0,0.0,0.0,0.0,0.0,0.0,0.0,0.0,0.0,0.0,0.0,0.0,0.0,0.0,0.0,0.0,0.0,0.0,0.0,0.0,0.0,0.0,0.0,0.0,0.0,0.0,0.0,0.0,0.0,0.0,0.0,0.0,0.0,0.0,0.0,0.0,0.0,0.0,0.0,0.0,0.0,0.0,0.0,0.0,0.0,0.0,0.0,0.0,0.0,0.0,0.0,0.0,0.0,0.0,0.0,0.0,0.0,0.0,0.0,0.0,0.0,0.0,0.0,0.0,0.0,0.0,0.0,0.0,0.0,0.0,0.0,0.0,0.0,0.0,0.0,0.0,0.0,0.0,0.0,0.0,0.0,0.0,0.0,0.0,0.0,0.0,0.0,0.0,0.0,0.0,0.0,0.0,0.0,0.0,0.0,0.0,0.0,0.0,0.0,0.0,0.0,0.0,0.0,0.0,0.0,0.0,0.0,0.0,0.0,0.0,0.0,0.0,0.0,0.0,0.0,0.0,0.0,0.0,0.0,0.0,0.0,0.0,0.0,0.0,0.0,0.0,0.0,0.0,0.0,0.0,0.0,0.0,0.0,0.0,0.0,0.0,0.0,0.0,0.0,0.0,0.0,0.0,0.0,0.0,0.0,0.0,0.0,0.0,0.0,0.0,0.0,0.0,0.0,0.0,0.0,0.0,0.0,0.0,0.0,0.0,0.0,0.0,0.0,0.0,0.0,0.0,0.0,0.0,0.0,0.0,0.0,0.0,0.0,0.0,0.0,0.0,0.0,0.0,0.0,0.0,0.0,0.0,0.0,0.0,0.0,0.0,0.0,0.0,0.0,0.0,0.0,0.0,0.0,0.0,0.0,0.0,0.0,0.0,0.0,0.0,0.0,0.0,0.0,0.0,0.0,0.0,0.0,0.0,0.0,0.0,0.0,0.0,0.0,0.0,0.0,0.0,0.0,0.0,0.0,0.0,0.0,0.0,0.0,0.0,0.0,0.0,0.0,0.0,0.0,0.0,0.0,0.0,0.0,0.0,0.0,0.0,0.0,0.0,0.0,0.0,0.0,0.0,0.0,0.0,0.0,0.0,0.0,0.0,0.0,0.0,0.0,0.0,0.0,0.0,0.0,0.0,0.0,0.0,0.0,0.0,0.0,0.0,0.0,0.0,0.0,0.0,0.0,0.0,0.0,0.0,0.0,0.0,0.0,0.0,0.0,0.0,0.0,0.0,0.0,0.0,0.0,0.0,0.0,0.0,0.0,0.0,0.0,0.0,0.0,0.0,0.0,0.0,0.0,0.0,0.0,0.0,0.0,0.0,0.0,0.0,0.0,0.0,0.0,0.0,0.0,0.0,0.0,0.0,0.0,0.0,0.0,0.0,0.0,0.0,0.0,0.0,0.0,0.0,0.0,0.0,0.0,0.0,0.0,0.0,0.0,0.0,0.0,0.0,0.0,0.0,0.0,0.0,0.0,0.0,0.0,0.0,0.0,0.0,0.0,0.0,0.0,0.0,0.0,0.0,0.0,0.0,0.0,0.0,0.0,0.0,0.0,0.0,0.0,0.0,0.0,0.0,0.0,0.0,0.0,0.0,0.0,0.0,0.0,0.0,0.0,0.0,0.0,0.0,0.0,0.0,0.0,0.0,0.0,0.0,0.0,0.0,0.0,0.0,0.0,0.0,0.0,0.0,0.0,0.0,0.0,0.0,0.0,0.0,0.0,0.0,0.0,0.0,0.0,0.0,0.0,0.0,0.0,0.0,0.0,0.0,0.0,0.0,0.0,0.0,0.0,0.0,0.0,0.0,0.0,0.0,0.0,0.0,0.0,0.0,0.0,0.0,0.0,0.0,0.0,0.0,0.0,0.0,0.0,0.0,0.0,0.0,0.0,0.0,0.0,0.0,0.0,0.0,0.0,0.0,0.0,0.0,0.0,0.0,0.0,0.0,0.0,0.0,0.0,0.0,0.0,0.0,0.0,0.0,0.0,0.0,0.0,0.0,0.0,0.0,0.0,0.0,0.0,0.0,0.0,0.0,0.0,0.0,0.0,0.0,0.0,0.0,0.0,0.0,0.0,0.0,0.0,0.0,0.0,0.0,0.0,0.0,0.0,0.0,0.0,0.0,0.0,0.0,0.0,0.0,0.0,0.0,0.0,0.0,0.0,0.0,0.0,0.0,0.0,0.0,0.0,0.0,0.0,0.0,0.0,0.0,0.0,0.0,0.0,0.0,0.0,0.0,0.0,0.0,0.0,0.0,0.0,0.0,0.0,0.0,0.0,0.0,0.0,0.0,0.0,0.0,0.0,0.0,0.0,0.0,0.0,0.0,0.0,0.0,0.0,0.0,0.0,0.0,0.0,0.0,0.0,0.0,0.0,0.0,0.0,0.0,0.0,0.0,0.0,0.0,0.0,0.0,0.0,0.0,0.0,0.0,0.0,0.0,0.0,0.0,0.0,0.0,0.0,0.0,0.0,0.0,0.0,0.0,0.0,0.0,0.0,0.0,0.0,0.0,0.0,0.0,0.0,0.0,0.0,0.0,0.0,0.0,0.0,0.0,0.0,0.0,0.0,0.0,0.0,0.0,0.0,0.0,0.0,0.0,0.0,0.0,0.0,0.0,0.0,0.0,0.0,0.0,0.0,0.0,0.0,0.0,0.0,0.0,0.0,0.0,0.0,0.0,0.0,0.0,0.0,0.0,0.0,0.0,0.0,0.0,0.0,0.0,0.0,0.0,0.0,0.0,0.0,0.0,0.0,0.0,0.0,0.0,0.0,0.0,-1.156,-1.0366,0.0,0.0,0.0,0.0,0.0,0.0,0.0,0.0,0.0,0.0,0.0,0.0,0.0,0.0,0.0,0.0,0.0,0.0,0.0,0.0,0.0,0.0,0.0,-0.9893,-0.9893,-0.9893,-0.9893,0.0,0.0,0.0,0.0,0.0,0.0,0.0,0.0,0.0,-0.9167,-1.0522,-0.9465,-0.9485,-1.0486,-0.9858,-0.9791,-1.0137,0.0,0.0,0.0,0.0,0.0,0.0,0.0,0.0,0.0,0.0,0.0,0.0,0.0,0.0,0.0,0.0,0.0,0.0,0.0,0.0,0.0,0.0,0.0,0.0,0.0,0.0,0.0,0.0,0.0,0.0,0.0,0.0,0.0,0.0,0.0,0.0,0.0,0.0,0.0,0.0,0.0,0.0,0.0,0.0,0.0,0.0,0.0,0.0,0.0,0.0,0.0,0.0,0.0,0.0,0.0,0.0,0.0,0.0,0.0,0.0,0.0,0.0,0.0,0.0,0.0,0.0,0.0,0.0,0.0,0.0,-1.1422,-1.1097,0.0,0.0,0.0,0.0,0.0,0.0,0.0,0.0,0.0,0.0,0.0,0.0,0.0,0.0,0.0,0.0,0.0,0.0,0.0,0.0,0.0,-0.9968,-1.0169,-1.0194,-1.032,-1.0596,-1.0445,-1.0345,-1.0345,-1.0144,0.0,0.0,0.0,0.0,-0.9893,-0.9433,-1.033,-1.2596,-1.0791,-1.0559,-1.1831,-1.2365,-1.2605,-1.2584,-1.1677,0.0,0.0,0.0,0.0,0.0,0.0,0.0,0.0,0.0,0.0,0.0,0.0,0.0,0.0,0.0,0.0,0.0,0.0,0.0,0.0,0.0,0.0,0.0,0.0,0.0,0.0,0.0,0.0,0.0,0.0,0.0,0.0,0.0,0.0,0.0,0.0,0.0,0.0,0.0,0.0,0.0,0.0,0.0,0.0,0.0,0.0,0.0,0.0,0.0,0.0,0.0,0.0,0.0,0.0,0.0,0.0,0.0,0.0,0.0,0.0,0.0,0.0,0.0,-1.5253,-1.4566,-1.3561,-1.3009,-1.2328,-1.1613,-1.1313,-1.19,-1.2915,-1.1618,0.0,0.0,0.0,0.0,0.0,0.0,0.0,0.0,0.0,0.0,0.0,0.0,0.0,0.0,0.0,0.0,0.0,0.0,0.0,-1.027,-1.1249,-1.1374,-1.1983,-1.3418,-1.263,-1.2077,-1.2077,-1.1119,0.0,0.0,0.0,-0.9893,-0.9893,-1.072,-1.1238,-1.1487,-1.2997,-1.4087,-1.4782,-1.5498,-1.5827,-1.5668,-1.292,-1.1534,-1.1234,0.0,0.0,0.0,0.0,0.0,0.0,0.0,0.0,0.0,0.0,0.0,0.0,0.0,0.0,0.0,0.0,0.0,0.0,0.0,0.0,0.0,0.0,0.0,0.0,0.0,0.0,0.0,0.0,0.0,0.0,0.0,0.0,0.0,0.0,0.0,0.0,0.0,0.0,0.0,0.0,0.0,-1.5195,-1.5185,0.0,0.0,0.0,0.0,0.0,0.0,0.0,0.0,0.0,0.0,0.0,0.0,0.0,-1.5057,-1.6111,-1.6484,-1.6914,-1.7448,-1.6252,-1.5623,-1.5385,-1.3832,-1.2959,-1.2585,-1.238,0.0,-1.2588,-1.2113,0.0,0.0,0.0,0.0,0.0,0.0,0.0,0.0,0.0,0.0,0.0,0.0,0.0,0.0,0.0,0.0,0.0,0.0,0.0,0.0,0.0,-1.3252,-1.4156,-1.5211,-1.4716,-1.3912,-1.2734,-1.221,0.0,0.0,-0.9893,-1.0194,-1.0847,-1.1501,-1.2438,-1.3615,-1.582,-1.6573,-1.5944,-1.6244,-1.6365,-1.6305,-1.5002,-1.4151,-1.3687,-1.2707,0.0,0.0,0.0,0.0,0.0,0.0,0.0,0.0,0.0,0.0,0.0,0.0,0.0,0.0,0.0,0.0,0.0,0.0,0.0,0.0,0.0,0.0,0.0,0.0,0.0,0.0,0.0,0.0,0.0,0.0,0.0,0.0,0.0,0.0,0.0,0.0,0.0,0.0,0.0,-1.3687,-1.4546,-1.5027,-1.4317,-1.3598,0.0,0.0,0.0,0.0,0.0,0.0,0.0,0.0,0.0,-1.6646,-1.7102,-1.798,-1.9396,-1.8752,-1.8516,-1.8532,-1.7236,-1.6021,-1.5142,-1.4279,-1.3295,-1.2557,-1.2474,-1.2504,-1.2525,-1.2338,-1.2163,-1.1986,0.0,0.0,0.0,0.0,-1.1716,-1.185,0.0,0.0,0.0,0.0,0.0,0.0,0.0,0.0,0.0,0.0,0.0,0.0,-1.4061,-1.5109,-1.6101,-1.6915,-1.6615,-1.5653,-1.4055,-1.3426,-1.2306,-1.0591,-1.0388,-1.0762,-1.1726,-1.2798,-1.4347,-1.6482,-1.7934,-1.8051,-1.6847,-1.6743,-1.6608,-1.6608,-1.6608,-1.6314,-1.5679,-1.4577,-1.3423,-1.2214,0.0,0.0,0.0,0.0,0.0,0.0,0.0,0.0,0.0,0.0,0.0,0.0,0.0,0.0,0.0,0.0,0.0,0.0,0.0,0.0,0.0,0.0,0.0,0.0,0.0,0.0,0.0,0.0,0.0,0.0,0.0,0.0,0.0,0.0,0.0,0.0,0.0,-1.4065,-1.4677,-1.5248,-1.497,-1.4315,0.0,0.0,0.0,0.0,0.0,0.0,-1.5979,-1.6574,-1.7601,-1.9266,-1.9751,-2.0615,-2.1795,-2.0524,-1.9685,-1.9305,-1.7653,-1.6066,-1.4809,-1.4187,-1.3343,-1.2507,-1.2507,-1.2605,-1.2824,-1.2586,-1.2452,-1.2228,-1.2402,-1.2233,-1.2138,-1.2556,-1.2608,-1.2535,0.0,0.0,0.0,0.0,0.0,0.0,0.0,0.0,0.0,0.0,0.0,-1.3866,-1.6527,-1.6751,-1.7364,-1.8996,-1.8216,-1.7396,-1.6841,-1.4834,-1.3182,-1.2141,-1.1736,-1.1719,-1.2141,-1.5124,-1.7555,-1.9303,-1.8615,-1.8313,-1.815,-1.7582,-1.7282,-1.7282,-1.7282,-1.674,-1.586,-1.5101,-1.4315,-1.3368,-1.1737,0.0,0.0,0.0,0.0,0.0,0.0,0.0,0.0,0.0,0.0,0.0,0.0,0.0,0.0,0.0,0.0,0.0,0.0,0.0,0.0,0.0,0.0,0.0,0.0,0.0,0.0,0.0,0.0,0.0,0.0,0.0,0.0,0.0,0.0,0.0,0.0,0.0,0.0,-1.636,-1.734,0.0,0.0,0.0,0.0,-1.6016,-1.5891,-1.6409,-1.775,-1.8886,-1.9821,-2.0681,-2.164,-2.2096,-2.2184,-2.1107,-2.0354,-1.997,-1.7329,-1.5774,-1.5255,-1.3578,-1.2897,-1.3051,-1.3051,-1.3157,-1.3287,-1.2849,-1.2914,-1.3333,-1.3091,-1.3648,-1.4449,-1.4045,-1.4192,-1.4669,0.0,0.0,0.0,-1.0173,-1.0173,-1.0148,-1.0046,-1.0046,-1.0377,-1.1228,-1.2975,-1.4716,-1.6385,-1.7913,-1.9219,-2.018,-2.0051,-1.9297,-1.7882,-1.61,-1.4993,-1.4771,-1.2994,-1.3283,-1.5987,-1.8328,-1.9506,-1.9586,-1.9312,-1.8652,-1.7612,-1.736,-1.7326,-1.7326,-1.7326,-1.7135,-1.6813,-1.6579,-1.5804,-1.4712,-1.374,-1.25,0.0,0.0,0.0,0.0,0.0,0.0,0.0,0.0,0.0,0.0,0.0,0.0,0.0,0.0,0.0,0.0,0.0,0.0,0.0,0.0,0.0,0.0,0.0,0.0,0.0,0.0,0.0,0.0,0.0,0.0,0.0,0.0,0.0,0.0,0.0,0.0,0.0,-1.7018,-1.7761,0.0,-1.7041,-1.7319,-1.7887,-1.8483,-1.86,-1.927,-2.0571,-2.0873,-2.1162,-2.1655,-2.1996,-2.2143,-2.209,-2.0909,-2.0143,-1.9918,-1.7246,-1.5835,-1.5443,-1.3848,-1.3214,-1.3271,-1.3271,-1.3311,-1.336,-1.3165,-1.3228,-1.343,-1.324,-1.3474,-1.3825,-1.3655,-1.3604,-1.3657,0.0,0.0,0.0,-1.0199,-1.0173,-1.0148,-1.0046,-1.0199,-1.0752,-1.1947,-1.3886,-1.5798,-1.7375,-1.8978,-2.009,-2.0411,-2.0715,-2.031,-1.8912,-1.7707,-1.6879,-1.6518,-1.488,-1.5682,-1.9349,-2.0716,-2.125,-2.0765,-2.0501,-1.9642,-1.8241,-1.7963,-1.7606,-1.7326,-1.7326,-1.7326,-1.7326,-1.7326,-1.6752,-1.5922,-1.5131,-1.3963,-1.2382,0.0,0.0,0.0,0.0,0.0,0.0,0.0,0.0,0.0,0.0,0.0,0.0,0.0,0.0,0.0,0.0,0.0,0.0,0.0,0.0,0.0,0.0,0.0,0.0,0.0,0.0,0.0,0.0,0.0,0.0,0.0,0.0,0.0,0.0,-1.6728,-1.7674,-1.753,-1.8628,-1.9041,-1.8065,-1.9017,-1.9742,-2.0288,-2.0458,-2.1,-2.2083,-2.1918,-2.1968,-2.2341,-2.2567,-2.2382,-2.2073,-2.0628,-1.9664,-1.8898,-1.6746,-1.5536,-1.5264,-1.4182,-1.3813,-1.3871,-1.3871,-1.3913,-1.3972,-1.3972,-1.3972,-1.3955,-1.3554,-1.3505,-1.3779,-1.3779,-1.3738,-1.3832,0.0,0.0,-1.0122,-1.0173,-1.0148,-1.0097,-1.0097,-1.0504,-1.1746,-1.4387,-1.5495,-1.7026,-1.9661,-1.9843,-1.9817,-1.9837,-2.0162,-2.0317,-2.014,-1.951,-1.8577,-1.7164,-1.747,-1.8996,-2.1735,-2.225,-2.2725,-2.3057,-2.2157,-2.1141,-2.015,-1.9239,-1.8241,-1.7326,-1.7326,-1.7326,-1.7326,-1.7326,-1.7153,-1.6879,-1.5908,-1.5072,-1.4267,0.0,0.0,0.0,0.0,0.0,0.0,0.0,0.0,0.0,0.0,0.0,0.0,0.0,0.0,0.0,0.0,0.0,0.0,0.0,0.0,0.0,0.0,0.0,0.0,0.0,0.0,0.0,0.0,0.0,0.0,0.0,0.0,0.0,-1.6506,-1.8116,-1.8979,-1.8057,-2.0111,-2.1088,-1.9571,-2.0544,-2.1274,-2.1289,-2.1188,-2.1488,-2.2104,-2.2029,-2.2332,-2.2883,-2.3159,-2.2883,-2.1819,-2.0497,-1.891,-1.7183,-1.57,-1.4882,-1.4609,-1.4472,-1.4578,-1.4762,-1.4762,-1.4877,-1.491,-1.491,-1.491,-1.4867,-1.38,-1.3933,-1.4472,-1.4472,-1.4871,-1.5199,-1.0199,-1.0173,-1.0173,-1.0199,-1.0173,-1.0148,-1.0046,-1.0531,-1.1565,-1.3273,-1.5077,-1.6746,-1.8105,-1.9339,-1.998,-1.9796,-2.0162,-2.0589,-2.1098,-1.9492,-1.828,-1.7767,-2.0547,-2.2012,-2.203,-2.2765,-2.2804,-2.205,-2.1784,-2.0872,-1.9147,-1.8888,-1.8241,-1.7326,-1.7326,-1.7326,-1.7326,-1.7326,-1.7232,-1.7217,-1.6776,-1.6125,-1.5423,0.0,0.0,0.0,0.0,0.0,0.0,0.0,0.0,0.0,0.0,0.0,0.0,0.0,0.0,0.0,0.0,0.0,0.0,0.0,0.0,0.0,0.0,0.0,0.0,0.0,0.0,0.0,0.0,0.0,0.0,0.0,-1.7779,-1.8847,-1.8225,-1.9007,-1.9918,-2.0571,-2.1284,-2.1605,-2.1403,-2.1647,-2.2072,-2.2563,-2.1936,-2.2006,-2.3006,-2.1862,-2.1397,-2.1819,-2.0895,-2.0197,-1.9852,-1.9457,-1.9141,-1.8772,-1.7096,-1.612,-1.612,-1.4727,-1.4065,-1.4115,-1.4115,-1.414,-1.4189,-1.4189,-1.4189,-1.4181,-1.4506,-1.4745,-1.4885,-1.4885,-1.4692,-1.4597,-1.0173,-1.0173,-1.0173,-1.0224,-1.0199,-1.0122,-1.0046,-1.0762,-1.187,-1.3455,-1.5154,-1.6773,-1.8105,-1.9084,-1.9634,-1.9526,-2.0338,-2.0952,-2.1019,-2.0008,-1.9812,-2.0577,-2.2275,-2.3143,-2.2972,-2.3694,-2.3683,-2.2847,-2.2948,-2.219,-2.0703,-2.0162,-1.9319,-1.8388,-1.7927,-1.7735,-1.7721,-1.7589,-1.753,-1.7516,-1.7211,-1.6747,-1.6096,-1.5763,-1.513,-1.4374,-1.3744,-1.3241,-1.2711,-1.2544,0.0,0.0,0.0,0.0,0.0,0.0,0.0,0.0,0.0,0.0,0.0,0.0,0.0,0.0,0.0,0.0,0.0,0.0,0.0,0.0,0.0,0.0,0.0,0.0,-1.9313,-2.0434,-2.0043,-2.0616,-2.1246,-2.1804,-2.2025,-2.2143,-2.227,-2.2454,-2.2681,-2.2992,-2.2722,-2.2835,-2.3722,-2.1977,-2.1224,-2.1776,-2.0306,-1.9301,-1.8761,-1.8761,-1.856,-1.8142,-1.7007,-1.6442,-1.6442,-1.5319,-1.4901,-1.4901,-1.4901,-1.4901,-1.4901,-1.4901,-1.4901,-1.4901,0.0,0.0,0.0,0.0,-1.5256,-1.5131,-1.0122,-1.0122,-1.0148,-1.0274,-1.0173,-1.0122,-1.0122,-1.1122,-1.2528,-1.4339,-1.5635,-1.7104,-1.8989,-1.9239,-1.9218,-1.9214,-2.0672,-2.1284,-2.0677,-2.1115,-2.2201,-2.3967,-2.3229,-2.3166,-2.4247,-2.4676,-2.4812,-2.4496,-2.4695,-2.4322,-2.3374,-2.2132,-2.0987,-1.9828,-1.8882,-1.839,-1.8277,-1.7999,-1.7867,-1.7838,-1.756,-1.7051,-1.6613,-1.6504,-1.6213,-1.5734,-1.5257,-1.4784,-1.4337,-1.4095,0.0,0.0,0.0,0.0,0.0,0.0,0.0,0.0,0.0,0.0,0.0,0.0,0.0,0.0,0.0,0.0,0.0,0.0,0.0,0.0,0.0,0.0,0.0,0.0,-2.041,-2.1831,-2.1853,-2.2262,-2.2559,-2.219,-2.2462,-2.2651,-2.268,-2.2993,-2.3135,-2.3056,-2.3346,-2.3751,-2.4066,-2.2445,0.0,0.0,0.0,-1.939,-1.8131,-1.8131,-1.7439,-1.6178,-1.6178,-1.6178,-1.6178,-1.6037,-1.6037,-1.6037,-1.6037,-1.6037,-1.6037,-1.6037,-1.6037,-1.6037,-1.5044,-1.4901,-1.5186,-1.5904,-1.6178,-1.6178,-1.0122,-1.0122,-1.0173,-1.0199,-1.0199,-1.0173,-1.0173,-1.1481,-1.3092,-1.4922,-1.6627,-1.8202,-1.9515,-1.9807,-1.9876,-1.9671,-2.0866,-2.1929,-2.2594,-2.3239,-2.3503,-2.3211,-2.3845,-2.419,-2.4452,-2.4751,-2.4885,-2.4774,-2.4762,-2.4229,-2.3074,-2.2793,-2.1657,-1.9925,-1.9634,-1.9063,-1.8291,-1.8233,-1.8203,-1.8203,-1.8145,-1.7765,-1.7145,-1.7165,-1.6936,-1.6693,-1.6656,-1.6387,-1.6176,-1.6558,-1.6245,-1.5775,-1.6038,-1.55,0.0,0.0,0.0,0.0,0.0,0.0,0.0,0.0,0.0,0.0,0.0,0.0,0.0,0.0,0.0,0.0,0.0,0.0,0.0,-2.0507,-2.192,-2.2733,-2.242,-2.2726,-2.2893,-2.252,-2.2806,-2.3021,-2.295,-2.3321,-2.3593,-2.3776,-2.3672,-2.3813,-2.4395,-2.2889,-2.1795,-2.102,-1.9507,-1.7991,-1.6603,-1.6603,-1.6461,-1.6178,-1.5895,0.0,-1.5744,-1.5328,-1.5195,-1.5195,-1.5195,-1.5195,-1.5195,-1.5195,-1.547,-1.5753,-1.5895,-1.5895,-1.6037,-1.6178,-1.6037,-1.5744,-1.0122,-1.0148,-1.0199,-1.0199,-1.0199,-1.0199,-1.0199,-1.1327,-1.2985,-1.5152,-1.6689,-1.824,-1.9876,-1.9935,-1.9625,-1.925,-1.994,-2.133,-2.3341,-2.3435,-2.3559,-2.3719,-2.4262,-2.4481,-2.4533,-2.505,-2.5399,-2.5331,-2.5704,-2.5456,-2.4755,-2.3492,-2.231,-2.1131,-2.0069,-1.928,-1.8774,-1.8613,-1.854,-1.854,-1.8364,-1.8101,-1.7808,-1.7808,-1.7727,-1.763,-1.763,-1.7437,-1.7272,-1.7526,-1.7369,-1.7113,-1.7208,-1.6757,-1.5966,0.0,0.0,0.0,0.0,0.0,0.0,0.0,0.0,0.0,0.0,0.0,0.0,0.0,0.0,-1.744,-1.8551,0.0,-2.087,-2.1553,-2.2602,-2.317,-2.2885,-2.3126,-2.317,-2.2634,-2.3019,-2.3406,-2.3293,-2.3738,-2.4188,-2.4238,-2.4266,-2.4473,-2.4766,-2.2696,-2.1158,-2.0593,-1.8401,-1.7017,-1.6178,-1.6178,-1.6178,-1.6178,-1.6037,-1.5895,-1.5895,-1.5753,-1.5612,-1.5612,-1.5612,-1.5612,-1.5612,-1.5612,-1.5818,-1.6044,-1.633,-1.6273,-1.6178,-1.6178,-1.6037,-1.5895,-1.0122,-1.0173,-1.0199,-1.0173,-1.0199,-1.0199,-1.0199,-1.1124,-1.2672,-1.5162,-1.6335,-1.7659,-1.9481,-1.9216,-1.8828,-1.8656,-1.8983,-2.0497,-2.35,-2.3176,-2.3329,-2.4343,-2.4488,-2.4506,-2.4674,-2.5461,-2.5916,-2.5929,-2.6587,-2.6805,-2.6496,-2.4492,-2.3384,-2.2785,-2.0893,-1.9879,-1.9554,-1.9096,-1.8877,-1.8862,-1.8599,-1.8496,-1.8496,-1.8496,-1.8408,-1.8306,-1.8306,-1.8163,-1.7937,-1.8067,-1.7868,-1.774,-1.7853,-1.7611,-1.7022,-1.5877,-1.5314,0.0,0.0,0.0,0.0,0.0,0.0,0.0,0.0,-1.6607,-1.6961,-1.8009,-1.8537,-1.9049,-2.0131,-2.0975,-2.1831,-2.24,-2.3228,-2.3603,-2.334,-2.353,-2.3461,-2.2947,-2.3403,-2.3679,-2.3738,-2.4334,-2.464,-2.4617,-2.4916,-2.5052,-2.5052,-2.2819,-2.1158,-2.0593,-1.8261,-1.6875,-1.6603,-1.632,-1.632,-1.6603,-1.632,-1.6178,-1.6188,-1.6226,-1.6245,-1.6245,-1.6282,-1.6301,-1.6311,-1.6349,-1.6434,-1.6547,-1.6585,-1.6481,-1.6301,-1.6301,-1.6301,-1.6301,-1.0199,-1.0224,-1.0249,-1.0122,-1.0224,-1.0274,-1.0274,-1.1208,-1.262,-1.4718,-1.554,-1.6338,-1.7285,-1.6961,-1.7243,-1.8655,-1.8799,-2.0074,-2.3047,-2.3573,-2.3826,-2.395,-2.4322,-2.4736,-2.515,-2.5627,-2.5991,-2.6145,-2.6656,-2.6805,-2.6496,-2.6207,-2.5489,-2.4196,-2.2985,-2.1895,-2.0688,-1.9642,-1.9228,-1.9213,-1.9184,-1.9169,-1.9169,-1.9169,-1.8803,-1.8306,-1.8306,-1.8116,-1.7858,-1.854,-1.8354,-1.801,-1.8891,-1.8716,-1.8096,-1.7669,-1.6521,-1.5335,-1.516,-1.5187,-1.5474,-1.6077,-1.64,-1.7244,0.0,-1.992,-1.9668,-2.1236,-2.1817,-2.2096,-2.2258,-2.2904,-2.3457,-2.3852,-2.3984,-2.4013,-2.3984,-2.4013,-2.4013,-2.3984,-2.4013,-2.4159,-2.4481,-2.4803,-2.5022,-2.5052,-2.5052,-2.5052,-2.5052,-2.4781,-2.3379,-2.0731,-2.0328,-1.9507,-1.8131,-1.6875,-1.6875,-1.8131,-1.6875,-1.6178,-1.6188,-1.6367,-1.6453,-1.6462,-1.6651,-1.6736,-1.6745,-1.6925,-1.6906,-1.6783,-1.6963,-1.6916,-1.6736,-1.6736,-1.6736,-1.6736,-1.0199,-1.0249,-1.0274,-1.0173,-1.0249,-1.0299,-1.0299,-1.095,-1.207,-1.3863,-1.456,-1.5282,-1.6275,-1.5627,-1.5763,-1.738,-1.787,-1.9293,-2.2026,-2.3045,-2.3598,-2.3867,-2.4302,-2.4633,-2.4819,-2.5275,-2.5516,-2.5612,-2.6331,-2.6587,-2.6324,-2.5952,-2.5373,-2.4393,-2.2685,-2.1591,-2.079,-1.9776,-1.9272,-1.9272,-1.9272,-1.9272,-1.9272,-1.9272,-1.9111,-1.8847,-1.8657,-1.8379,0.0,-1.8628,-1.8469,-1.8224,-1.9067,-1.8818,-1.8224,-1.7955,-1.7208,-1.665,-1.7213,-1.7156,-1.7184,-1.8366,-1.8828,-1.9495,-2.0868,-2.0892,-2.0956,-2.2383,-2.2638,-2.2723,-2.3049,-2.3623,-2.3984,-2.4057,-2.4232,-2.4364,-2.4364,-2.4364,-2.4364,-2.4364,-2.4364,-2.4423,-2.4554,-2.4862,-2.5052,-2.5052,-2.5052,-2.5052,-2.5052,-2.421,-2.3243,-2.1984,-2.102,-1.9982,-1.8605,-1.7907,-1.7551,-1.7394,-1.6952,-1.6717,-1.6727,-1.6934,-1.7029,-1.7038,-1.7123,-1.7161,-1.7171,-1.7256,-1.7312,-1.735,-1.7435,-1.7492,-1.7473,-1.6982,-1.6802,-1.6802,-1.0224,-1.0274,-1.0274,-1.0224,-1.0274,-1.0299,-1.0299,-1.0638,-1.1389,-1.2878,-1.3437,-1.3967,-1.4724,-1.383,-1.3887,-1.583,-1.6764,-1.8351,-2.0963,-2.2456,-2.3447,-2.366,-2.424,-2.455,-2.455,-2.4985,-2.5233,-2.5233,-2.5999,-2.63,-2.6136,-2.5769,-2.5392,-2.4927,-2.3132,-2.1979,-2.1387,-2.0189,-1.9583,-1.9272,-1.9272,-1.9272,-1.9272,-1.9272,-1.9111,-1.8862,-1.9004,-1.8835,-1.8566,-1.8626,-1.8379,-1.8178,-1.8552,-1.8375,-1.8171,-1.8207,-1.8013,-1.7867,-1.8181,-1.8292,-1.8708,-2.0005,-2.0639,-2.1095,-2.1661,-2.1661,-2.1906,-2.3049,-2.3093,-2.3192,-2.3636,-2.3956,-2.432,-2.439,-2.4567,-2.4701,-2.4701,-2.4701,-2.4701,-2.4701,-2.4701,-2.4701,-2.4701,-2.492,-2.5052,-2.5052,-2.5052,-2.5052,-2.5052,-2.4074,-2.3311,-2.306,-2.2077,-2.1132,-2.0336,-1.947,-1.8842,-1.8285,-1.7563,-1.719,-1.7199,-1.7407,-1.7539,-1.7596,-1.7596,-1.7596,-1.7605,-1.7662,-1.7738,-1.7813,-1.7813,-1.787,-1.7879,-1.7218,-1.7048,-1.7152,-1.0299,-1.0299,-1.0299,-1.0299,-1.0299,-1.0299,-1.0299,-1.0325,-1.0743,-1.1916,-1.2072,-1.2069,-1.2006,-1.0972,-1.1353,-1.4111,-1.5587,-1.7459,-2.0061,-2.227,-2.3417,-2.3265,-2.4074,-2.455,-2.455,-2.4985,-2.5233,-2.5233,-2.5668,-2.5896,-2.5916,-2.6372,-2.6413,-2.606,-2.5199,-2.4097,-2.2785,-2.1387,-2.0277,-1.9272,-1.9272,-1.9272,-1.9272,-1.9272,-1.8686,-1.7993,-1.9167,-1.9349,-1.8957,-1.8391,-1.7975,-1.7613,-1.7098,-1.7356,-1.7902,-1.8942,-1.9209,-1.8895,-1.7368,-1.8225,-1.979,-2.0473,-2.118,-2.188,-2.2822,-2.278,-2.275,-2.3479,-2.3811,-2.4043,-2.4098,-2.4422,-2.4657,-2.4993,-2.5037,-2.5037,-2.5037,-2.5037,-2.5037,-2.5037,-2.5037,-2.5037,-2.5037,-2.5052,-2.5052,-2.5052,-2.5052,-2.5052,-2.5052,-2.5052,-2.463,-2.3803,-2.3674,-2.3968,-2.4543,-2.1578,-2.0692,-2.2025,-1.8905,-1.7416,-1.7426,-1.7624,-1.7832,-1.8031,-1.8031,-1.8031,-1.804,-1.8248,-1.821,-1.804,-1.804,-1.7917,-1.7709,-1.7492,-1.7662,-1.8012,-1.0299,-1.0299,-1.0299,-1.0299,-1.0299,-1.0299,-1.0299,-1.0299,-1.0586,-1.137,-1.1475,0.0,0.0,0.0,0.0,0.0,-1.4783,-1.6622,-1.9606,-2.1531,-2.2789,-2.3396,-2.4137,-2.455,-2.455,-2.4695,-2.4778,-2.4778,-2.5233,-2.5461,-2.5461,-2.5916,-2.6032,-2.5686,-2.4578,-2.329,-2.2021,-2.0868,-1.9698,-1.8642,-1.9066,-1.9021,-1.8701,-1.936,-1.8651,-1.7508,0.0,-1.8258,-1.7384,-1.7063,-1.7323,-1.7624,-1.7094,-1.7416,-1.8148,-1.852,-1.8411,-1.8432,-1.8919,-2.0077,-2.1235,-2.2033,-2.2777,-2.3393,-2.3637,-2.3537,-2.3493,-2.4072,-2.397,-2.3927,-2.4378,-2.4569,-2.4613,-2.4715,-2.492,-2.5052,-2.5052,-2.5052,-2.5052,-2.5052,-2.5052,-2.5052,-2.5052,-2.5052,-2.5052,-2.5052,-2.5242,-2.5461,-2.5681,-2.59,-2.5484,-2.4275,-2.4143,-2.3446,-2.1557,-2.0505,-1.9828,-1.9368,-1.8436,-1.8116,-1.8258,-1.8324,-1.8399,-1.8465,-1.8465,-1.8465,-1.8456,-1.839,-1.8314,-1.8239,-1.8106,-1.8002,-1.7936,-1.7861,-1.8544,-1.9396,-1.0299,-1.0299,-1.0299,-1.0299,-1.0299,0.0,0.0,0.0,0.0,0.0,0.0,0.0,0.0,0.0,0.0,0.0,0.0,-1.6313,-1.8682,-2.0687,-2.2112,-2.29,-2.3318,-2.3652,-2.4073,-2.3694,-2.3764,-2.4609,-2.4597,-2.4829,-2.5398,-2.5618,-2.5558,-2.5399,-2.4611,-2.3634,-2.2398,-2.1258,-2.0475,-1.9823,-1.9388,-1.9264,-1.938,-1.9372,-1.8362,0.0,-1.7409,-1.6918,-1.603,-1.6218,-1.6796,-1.7309,-1.6905,-1.7552,-1.8534,-1.8637,-1.8766,-1.9119,-2.0352,-2.1423,-2.2315,-2.3218,-2.3666,-2.3985,-2.4232,-2.3999,-2.3954,-2.4671,-2.4261,-2.3884,-2.4349,-2.4393,-2.4393,-2.4393,-2.4774,-2.5052,-2.5052,-2.5052,-2.5052,-2.5052,-2.5052,-2.5096,-2.5213,-2.533,-2.5344,-2.5227,-2.552,-2.5842,-2.6179,-2.65,-2.643,-2.5648,-2.5662,-2.4789,-2.3174,-2.2555,-2.1558,-1.9989,-2.0304,-2.045,-2.0596,-2.0596,-2.0596,-2.0596,-2.0596,-2.0596,-2.0586,-2.0429,-2.0366,-2.0346,-2.0116,-2.0032,-2.0022,-1.9938,-2.0522,-2.1112,-1.0299,-1.0299,-1.0299,0.0,0.0,0.0,0.0,0.0,0.0,0.0,0.0,0.0,0.0,0.0,0.0,0.0,0.0,0.0,-1.741,-1.9806,-2.1463,-2.1851,-2.1789,-2.2227,-2.3235,-2.2161,-2.257,-2.4671,-2.3787,-2.4198,-2.5688,-2.5337,-2.5134,-2.5068,-2.5235,-2.4766,-2.3629,-2.2535,-2.2167,-2.2171,-1.9919,-1.9853,-2.0793,-1.9144,-1.7569,-1.6347,-1.6133,-1.567,-1.5191,-1.5907,-1.6422,-1.6757,-1.6732,-1.7692,-1.897,-1.9539,-2.0147,-2.086,-2.1536,-2.2228,-2.2945,-2.3881,-2.3855,-2.3825,-2.4525,-2.4318,-2.4242,-2.4905,-2.4437,-2.3969,-2.3896,-2.3954,-2.4013,-2.4013,-2.4613,-2.5096,-2.511,-2.511,-2.511,-2.511,-2.5125,-2.5242,-2.5549,-2.5871,-2.5944,-2.5652,-2.5915,-2.6237,-2.6559,-2.6881,-2.7349,-2.7827,-2.7842,-2.8133,-2.8559,-2.6977,-2.5384,-2.378,-2.378,-2.378,-2.378,-2.378,-2.378,-2.378,-2.378,-2.378,-2.378,-2.3768,-2.3768,-2.3744,-2.3478,-2.3538,-2.3514,-2.3259,-2.3316,-2.321,0.0,0.0,0.0,0.0,0.0,0.0,0.0,0.0,0.0,0.0,0.0,0.0,0.0,0.0,0.0,0.0,0.0,0.0,-1.7015,-1.8339,-1.9793,-2.1439,-2.1614,-2.2044,-2.2777,-2.2479,-2.2777,-2.3835,-2.3406,-2.3717,-2.4514,-2.4269,-2.3875,-2.3452,-2.3345,-2.2412,-2.0995,-2.0705,-1.9815,-1.8794,-1.8645,-1.837,-1.8009,-1.8275,-1.7301,-1.5891,-1.6356,-1.5989,-1.5255,-1.5186,-1.6004,-1.7477,-1.9418,-1.9493,-1.9096,-2.056,-2.1063,-2.1294,-2.2081,-2.3208,-2.413,-2.4379,-2.4627,-2.4698,-2.492,-2.4744,-2.4261,-2.3735,-2.3106,-2.2374,-2.1393,-2.2184,-2.2988,-2.2988,-2.4349,-2.5491,-2.574,-2.5769,-2.5769,-2.5769,-2.5988,-2.6164,-2.6252,-2.6559,-2.6808,-2.6969,-2.7056,-2.7247,-2.7569,-2.7891,-2.7631,-2.6744,-2.6758,-2.6186,-2.5053,-2.4589,-2.4258,-2.378,-2.378,-2.378,-2.378,-2.378,-2.378,-2.378,-2.378,-2.378,-2.3768,-2.3575,-2.3502,-2.3636,-2.3356,-2.3259,-2.3271,-2.3393,-2.4221,-2.5231,0.0,0.0,0.0,0.0,0.0,0.0,0.0,0.0,0.0,0.0,0.0,0.0,0.0,0.0,0.0,0.0,0.0,0.0,0.0,-1.7106,-1.8385,-1.988,-2.0068,-2.0466,-2.1235,-2.0803,-2.1284,-2.2775,-2.2004,-2.2302,-2.3604,-2.3098,-2.268,-2.2302,-2.2165,-2.1523,-2.0595,-1.9885,-1.9393,0.0,0.0,-1.8119,-1.8171,-1.7825,-1.6992,-1.6069,-1.6364,-1.6336,-1.6218,-1.7132,-1.7782,-1.8489,-2.0241,-2.0277,-1.9955,-2.136,-2.1784,-2.2037,-2.3003,-2.4013,-2.4788,-2.4788,-2.492,-2.4905,-2.4335,-2.4057,-2.3574,-2.2315,-2.1672,-2.1057,-2.0194,-2.1452,-2.2623,-2.2623,-2.4379,-2.5813,-2.5988,-2.6018,-2.6061,-2.6208,-2.6398,-2.6617,-2.6896,-2.7217,-2.7554,-2.7876,-2.7773,-2.7832,-2.8139,-2.8461,-2.8244,-2.7449,-2.7462,-2.6977,-2.6017,-2.6017,-2.6017,-2.6017,-2.6017,-2.6017,-2.6017,-2.6017,-2.6017,-2.6017,-2.6017,-2.6017,-2.6017,-2.6148,-2.6135,-2.6148,-2.6228,-2.6426,-2.6453,-2.6454,-2.7159,-2.7997,0.0,0.0,0.0,0.0,0.0,0.0,0.0,0.0,0.0,-1.2646,-1.2438,-1.262,-1.367,-1.3775,0.0,0.0,0.0,0.0,0.0,0.0,-1.7303,-1.8061,-1.8087,-1.8565,-1.949,-1.8552,-1.921,-2.1604,-2.0316,-2.0742,-2.2615,-2.1839,-2.1435,-2.133,-2.133,-2.1239,-2.1035,-1.9576,-1.9605,-2.0523,-1.8458,-1.8335,-1.9147,0.0,-1.6726,-1.6394,-1.6403,-1.6807,-1.7598,-2.0079,-2.0281,-1.9659,-2.0411,-2.0808,-2.1203,-2.2052,-2.255,-2.3003,-2.3852,-2.4554,-2.5052,-2.5052,-2.5052,-2.4715,-2.3413,-2.3171,-2.2627,-2.0808,-2.0288,-1.9905,-1.9447,-2.0911,-2.2242,-2.2462,-2.4335,-2.5842,-2.6047,-2.612,-2.6266,-2.6588,-2.6705,-2.6983,-2.7554,-2.7847,-2.8139,-2.8417,-2.8139,-2.8095,-2.8417,-2.8695,-2.8842,-2.8886,-2.8886,-2.8886,-2.8886,-2.8886,-2.8886,-2.8886,-2.8886,-2.8886,-2.8886,-2.8886,-2.8886,-2.8886,-2.8886,-2.8915,-2.8973,-2.9266,-2.9398,-2.95,-3.0071,-3.032,-3.0349,-3.0393,-3.0437,-3.0437,0.0,0.0,0.0,0.0,0.0,0.0,0.0,0.0,0.0,0.0,-1.4663,-1.3566,0.0,0.0,0.0,0.0,0.0,0.0,0.0,0.0,0.0,-1.8035,-1.8087,-1.8401,-1.9008,-1.8826,-1.9191,-2.0158,-1.9808,-2.0016,-2.0832,-2.0592,-2.0163,-1.9648,-2.0041,-1.9877,-1.9245,-1.896,-1.8714,-1.8351,-1.7471,-1.7102,-1.6933,-1.6622,0.0,0.0,-1.7162,-1.7715,-1.8402,-2.036,-2.0798,-2.0685,-2.2125,-2.2652,-2.2725,-2.2901,-2.3369,-2.3866,-2.4042,-2.4554,-2.5052,-2.5052,-2.5052,-2.4715,-2.3413,-2.3292,-2.2635,-1.9775,-1.9245,-1.8916,-1.766,-1.873,-2.0296,-2.1642,-2.3296,-2.4891,-2.6222,-2.6647,-2.6939,-2.7276,-2.7773,-2.8154,-2.8256,-2.8315,-2.8373,-2.8432,-2.8139,-2.8095,-2.8417,-2.8491,-2.8637,-2.8886,-2.8886,-2.8886,-2.8886,-2.8886,-2.8886,-2.8886,-2.8886,-2.8886,-2.8886,-2.8886,-2.8886,-2.8886,-2.8886,-2.9047,-2.9295,-2.9354,-2.9529,-2.9793,-2.991,-3.0115,-3.0378,-3.0642,-3.0905,-3.1168,0.0,0.0,0.0,0.0,0.0,0.0,0.0,-1.5082,-1.6859,-1.9133,-1.8479,-1.7225,-1.5735,-1.4742,-1.3984,0.0,0.0,0.0,0.0,0.0,0.0,-1.7173,0.0,0.0,-1.8009,-1.8009,-1.8323,-1.8924,0.0,-1.865,-1.9222,-1.9154,-1.9092,-1.9056,-1.9255,-1.9259,-1.9173,-1.8408,-1.7873,-1.7562,-1.6974,-1.6581,-1.6374,0.0,0.0,0.0,-1.8382,-1.9072,-1.9645,-2.1139,-2.1562,-2.1532,-2.2793,-2.3106,-2.3076,-2.2901,-2.3442,-2.4042,-2.3881,-2.4437,-2.5052,-2.5052,-2.5052,-2.454,-2.2564,-2.2432,-2.1742,-1.8252,-1.801,-1.8037,-1.6832,-1.8072,-1.9638,-2.075,-2.2842,-2.4671,-2.5622,-2.6617,-2.7364,-2.7686,-2.8154,-2.8505,-2.8651,-2.8534,-2.8432,-2.8432,-2.7978,-2.7847,-2.8169,-2.8344,-2.8505,-2.8651,-2.8812,-2.8886,-2.8886,-2.8886,-2.8886,-2.8886,-2.8886,-2.8886,-2.8886,-2.8886,-2.8886,-2.8886,-2.8886,-2.9076,-2.9383,-2.9559,-2.9822,-3.0144,-3.0481,-3.0715,-3.089,-3.1212,-3.1432,-3.1593,0.0,0.0,0.0,0.0,0.0,0.0,0.0,-1.7434,-1.9525,-2.193,-2.2139,-2.1067,-1.8401,-1.6336,-1.4872,0.0,0.0,0.0,0.0,0.0,0.0,0.0,0.0,0.0,0.0,0.0,0.0,-1.7904,-1.7434,0.0,0.0,0.0,0.0,0.0,-1.8925,-1.9158,-1.9508,-1.824,-1.7655,0.0,0.0,-1.655,-1.6597,0.0,0.0,0.0,0.0,-2.0126,-2.0732,-2.19,-2.2196,-2.2234,-2.3052,-2.3033,-2.2857,-2.2608,-2.3223,-2.394,-2.3749,-2.4364,-2.5052,-2.5052,-2.5052,-2.4379,-2.1803,-2.1653,-2.1043,-1.7219,-1.7116,-1.7518,-1.6699,-1.7721,-1.9111,-2.0164,-2.2315,-2.413,-2.4949,-2.6281,-2.7364,-2.7891,-2.8183,-2.8476,-2.8856,-2.8491,-2.8256,-2.833,-2.773,-2.751,-2.7832,-2.8154,-2.8359,-2.8432,-2.8739,-2.8886,-2.8886,-2.8886,-2.8886,-2.8886,-2.8886,-2.8886,-2.8886,-2.8886,-2.8886,-2.8886,-2.8886,-2.912,-2.95,-2.9764,-3.01,-3.0495,-3.1007,-3.1256,-3.1344,-3.1593,-3.1739,-3.1798,0.0,0.0,0.0,0.0,0.0,0.0,0.0,-1.9022,-2.1485,-2.4282,-2.4204,-2.3184,-2.1328,-1.8636,-1.6519,0.0,0.0,0.0,0.0,0.0,0.0,0.0,0.0,0.0,0.0,0.0,0.0,-1.7277,-1.7225,0.0,0.0,0.0,0.0,0.0,0.0,-1.9694,-1.9577,-1.8891,0.0,0.0,0.0,0.0,0.0,0.0,0.0,0.0,0.0,-2.0247,-2.0948,-2.2312,-2.2648,-2.2623,-2.341,-2.3101,-2.2271,-2.2228,-2.2901,-2.3691,-2.3969,-2.454,-2.5052,-2.5052,-2.5052,-2.4379,-2.1803,-2.2025,-2.1474,-1.7266,-1.7239,-1.7747,-1.6996,-1.696,-1.7867,-2.0281,-2.1159,-2.2345,-2.473,-2.5696,-2.6603,-2.7803,-2.7978,-2.8227,-2.8827,-2.8081,-2.7686,-2.7978,-2.7393,-2.7174,-2.751,-2.7817,-2.8139,-2.8432,-2.8739,-2.8886,-2.8886,-2.8886,-2.8886,-2.8886,-2.8886,-2.8886,-2.8886,-2.8886,-2.8886,-2.8886,-2.8886,-2.9237,-2.9822,-2.9851,-3.0217,-3.0788,-3.0846,-3.1051,-3.1315,-3.1344,-3.1549,-3.1798,0.0,0.0,0.0,0.0,0.0,0.0,-1.7721,-1.9556,-2.1979,-2.5881,-2.5569,-2.4606,-2.3534,-2.0651,-1.7878,-1.5683,0.0,0.0,0.0,0.0,0.0,0.0,0.0,0.0,0.0,0.0,-1.7382,-1.7748,-1.7748,0.0,0.0,0.0,0.0,0.0,0.0,-1.9947,-2.0237,-1.9531,0.0,0.0,0.0,0.0,0.0,0.0,0.0,0.0,0.0,0.0,-2.1466,-2.205,-2.233,-2.2329,-2.2282,-2.2189,-2.2188,-2.2398,-2.3303,-2.4204,-2.3583,-2.4262,-2.5052,-2.5052,-2.4759,-2.3966,-2.2145,-2.1957,-2.1345,-1.8321,-1.7879,-1.7861,-1.7461,-1.7182,-1.7553,-1.9037,-2.045,-2.1744,-2.2936,-2.4583,-2.5988,-2.6705,-2.7481,-2.7978,-2.8037,-2.7876,-2.7656,-2.7393,-2.713,-2.7042,-2.7174,-2.7495,-2.7817,-2.8139,-2.8447,-2.871,-2.8886,-2.8886,-2.8886,-2.8886,-2.8886,-2.8886,-2.89,-2.909,-2.9076,-2.89,-2.909,-2.9442,-2.9866,-2.9866,-3.0246,-3.0817,-3.0817,-3.0905,-3.1037,-3.1242,-3.1388,-3.1534,0.0,0.0,0.0,0.0,0.0,-1.4545,-1.7963,-1.978,-2.212,-2.6103,-2.5869,-2.5143,-2.4598,-2.1381,-1.861,-1.6911,-1.5813,0.0,0.0,0.0,0.0,0.0,0.0,0.0,0.0,0.0,-1.7748,-1.8349,-1.8506,-1.8976,0.0,0.0,-1.9734,-2.0309,0.0,0.0,0.0,0.0,0.0,0.0,0.0,0.0,0.0,0.0,0.0,0.0,0.0,0.0,0.0,0.0,0.0,-2.2272,-2.189,-2.2145,-2.2649,-2.2711,-2.3536,-2.4327,-2.3991,-2.4446,-2.4935,-2.5037,-2.4877,-2.4109,-2.2441,-2.2176,-2.161,-1.9076,-1.8254,-1.7958,-1.7904,-1.7648,-1.7658,-1.8529,-2.0143,-2.1432,-2.2024,-2.3749,-2.5213,-2.593,-2.6822,-2.7364,-2.7335,-2.7627,-2.7583,-2.7027,-2.6983,-2.6983,-2.6983,-2.7203,-2.7525,-2.7934,-2.8271,-2.8578,-2.8886,-2.8886,-2.8944,-2.9032,-2.9032,-2.909,-2.9178,-2.9412,-2.9398,-2.9193,-2.9427,-2.9705,-3.0012,-3.0012,-3.0334,-3.0817,-3.0817,-3.0817,-3.0846,-3.1081,-3.1168,-3.1198,0.0,0.0,0.0,0.0,0.0,0.0,-1.7073,-1.9635,-2.2135,-2.4693,-2.484,-2.4546,-2.4119,-2.0518,-1.8558,-1.9656,-1.6598,0.0,0.0,0.0,0.0,0.0,0.0,0.0,0.0,0.0,-1.8349,-1.8898,-1.9499,-2.0361,-2.1485,-2.0961,-2.0936,-2.1459,0.0,0.0,0.0,0.0,0.0,0.0,0.0,0.0,0.0,0.0,0.0,0.0,0.0,0.0,0.0,0.0,0.0,0.0,0.0,-2.333,-2.3461,-2.3476,-2.3461,-2.3785,-2.5306,-2.5206,-2.4657,-2.4979,-2.5336,-2.5024,-2.2814,-2.2911,-2.2514,-1.9431,-1.8336,-1.8117,-1.8411,-1.8091,-1.8192,-1.9429,-2.0247,-2.1233,-2.2848,-2.3398,-2.4218,-2.5827,-2.6032,-2.6296,-2.6939,-2.7291,-2.7349,-2.7013,-2.6983,-2.6983,-2.6983,-2.6998,-2.7291,-2.7934,-2.8271,-2.8578,-2.8886,-2.8886,-2.9047,-2.9369,-2.9369,-2.9544,-2.9851,-2.9851,-2.9851,-2.9851,-2.9851,-3.0042,-3.0349,-3.0349,-3.0539,-3.0817,-3.0817,-3.0817,-3.0817,-3.0832,-3.0832,-3.0832,0.0,0.0,0.0,0.0,0.0,0.0,0.0,-1.6367,-1.8215,-2.0871,-2.0961,-2.0819,-2.112,-1.8136,-1.6841,-1.8708,-1.6632,0.0,0.0,0.0,0.0,0.0,0.0,0.0,0.0,-1.8375,-1.9316,-2.0675,-2.1276,-2.193,-2.2662,-2.2113,-2.1721,-2.1485,-2.0961,-2.0699,0.0,0.0,0.0,0.0,0.0,0.0,0.0,0.0,0.0,0.0,0.0,0.0,0.0,0.0,0.0,0.0,0.0,0.0,0.0,-2.3545,-2.4342,-2.4931,-2.4906,-2.5261,-2.5567,-2.507,-2.4581,-2.4073,-2.3059,-2.2636,-2.1998,-2.0529,-1.9127,-1.8423,-1.9252,-1.8607,-1.8403,-1.9996,-2.0937,-2.1767,-2.2689,-2.3823,-2.4788,-2.5301,-2.5944,-2.6603,-2.7261,-2.7013,-2.6866,-2.6983,-2.6983,-2.6983,-2.6983,-2.6983,-2.7188,-2.7613,-2.7934,-2.8256,-2.8578,-2.8783,-2.9047,-2.9383,-2.9383,-2.9544,-2.9866,-3.01,-3.0071,-2.9881,-3.01,-3.0246,-3.0349,-3.0349,-3.0539,-3.0817,-3.0817,-3.0817,-3.0817,-3.0817,-3.0817,-3.0817,0.0,0.0,0.0,0.0,0.0,0.0,0.0,-1.3959,-1.5401,-1.7627,-1.7459,-1.7626,-1.8894,-1.6365,-1.5578,-1.819,-1.6599,0.0,0.0,0.0,0.0,0.0,0.0,0.0,-1.8087,-1.8636,-1.9969,-2.2165,-2.2949,-2.3733,-2.4517,-2.4178,-2.3341,-2.2139,-2.1564,-2.1118,0.0,0.0,0.0,0.0,0.0,0.0,-2.0613,0.0,0.0,0.0,0.0,0.0,0.0,0.0,0.0,0.0,0.0,0.0,0.0,0.0,-2.4226,-2.4946,-2.4881,-2.5089,-2.5345,-2.4889,-2.4473,-2.3978,-2.3275,-2.2744,-2.2078,-2.1252,-1.9923,-1.9188,-2.0042,-1.9425,-1.9295,-2.0808,-2.1293,-2.1849,-2.3016,-2.3688,-2.4291,-2.514,-2.5871,-2.653,-2.7056,-2.6852,-2.6778,-2.6969,-2.6983,-2.6983,-2.6983,-2.6983,-2.7086,-2.7291,-2.7715,-2.811,-2.8432,-2.8856,-2.9237,-2.9559,-2.969,-2.991,-3.0232,-3.0437,-3.0422,-3.0232,-3.0437,-3.0525,0.0,-3.0525,-3.0642,-3.0817,-3.0817,-3.0817,-3.0817,-3.0817,-3.0817,-3.0817,0.0,0.0,0.0,0.0,0.0,0.0,0.0,-1.2317,-1.357,-1.4856,-1.443,-1.4862,-1.7093,-1.4904,-1.4566,-1.7794,0.0,0.0,0.0,0.0,0.0,0.0,0.0,0.0,-1.814,-1.8741,-2.0414,-2.3289,-2.4543,-2.572,-2.6791,-2.6844,-2.5589,-2.3315,-2.2766,-2.1825,0.0,0.0,0.0,0.0,-2.0782,-2.1052,0.0,0.0,0.0,0.0,0.0,0.0,0.0,0.0,0.0,0.0,0.0,0.0,0.0,0.0,0.0,0.0,0.0,-2.4699,-2.4349,-2.4663,-2.4615,-2.4315,-2.3411,-2.3036,0.0,-2.1696,-2.0624,-2.0177,-2.0898,-2.0579,-2.0671,-2.1799,-2.1292,-2.1562,-2.3841,-2.3156,-2.3252,-2.5418,-2.5915,-2.6208,-2.6544,-2.6822,-2.6983,-2.6983,-2.6983,-2.6983,-2.6983,-2.6983,-2.6983,-2.6983,-2.7613,-2.8095,-2.8403,-2.9047,-2.9544,-2.9866,-3.0203,-3.051,-3.0817,-3.0817,-3.0817,-3.0817,-3.0817,-3.0817,-3.0817,-3.0817,-3.0817,-3.0817,-3.0817,-3.0817,-3.0817,-3.0817,-3.0817,-3.0817,0.0,0.0,0.0,0.0,0.0,0.0,0.0,0.0,0.0,0.0,-1.2413,-1.2551,-1.3098,-1.2289,-1.2619,0.0,0.0,0.0,0.0,0.0,0.0,0.0,0.0,0.0,-1.8689,-1.9708,-2.1433,-2.3916,-2.5929,-2.7288,-2.7994,-2.8438,-2.721,-2.4543,-2.3968,-2.2583,0.0,0.0,0.0,0.0,-2.1262,-2.1289,0.0,0.0,0.0,0.0,-2.0577,-2.0647,0.0,0.0,0.0,0.0,0.0,0.0,0.0,0.0,-2.2459,-2.2876,-2.3081,0.0,-2.4295,-2.3742,-2.3567,-2.3382,0.0,-2.2635,-2.2422,-2.1614,-2.0779,-2.0566,-2.193,-2.1375,-2.1286,-2.3038,-2.2828,-2.2897,-2.3984,-2.4774,-2.5593,-2.6866,-2.6866,-2.6896,-2.7217,-2.7086,-2.6983,-2.6983,-2.6983,-2.6983,-2.6983,-2.6983,-2.6983,-2.6983,-2.7613,-2.7993,-2.8066,-2.893,-2.9544,-2.9866,-3.0203,-3.051,-3.0817,-3.0817,-3.0817,-3.0817,-3.0817,-3.0817,-3.0817,-3.0817,-3.0817,-3.0817,-3.0817,-3.0817,-3.0817,-3.0817,-3.0817,-3.0817,0.0,0.0,0.0,0.0,0.0,0.0,0.0,0.0,0.0,0.0,0.0,-1.083,-1.1099,-1.112,0.0,0.0,0.0,0.0,0.0,0.0,0.0,0.0,0.0,-1.7721,-1.8872,-1.9786,-2.1668,-2.4517,-2.653,-2.8098,-2.9196,-2.951,-2.8281,-2.573,-2.3759,-2.2086,0.0,0.0,0.0,-2.1831,-2.1294,0.0,0.0,0.0,0.0,0.0,-2.0725,-2.0508,0.0,-2.0897,-2.128,-2.1569,0.0,0.0,0.0,0.0,-2.1983,-2.219,-2.219,-2.3184,-2.4115,-2.3619,-2.335,-2.3122,-2.2873,-2.248,-2.2108,-2.1706,-2.1242,-2.0995,-2.1332,-2.1465,-2.1802,-2.2618,-2.2891,-2.3422,-2.4237,-2.5606,-2.6603,-2.6983,-2.7144,-2.7232,-2.7247,-2.71,-2.6983,-2.6983,-2.6983,-2.6983,-2.6983,-2.6983,-2.6983,-2.6983,-2.7613,-2.7876,-2.773,-2.8827,-2.9383,-2.9427,-3.0056,-3.0437,-3.0612,-3.0759,-3.0817,-3.0817,-3.0817,-3.0817,-3.0817,-3.0817,-3.0817,-3.0817,-3.0817,-3.0817,-3.0817,-3.0817,-3.0817,-3.0817,0.0,0.0,0.0,0.0,0.0,0.0,0.0,0.0,0.0,0.0,0.0,0.0,0.0,0.0,0.0,0.0,0.0,0.0,0.0,0.0,0.0,0.0,-1.7041,-1.7783,-1.904,-1.9634,-2.1538,-2.4962,-2.6948,-2.8726,-3.0268,-3.0712,-2.9457,-2.6661,-2.3263,-2.1355,-2.0673,-2.0126,-2.0832,-2.2191,-2.1198,0.0,0.0,0.0,0.0,0.0,0.0,0.0,0.0,-2.0668,-2.101,-2.1155,-2.1942,0.0,0.0,0.0,0.0,0.0,-2.1901,-2.2977,-2.4012,-2.3743,-2.337,-2.308,-2.308,-2.2418,-2.1797,-2.1797,-2.1921,-2.1741,-2.0747,-2.172,-2.2586,-2.2247,-2.2885,-2.3656,-2.4525,-2.5959,-2.6837,-2.6603,-2.7071,-2.732,-2.7086,-2.7013,-2.6983,-2.6983,-2.6983,-2.6983,-2.6983,-2.6983,-2.6983,-2.6983,-2.7569,-2.773,-2.7408,-2.871,-2.9208,-2.89,-2.9837,-3.0305,-3.0364,-3.0627,-3.0773,-3.0817,-3.0817,-3.0817,-3.0817,-3.0817,-3.0817,-3.0817,-3.0817,-3.0817,-3.0817,-3.0817,-3.0817,-3.0817,0.0,0.0,0.0,0.0,0.0,0.0,0.0,0.0,0.0,0.0,0.0,0.0,0.0,0.0,0.0,0.0,0.0,0.0,0.0,0.0,0.0,-1.6056,-1.6617,-1.7881,-1.9962,-2.0293,-2.1822,-2.4745,-2.8108,-3.0111,-3.0921,-3.3352,-3.1967,-2.7262,-2.4282,-2.2113,-2.0699,-2.062,-2.0963,-2.1642,-2.1459,0.0,0.0,0.0,0.0,0.0,0.0,0.0,0.0,-2.0398,-2.0534,-2.0555,-2.07,0.0,0.0,0.0,0.0,0.0,-2.2273,-2.3681,-2.4654,-2.3101,-2.2646,-2.2604,-2.2604,-2.219,-2.1797,-2.1797,-2.2418,-2.3162,-2.3729,-2.4189,-2.4699,-2.5103,-2.5017,-2.4934,-2.4952,-2.59,-2.6661,-2.6896,-2.6998,-2.7159,-2.7378,-2.7159,-2.6983,-2.6983,-2.6983,-2.6983,-2.6983,-2.6983,-2.6983,-2.6983,-2.7349,-2.7393,-2.7071,-2.8608,-2.9208,-2.89,-2.9603,-3.0086,-3.0349,-3.0407,-3.0568,-3.0817,-3.0817,-3.0817,-3.0817,-3.0817,-3.0817,-3.0817,-3.0817,-3.0817,-3.0817,-3.0817,-3.0817,-3.0817,0.0,0.0,0.0,0.0,0.0,0.0,0.0,0.0,0.0,0.0,0.0,0.0,0.0,0.0,0.0,0.0,0.0,0.0,0.0,0.0,-1.5476,-1.6991,-1.6999,-1.7995,-2.016,-2.1362,-2.3492,-2.6557,-2.9061,-3.1112,-3.259,-3.2356,-3.0069,-2.6033,-2.3759,-2.1982,-2.0699,-2.0699,-2.0989,-2.1381,0.0,0.0,0.0,0.0,0.0,0.0,0.0,0.0,0.0,0.0,-2.0386,-2.0253,-2.1437,0.0,0.0,0.0,0.0,0.0,-2.1756,-2.2729,-2.3846,-2.424,-2.5068,-2.5612,-2.4957,-2.4615,-2.4108,-2.3176,-2.3406,-2.364,-2.3644,-2.4296,-2.5223,-2.5976,-2.5896,-2.5711,-2.6129,-2.6632,-2.7013,-2.6998,-2.7144,-2.7247,-2.7217,-2.7086,-2.6983,-2.6983,-2.6983,-2.6983,-2.6983,-2.6983,-2.6983,-2.6983,-2.7305,-2.732,-2.6998,-2.8242,-2.871,-2.8388,-2.9208,-2.9778,-3.01,-3.0451,-3.0685,-3.0817,-3.0817,-3.0817,-3.0817,-3.0817,-3.0817,-3.0817,-3.0817,-3.0817,-3.0817,-3.0499,-3.0499,-3.0332,0.0,0.0,0.0,0.0,0.0,0.0,0.0,0.0,0.0,0.0,0.0,0.0,0.0,0.0,0.0,0.0,0.0,0.0,0.0,-1.3983,-1.5168,-1.7355,-1.7454,-1.8608,-2.0995,-2.2486,-2.4902,-2.8181,-2.9952,-3.1838,-3.3769,-3.0957,-2.7959,-2.4942,-2.328,-2.1851,-2.0649,-2.0599,-2.0758,-2.1017,0.0,0.0,0.0,0.0,0.0,0.0,0.0,0.0,0.0,0.0,0.0,0.0,0.0,0.0,0.0,-2.2071,-2.1956,-2.1756,-2.1507,-2.219,-2.3474,-2.5523,-2.6703,-2.7324,-2.7031,-2.6448,-2.5752,-2.4775,-2.4594,-2.4418,-2.3861,-2.4591,-2.5453,-2.615,-2.6193,-2.6339,-2.691,-2.7203,-2.7276,-2.7013,-2.7217,-2.7261,-2.7013,-2.6983,-2.6983,-2.6983,-2.6983,-2.6983,-2.6983,-2.6983,-2.6983,-2.6983,-2.7232,-2.7247,-2.6998,-2.7803,-2.8125,-2.7964,-2.8842,-2.9427,-2.9764,-3.0334,-3.0642,-3.0715,-3.0788,-3.0817,-3.0817,-3.0817,-3.0817,-3.0817,-3.0817,-3.0665,-3.0665,-3.0165,-3.0012,-2.9844,0.0,0.0,0.0,0.0,0.0,0.0,0.0,0.0,0.0,0.0,0.0,0.0,0.0,0.0,0.0,0.0,0.0,0.0,0.0,-1.3424,-1.432,-1.5779,-1.7629,-2.0087,-2.3387,-2.3256,-2.4891,-2.8494,-3.0796,-3.2425,-3.3256,-3.053,-2.7755,-2.5004,-2.362,-2.2081,-2.0498,-2.0347,-2.0246,-2.0246,-1.9836,0.0,0.0,0.0,0.0,0.0,0.0,0.0,0.0,0.0,0.0,0.0,0.0,0.0,-2.1507,-2.1603,-2.1679,-2.1901,-2.2294,-2.337,-2.4736,-2.6165,-2.5026,-2.4329,-2.704,-2.6097,-2.4906,-2.6144,-2.61,-2.5961,-2.6456,-2.6194,-2.582,-2.5608,-2.6091,-2.6588,-2.6939,-2.7013,-2.7013,-2.6998,-2.7013,-2.7013,-2.6998,-2.6983,-2.6983,-2.6983,-2.6983,-2.6983,-2.6983,-2.6983,-2.6983,-2.6983,-2.7013,-2.7013,-2.6983,-2.7364,-2.7686,-2.7964,-2.8608,-2.909,-2.9427,-2.9778,-3.01,-3.0407,-3.07,-3.0817,-3.0817,-3.0817,-3.0817,-3.0817,-3.0817,-3.0499,-3.0179,-2.9649,-2.9314,-2.8992,0.0,0.0,0.0,0.0,0.0,0.0,0.0,0.0,0.0,0.0,0.0,0.0,0.0,0.0,0.0,0.0,0.0,0.0,0.0,-1.2937,-1.4179,-1.6436,-1.7525,-1.9444,-2.2467,-2.404,-2.6391,-2.9691,-3.1305,-3.1884,-3.1312,-2.8906,-2.6455,-2.3944,-2.2832,-2.1815,-2.081,-2.0065,-1.9855,-2.0023,-1.9255,-1.8845,0.0,0.0,0.0,0.0,0.0,0.0,0.0,0.0,-1.8711,-1.9105,-2.0937,-2.1373,-2.136,-2.2021,-2.1782,-2.1362,-2.1238,-2.2832,-2.4799,-2.5875,-2.5937,-2.632,-2.8301,-2.8795,-2.8615,-2.8077,-2.7647,-2.7139,-2.6547,-2.6329,-2.6281,-2.6149,-2.6339,-2.6617,-2.6939,-2.6983,-2.6983,-2.6983,-2.6983,-2.6983,-2.6983,-2.6983,-2.6983,-2.6983,-2.6983,-2.6983,-2.6983,-2.6983,-2.6983,-2.6983,-2.6983,-2.6983,-2.6983,-2.751,-2.7832,-2.7964,-2.8593,-2.9061,-2.9383,-2.972,-2.9939,-3.0071,-3.0393,-3.0525,-3.0539,-3.0744,-3.0817,-3.0817,-3.0499,-3.0332,-3.0179,-2.9328,-2.8992,-2.8824,0.0,0.0,0.0,0.0,0.0,0.0,0.0,0.0,0.0,0.0,0.0,0.0,0.0,0.0,0.0,0.0,0.0,0.0,-1.2048,-1.2586,-1.3972,-1.6291,-1.7183,-1.8878,-2.1321,-2.3934,-2.6667,-2.9486,-3.0606,-3.0422,-2.8866,-2.6714,-2.4801,-2.3148,-2.1809,-2.1237,-2.1223,-1.9812,-1.9353,-1.9555,-1.8704,-1.823,0.0,0.0,0.0,0.0,0.0,0.0,0.0,0.0,-1.83,-1.8912,-2.1164,-2.1576,-2.1403,-2.2365,-2.239,-2.2066,-2.1466,-2.2998,-2.5047,-2.6227,-2.6993,-2.7976,-2.9709,-3.0199,-3.0181,-2.9331,-2.8541,-2.7569,-2.6238,-2.613,-2.6237,-2.6339,-2.6442,-2.6617,-2.6939,-2.6983,-2.6983,-2.6983,-2.6983,-2.6983,-2.6983,-2.6983,-2.6983,-2.6983,-2.6983,-2.6983,-2.6983,-2.6983,-2.6983,-2.6983,-2.6983,-2.6983,-2.6983,-2.7525,-2.7847,-2.7964,-2.8491,-2.8915,-2.9237,-2.9559,-2.9705,-2.9734,-3.0056,-3.0203,-3.0217,-3.0539,-3.0729,-3.0651,-2.9998,-2.983,-2.983,-2.8992,-2.8655,-2.8655,0.0,0.0,0.0,0.0,0.0,0.0,0.0,0.0,0.0,0.0,0.0,0.0,0.0,0.0,0.0,0.0,0.0,0.0,-1.1591,-1.242,-1.3538,-1.4925,-1.6746,-1.8503,-2.0369,-2.2666,-2.502,-2.7459,-2.8426,-2.7898,-2.6003,-2.3853,-2.2883,-2.2826,-2.0647,-2.0458,-2.159,-1.9604,-1.8817,-1.876,-1.8302,-1.7842,-1.749,0.0,0.0,0.0,0.0,0.0,0.0,0.0,-1.8379,-1.9199,-2.2139,-2.2359,-2.1699,-2.2571,-2.3569,-2.4322,-2.3412,-2.4198,-2.5689,-2.7469,-2.7945,-2.859,-3.0982,-2.9754,-2.8387,-2.9849,-2.846,-2.6744,-2.5736,-2.5535,-2.5637,-2.5974,-2.6296,-2.6617,-2.6939,-2.6983,-2.6983,-2.6983,-2.6983,-2.6983,-2.6983,-2.6983,-2.6983,-2.6983,-2.6983,-2.6983,-2.6983,-2.6983,-2.6983,-2.6983,-2.6983,-2.6983,-2.6983,-2.732,-2.7642,-2.7949,-2.8286,-2.8593,-2.89,-2.9222,-2.9369,-2.9383,-2.972,-2.9866,-2.9881,-3.0217,-3.0539,-3.0665,-2.9314,-2.9146,-2.9314,-2.8473,-2.8136,-2.8136,0.0,0.0,0.0,0.0,0.0,0.0,0.0,0.0,0.0,0.0,0.0,0.0,0.0,0.0,0.0,0.0,0.0,0.0,-1.1591,-1.242,-1.3393,-1.4469,-1.627,-1.7595,-1.8441,-2.0452,-2.3054,-2.6394,-2.6283,-2.54,-2.3541,-2.3036,-2.2114,-2.088,-2.1014,-2.0951,-2.0631,-1.9253,-1.9072,-1.9629,-1.8657,-1.8006,-1.7627,0.0,0.0,0.0,0.0,0.0,0.0,0.0,0.0,0.0,-1.999,-2.0839,-2.1343,-2.2111,-2.2446,-2.2563,-2.2294,-2.4612,-2.7096,-2.6993,-2.9168,-3.1564,-3.1942,-3.1752,-3.1301,-3.01,-2.8381,-2.6863,-2.593,-2.6061,-2.6252,-2.6339,-2.6442,-2.6617,-2.6939,-2.6983,-2.6983,-2.6983,-2.6983,-2.6983,-2.6983,-2.6983,-2.6983,-2.6983,-2.6983,-2.6983,-2.6983,-2.6983,-2.6983,-2.6983,-2.6983,-2.6983,-2.6983,-2.732,-2.7642,-2.7949,-2.8286,-2.8593,-2.89,-2.8988,-2.9032,-2.9047,-2.9383,-2.9529,-2.9559,-3.0115,-3.0374,-3.0317,-2.9424,-2.8966,-2.8937,-2.7848,-2.7655,-2.7829,0.0,0.0,0.0,0.0,0.0,0.0,0.0,0.0,0.0,0.0,-1.0891,-1.1033,0.0,0.0,0.0,0.0,0.0,0.0,-1.1302,-1.2316,-1.3331,-1.4262,-1.6007,-1.7512,-1.8526,-1.9768,-2.1238,-2.2894,-2.337,-2.2853,-2.1424,-2.2125,-2.1998,-2.1296,-2.2006,-2.2024,-2.1388,-1.992,-1.9468,-1.9617,-1.895,-1.8382,-1.7988,0.0,0.0,0.0,0.0,0.0,0.0,0.0,0.0,0.0,-1.8816,-1.9703,-2.0594,-2.2034,-2.3154,-2.4095,-2.4633,-2.7117,-2.9601,-2.9683,-3.1154,-3.2565,-3.2334,-3.1976,-3.1135,-2.9429,-2.771,-2.6559,-2.6427,-2.6457,-2.6544,-2.6676,-2.6705,-2.6764,-2.6969,-2.6983,-2.6983,-2.6983,-2.6983,-2.6983,-2.6983,-2.6983,-2.6983,-2.6983,-2.6983,-2.6983,-2.6983,-2.6983,-2.6983,-2.6983,-2.6983,-2.6983,-2.6983,-2.7188,-2.7452,-2.7759,-2.8095,-2.8403,-2.871,-2.8842,-2.8886,-2.89,-2.909,-2.9266,-2.9254,-2.9485,-2.9506,-2.9448,-2.8757,-2.8538,-2.8591,-2.7606,-2.7522,-2.7856,0.0,0.0,0.0,0.0,0.0,0.0,0.0,0.0,0.0,-1.0774,-1.0833,-1.0891,0.0,0.0,0.0,-1.0891,-1.0891,-1.0891,-1.0891,-1.215,-1.3331,-1.4262,-1.6146,-1.7968,-1.9734,-1.9975,-1.952,-1.8319,-2.012,-2.0514,-1.9734,-2.1114,-2.2232,-2.2998,-2.308,-2.3039,-2.2749,-2.099,-1.9789,-1.9065,-1.9065,-1.8796,-1.8382,-1.8382,0.0,0.0,0.0,0.0,0.0,0.0,0.0,0.0,-1.8382,-1.8933,-1.9557,-2.197,-2.4723,-2.7241,-2.8566,-3.045,-3.2344,-3.3796,-3.3191,-3.2137,-3.2059,-3.0662,-2.9175,-2.8196,-2.7013,-2.6281,-2.6837,-2.672,-2.6647,-2.6939,-2.6983,-2.6983,-2.6983,-2.6983,-2.6983,-2.6983,-2.6983,-2.6983,-2.6983,-2.6983,-2.6983,-2.6983,-2.6983,-2.6983,-2.6983,-2.6983,-2.6983,-2.6983,-2.6983,-2.6983,-2.6983,-2.6983,-2.7159,-2.7481,-2.7803,-2.8125,-2.8447,-2.8754,-2.8886,-2.8886,-2.8886,-2.8933,-2.8762,-2.8269,-2.8277,-2.8557,-2.7717,-2.7743,-2.8139,-2.7472,-2.7562,-2.803,0.0,0.0,0.0,0.0,0.0,0.0,0.0,0.0,-1.0659,-1.0794,-1.0833,-1.0833,-1.0891,-1.0833,0.0,-1.0891,-1.0833,-1.0833,-1.0891,-1.215,-1.3331,-1.4262,-1.6726,-1.8444,-1.921,-1.8257,-1.774,-1.7864,-1.9334,-1.9582,-1.8733,-2.0824,-2.1714,-2.159,-2.2315,-2.1838,-2.0431,-1.9292,-1.892,-1.9065,-1.9065,-1.8796,-1.8382,-1.8382,-1.7616,0.0,0.0,0.0,0.0,0.0,0.0,0.0,-1.7653,-1.8218,-1.882,-2.008,-2.2449,-2.4819,-2.5834,-2.8798,-3.1758,-3.2513,-3.2427,-3.1984,-3.0874,-2.973,-2.8622,-2.8233,-2.7393,-2.6749,-2.6632,-2.6764,-2.691,-2.6983,-2.6983,-2.6983,-2.6983,-2.6983,-2.6983,-2.6983,-2.6983,-2.6983,-2.6983,-2.6983,-2.6983,-2.6983,-2.6983,-2.6983,-2.6983,-2.6983,-2.6983,-2.6983,-2.6983,-2.6983,-2.6983,-2.6983,-2.7159,-2.7481,-2.7803,-2.8125,-2.8447,-2.8754,-2.8886,-2.8886,-2.8588,-2.8776,-2.9224,-2.8415,-2.8277,-2.8543,-2.7822,-2.7432,-2.7458,-2.6774,-2.6947,-2.7442,0.0,0.0,0.0,0.0,0.0,0.0,0.0,0.0,-1.0467,-1.0331,-1.039,-1.0448,-1.0448,-1.0448,0.0,0.0,-1.0833,-1.0833,-1.0891,-1.2399,-1.4055,-1.5877,-1.7305,-1.8071,-1.8092,-1.7202,-1.6622,-1.6415,-1.7367,-1.7905,-1.8112,-2.041,-2.1466,-2.1487,-2.2418,-2.1921,-2.0369,-1.9665,-1.9251,-1.9085,-1.9313,-1.9127,-1.8671,-1.8237,-1.7491,-1.6643,-1.6208,0.0,0.0,0.0,0.0,0.0,0.0,0.0,-1.8092,-1.9893,-2.1901,-2.4219,-2.7133,-2.9635,-3.1787,-3.2733,-3.2527,-3.1756,-3.0528,-2.9428,-2.8444,-2.7737,-2.7311,-2.6939,-2.6764,-2.6881,-2.6983,-2.6983,-2.6983,-2.6983,-2.6983,-2.6983,-2.6983,-2.6983,-2.6983,-2.6983,-2.6983,-2.6983,-2.6983,-2.6983,-2.6983,-2.6983,-2.6983,-2.6983,-2.6983,-2.6983,-2.6983,-2.6983,-2.6983,-2.6983,-2.7071,-2.7247,-2.7569,-2.7827,-2.8139,-2.8599,-2.873,-2.8588,-2.8431,-2.8218,-2.8202,-2.7727,-2.7506,-2.7469,-2.7159,-2.6961,-2.7001,-2.6547,-2.676,-2.7268,0.0,0.0,0.0,0.0,0.0,0.0,0.0,0.0,0.0,-0.9746,-0.9804,-0.9862,-0.9902,-0.9941,-1.0176,0.0,0.0,0.0,-1.0891,-1.2562,-1.4738,-1.7264,-1.745,-1.7347,-1.6997,-1.6456,-1.5856,-1.5235,-1.5546,-1.6436,-1.7885,-2.0017,-2.128,-2.1838,-2.2522,-2.2108,-2.0845,-2.0141,-1.9396,-1.8754,-1.9127,-1.9023,-1.8526,-1.7698,-1.7038,-1.6523,-1.5835,-1.5856,-1.6291,-1.6436,0.0,0.0,0.0,0.0,-1.743,-1.9748,-2.1569,-2.3742,-2.8043,-3.0181,-3.1486,-3.3178,-3.2523,-3.1318,-3.041,-2.92,-2.8064,-2.7215,-2.6983,-2.6983,-2.6983,-2.6983,-2.6983,-2.6983,-2.6983,-2.6983,-2.6983,-2.6983,-2.6983,-2.6983,-2.6983,-2.6983,-2.6983,-2.6983,-2.6983,-2.6983,-2.6983,-2.6983,-2.6983,-2.6983,-2.6983,-2.6983,-2.6983,-2.6983,-2.6983,-2.6983,-2.6983,-2.6998,-2.7378,-2.774,-2.7903,-2.8458,-2.8588,-2.8133,-2.8133,-2.7647,-2.7018,-2.7032,-2.6716,-2.6544,-2.6386,-2.6533,-2.672,-2.648,-2.676,-2.7268,0.0,0.0,0.0,0.0,0.0,0.0,0.0,0.0,0.0,0.0,-0.9306,-0.9328,-0.9408,-0.9667,-0.9903,-1.0098,-1.0428,-1.0659,-1.0833,0.0,0.0,-1.5898,-1.6353,-1.6705,-1.6977,-1.5815,-1.5504,-1.6187,-1.5856,-1.6581,-1.8319,-1.981,-2.0969,-2.1797,-2.1507,-2.0845,-1.9831,-1.8195,-1.7368,-1.7265,-1.7388,-1.714,-1.6684,-1.6167,-1.567,-1.5256,-1.5132,-1.538,-1.5898,-1.6684,-1.6894,0.0,0.0,0.0,-1.7059,-1.741,-1.9396,-2.1556,-2.2531,-2.6209,-3.0089,-3.1884,-3.1354,-3.0427,-3.0208,-2.8694,-2.7215,-2.6983,-2.6983,-2.6983,-2.6983,-2.6983,-2.6983,-2.6983,-2.6983,-2.6983,-2.6983,-2.6983,-2.6983,-2.6983,-2.6983,-2.6983,-2.6983,-2.6983,-2.6983,-2.6983,-2.6983,-2.6983,-2.6983,-2.6983,-2.6983,-2.6983,-2.6983,-2.6983,-2.6983,-2.6983,-2.6983,-2.6998,-2.7598,-2.7922,-2.8218,-2.8261,-2.8118,-2.7633,-2.7333,-2.7333,-2.7476,-2.6702,-2.6702,-2.6874,-2.6544,-2.6413,-2.644,-2.64,-2.676,-2.7268,0.0,0.0,0.0,0.0,0.0,0.0,0.0,0.0,0.0,0.0,0.0,-0.8781,-0.8805,-0.9128,-0.9487,-0.9843,-1.0273,-1.0784,-1.147,-1.2559,-1.38,-1.5235,-1.5429,-1.5636,-1.5898,-1.5049,-1.4945,-1.5608,-1.5401,-1.6353,-1.8402,-1.9272,-2.0286,-2.1383,-2.0679,-1.9996,-1.9272,-1.7698,-1.6746,-1.6291,-1.6156,-1.6377,-1.6515,-1.523,-1.5123,-1.5505,-1.4498,-1.4625,-1.5401,-1.6063,-1.6622,-1.6977,-1.6917,0.0,0.0,0.0,-1.8008,-1.9696,-2.2148,-2.6269,-3.0159,-3.1373,-3.0999,-3.0276,-3.0497,-2.8743,-2.6983,-2.6983,-2.6983,-2.6983,-2.6983,-2.6983,-2.6983,-2.6983,-2.6983,-2.6983,-2.6983,-2.6983,-2.6983,-2.6983,-2.6983,-2.6983,-2.6983,-2.6983,-2.6983,-2.6983,-2.6983,-2.6983,-2.6983,-2.6983,-2.6983,-2.6983,-2.6983,-2.6983,-2.6983,-2.6983,-2.7086,-2.7276,-2.743,-2.7573,-2.7707,-2.7577,-2.749,-2.7175,-2.7018,-2.7018,-2.686,-2.6544,-2.6544,-2.6702,-2.6386,-2.6386,-2.6386,-2.6386,-2.6653,-2.7041,0.0,0.0,0.0,0.0,0.0,0.0,0.0,0.0,0.0,0.0,0.0,-0.8209,-0.8209,0.0,0.0,0.0,-0.9981,-1.0646,-1.1653,-1.2078,-1.2827,-1.4163,-1.4256,-1.4307,-1.4533,-1.4254,-1.4357,-1.4955,-1.5058,-1.6275,-1.8503,-1.889,-1.9836,-2.111,-2.0256,-1.9727,-1.9313,-1.7719,-1.6667,-1.6115,-1.5916,-1.6153,-1.6541,-1.5313,-1.5568,-1.624,-1.4506,-1.4518,-1.5439,-1.5675,-1.6259,-1.6857,-1.6797,-1.6797,0.0,0.0,0.0,-1.8046,-2.1621,-2.5324,-2.8372,-2.9751,-2.983,-2.9715,-3.022,-2.8585,-2.6983,-2.6983,-2.6983,-2.6983,-2.6983,-2.6983,-2.6983,-2.6983,-2.6983,-2.6983,-2.6983,-2.6983,-2.6983,-2.6983,-2.6983,-2.6983,-2.6983,-2.6983,-2.6983,-2.6983,-2.6983,-2.6983,-2.6983,-2.6983,-2.6983,-2.6983,-2.6983,-2.6983,-2.6983,-2.6838,-2.7041,-2.7449,-2.7144,-2.7154,-2.7156,-2.6997,-2.6963,-2.6874,-2.6874,-2.6716,-2.6386,-2.6386,-2.6386,-2.6386,-2.6386,-2.6386,-2.6386,-2.6386,-2.6627,-2.6961,0.0,0.0,0.0,0.0,0.0,0.0,0.0,0.0,0.0,0.0,0.0,-0.7753,-0.7753,-0.8167,-0.8578,-0.9024,-0.9509,-1.0079,-1.0643,-1.0682,-1.113,-1.2118,-1.2499,0.0,-1.3395,-1.3423,-1.3879,-1.4829,-1.5205,-1.6553,-1.8777,-1.9041,-1.9897,-2.1125,-2.0585,-2.0369,-2.0203,-1.7925,-1.7143,-1.7368,-1.7016,-1.6541,-1.6129,-1.6945,-1.7229,-1.7125,-1.5716,-1.5794,-1.6517,-1.6038,-1.6214,-1.6598,-1.6598,-1.6598,-1.6576,0.0,0.0,0.0,-1.8976,-2.0903,-2.2967,-2.5525,-2.6924,-2.7944,-2.8622,-2.7885,-2.6983,-2.6983,-2.6983,-2.6983,-2.6983,-2.6983,-2.6983,-2.6983,-2.6983,-2.6983,-2.6983,-2.6983,-2.6983,-2.6983,-2.6983,-2.6983,-2.6983,-2.6983,-2.6983,-2.6983,-2.6983,-2.6983,-2.6983,-2.6983,-2.6983,-2.6983,-2.6983,-2.6983,-2.6983,-2.6692,-2.67,-2.7301,-2.6716,-2.6613,-2.6991,-2.6731,-2.6602,-2.6386,-2.6386,-2.6386,-2.6386,-2.6386,-2.6386,-2.6386,-2.6386,-2.6386,-2.6386,-2.6386,-2.6747,-2.7241,0.0,0.0,0.0,0.0,0.0,0.0,0.0,0.0,0.0,0.0,0.0,0.0,0.0,-0.8126,-0.8455,-0.8618,-0.9088,-0.9588,-1.006,-1.034,-1.0769,-1.1529,-1.1867,-1.2308,-1.2842,-1.2842,-1.3334,-1.4226,-1.4672,-1.5908,-1.7833,-1.8449,-1.9424,-2.0561,-2.0073,-1.9716,-1.9504,-1.7328,-1.6157,-1.5734,-1.598,-1.6375,-1.6766,-1.696,-1.7712,-1.8371,-1.7154,-1.6845,-1.7133,-1.7692,-1.7687,-1.7403,-1.7276,-1.6938,-1.6517,-1.6093,-1.6257,-1.686,-1.7933,-2.0005,-2.2323,-2.4146,-2.5497,-2.6734,-2.7487,-2.7183,-2.6676,-2.6676,-2.6852,-2.6983,-2.6983,-2.6983,-2.6983,-2.6983,-2.6983,-2.6983,-2.6983,-2.6983,-2.6983,-2.6983,-2.6983,-2.6983,-2.6983,-2.6983,-2.6983,-2.6983,-2.6983,-2.6983,-2.6983,-2.6983,-2.6983,-2.6983,-2.6983,-2.6838,-2.6692,-2.6438,-2.6453,-2.6875,-2.646,-2.6391,-2.6744,-2.6324,-2.6168,-2.6119,-2.6306,-2.6386,-2.6386,-2.6386,-2.6386,-2.6386,-2.6386,-2.6386,-2.6386,-2.6386,-2.676,-2.7268,0.0,0.0,0.0,0.0,0.0,0.0,0.0,0.0,-0.7638,-0.7379,0.0,0.0,0.0,0.0,-0.8756,-0.8696,-0.8948,-0.9185,-0.9527,-0.9781,-1.0091,-1.05,-1.1029,-1.1543,-1.2018,-1.222,-1.2827,-1.3851,-1.4292,-1.5335,-1.6959,-1.7636,-1.8514,-1.9616,-1.894,-1.9089,-1.9626,-1.7873,-1.653,-1.5612,-1.6457,-1.6727,-1.6823,-1.7763,-1.8483,-1.8913,-1.8566,-1.8365,-1.8377,-1.9178,-1.9128,-1.8583,-1.8033,-1.6902,-1.5776,-1.5439,-1.57,-1.6233,-1.6756,-1.8613,-2.0793,-2.2571,-2.3668,-2.4665,-2.6414,-2.6324,-2.5988,-2.6369,-2.6764,-2.6983,-2.6983,-2.6983,-2.6983,-2.6983,-2.6983,-2.6983,-2.6983,-2.6983,-2.6983,-2.6983,-2.6983,-2.6983,-2.6983,-2.6983,-2.6983,-2.6983,-2.6983,-2.6983,-2.6983,-2.6983,-2.6983,-2.6983,-2.6838,-2.6692,-2.6399,-2.601,-2.5963,-2.6418,-2.5869,-2.5881,-2.6275,-2.5966,-2.5865,-2.5972,-2.6266,-2.6386,-2.6386,-2.6386,-2.6386,-2.6386,-2.6386,-2.6386,-2.6386,-2.6386,-2.676,-2.7268,0.0,0.0,0.0,0.0,0.0,0.0,0.0,0.0,-0.7741,-0.7741,0.0,0.0,0.0,0.0,0.0,-0.933,-0.903,-0.8856,-0.8977,-0.9001,-0.9001,-0.9041,-0.9825,-1.0478,-1.0919,-1.149,-1.2397,-1.3649,-1.4083,-1.4933,-1.6217,-1.6504,-1.7317,-1.8555,-1.75,-1.8382,-2.0716,-1.9495,-1.8251,-1.7269,-1.8596,-1.7819,-1.6133,-1.9509,-2.0003,-1.9067,-1.991,-2.0297,-2.0292,-2.0591,-2.0474,-1.989,-1.8614,-1.6468,-1.4413,-1.418,-1.4306,-1.4577,0.0,0.0,0.0,-2.0674,-2.1031,-2.1724,-2.5214,-2.5277,-2.4918,-2.6158,-2.6676,-2.691,-2.6983,-2.6983,-2.6983,-2.6983,-2.6983,-2.6983,-2.6983,-2.6983,-2.6983,-2.6983,-2.6983,-2.6983,-2.6983,-2.6983,-2.6983,-2.6983,-2.6983,-2.6983,-2.6983,-2.6983,-2.6983,-2.6998,-2.6546,-2.6399,-2.6414,-2.5534,-2.5404,-2.5691,-2.4945,-2.4943,-2.5504,-2.5504,-2.5678,-2.5959,-2.6266,-2.6386,-2.6386,-2.6386,-2.6386,-2.6386,-2.6386,-2.6386,-2.6386,-2.6386,-2.676,-2.7268,0.0,0.0,0.0,0.0,0.0,-0.7802,-0.7486,-0.8005,-0.8414,0.0,0.0,0.0,-0.9482,-0.9775,-0.9857,-0.9532,-0.9413,-0.9217,-0.8888,-0.8867,-0.8995,-0.9359,-0.9571,-1.0215,-1.1232,-1.1407,-1.1862,-1.2551,-1.2945,-1.3676,-1.4619,-1.5336,-1.6504,-1.7915,-1.7809,-1.7745,-1.7784,-1.6478,-1.6248,-1.6845,-1.7351,-1.7825,-1.8533,-2.095,-2.1832,-2.2023,-2.3059,-2.29,-2.2317,-2.3084,-2.1602,-1.8991,-1.6893,-1.5687,-1.5115,-1.5059,-1.5508,-1.5877,-1.4996,0.0,0.0,0.0,0.0,0.0,-2.197,-2.2014,-2.2276,-2.5169,-2.5158,-2.5037,-2.6691,-2.6983,-2.6983,-2.6983,-2.6983,-2.6983,-2.6983,-2.6983,-2.6983,-2.6983,-2.6983,-2.6983,-2.6983,-2.6983,-2.6983,-2.6983,-2.6983,-2.6983,-2.6983,-2.6983,-2.6838,-2.6546,-2.6239,-2.5912,-2.5852,-2.5405,-2.5254,-2.5536,-2.509,-2.5037,-2.5211,-2.5411,-2.5558,-2.5665,-2.6172,-2.6386,-2.6386,-2.6386,-2.6386,-2.6386,-2.6386,-2.6386,-2.6386,-2.6386,-2.676,-2.7268,0.0,0.0,-0.7643,-0.7895,-0.8236,-0.8475,-0.856,-0.8834,-0.9191,0.0,0.0,0.0,-1.061,-1.0871,-1.0755,-1.0272,-0.9848,-0.9422,-0.9005,-0.8754,-0.8738,-0.8952,-0.9125,-0.9692,-1.0781,-1.0798,-1.1155,-1.1917,-1.2022,-1.2375,-1.2915,-1.3708,-1.474,-1.5955,-1.5775,-1.5832,-1.5936,-1.401,-1.4196,-1.5922,-1.7407,-1.81,-1.8555,-2.1189,-2.2067,-2.2125,-2.3779,-2.3747,-2.3006,-2.4562,-2.2759,-1.9571,-1.715,-1.5774,-1.4914,-1.4252,-1.4713,-1.525,-1.4408,-1.5287,-1.6395,-1.6471,0.0,0.0,-2.0959,-2.1022,-2.1462,-2.5024,-2.513,-2.5052,-2.6515,-2.6676,-2.6632,-2.6764,-2.6793,-2.6837,-2.6969,-2.6983,-2.6983,-2.6983,-2.6983,-2.6983,-2.6983,-2.6983,-2.6983,-2.6983,-2.6983,-2.6983,-2.6983,-2.6983,-2.6838,-2.6399,-2.5946,-2.5736,-2.5499,-2.5039,-2.4983,-2.5144,-2.497,-2.489,-2.4917,-2.5317,-2.5518,-2.5545,-2.6132,-2.6386,-2.6386,-2.6386,-2.6386,-2.6386,-2.6386,-2.6386,-2.64,-2.6533,-2.6867,-2.7281,0.0,0.0,-0.7939,-0.8495,-0.8944,-0.9452,-0.999,-0.9937,-1.0006,0.0,-1.0712,-1.1185,-1.2287,-1.2315,-1.1997,-1.1308,-1.0333,-0.9606,-0.9248,-0.87,-0.8373,-0.8238,-0.8639,-0.9219,-1.0027,-1.0075,-1.058,-1.1553,-1.1268,-1.1201,-1.1438,-1.1967,-1.2677,-1.3349,-1.2714,-1.3296,-1.4538,-1.2304,-1.2615,-1.4977,-1.7975,-1.8449,-1.7706,-2.1101,-2.1715,-2.1072,-2.3413,-2.3662,-2.3164,-2.4979,-2.3658,-2.0972,-1.844,-1.6537,-1.4858,-1.3151,-1.3325,-1.4113,-1.3897,-1.443,-1.5354,-1.6843,-1.6377,0.0,-2.0724,-2.1003,-2.1263,-2.4583,-2.5125,-2.5257,-2.5769,-2.5652,-2.5549,-2.5769,-2.6047,-2.6398,-2.6866,-2.6939,-2.6939,-2.6939,-2.6939,-2.6954,-2.6983,-2.6983,-2.6983,-2.6983,-2.6983,-2.6983,-2.6983,-2.6983,-2.6838,-2.6399,-2.5946,-2.5534,-2.5133,-2.4811,-2.4649,-2.469,-2.4649,-2.4636,-2.4649,-2.5251,-2.5518,-2.5545,-2.6132,-2.6386,-2.6386,-2.6386,-2.6386,-2.6386,-2.6386,-2.6413,-2.6466,-2.6734,-2.7028,-2.7348,-0.6303,-0.688,-0.7485,-0.797,-0.9157,-1.0205,-1.0575,-1.0856,-1.1265,-1.1874,-1.2151,-1.2625,-1.3383,-1.3019,-1.2614,-1.2178,-1.1354,-1.0363,-0.9368,-0.8786,-0.8516,-0.859,-0.8934,-0.9505,-1.0292,-1.0613,-1.0677,-1.0653,-1.0589,-1.0898,-1.1573,-1.1426,-1.1818,-1.2694,-1.2324,-1.2226,-1.2299,-1.2514,-1.3646,-1.539,-1.655,-1.8385,-2.0603,-2.2857,-2.3881,-2.4218,-2.4979,-2.4964,-2.4408,-2.3296,-2.2901,-2.2101,-1.8843,-1.8198,-1.8316,-1.5913,-1.6096,-1.6723,-1.4912,-1.5117,-1.5752,-1.5227,-1.5495,0.0,-1.7658,-1.7203,-1.7336,-2.042,-2.0121,-1.9916,-2.1554,-2.2008,-2.1993,-2.154,-2.3208,-2.5037,-2.6413,-2.6603,-2.6603,-2.6603,-2.6603,-2.6705,-2.6969,-2.6983,-2.6983,-2.6983,-2.6983,-2.6983,-2.6983,-2.6983,-2.6692,-2.5946,-2.58,-2.5631,-2.5147,-2.4756,-2.4756,-2.4997,-2.4756,-2.4636,-2.4649,-2.5251,-2.5518,-2.5545,-2.6132,-2.6386,-2.6386,-2.6386,-2.6386,-2.6386,-2.6386,-2.6533,-2.6747,-2.68,-2.7161,-2.7629,-0.608,-0.6619,-0.7419,-0.8582,-0.9643,-1.0744,-1.1827,-1.2019,-1.2254,-1.2716,-1.3029,-1.3338,-1.3646,-1.3383,-1.2954,-1.2416,-1.1451,-1.0502,-0.9559,-0.8727,-0.8261,-0.8306,-0.8656,-0.9195,-0.9925,-1.0091,-1.0257,-1.0492,-1.0143,-1.0043,-1.0162,-1.0263,-1.1115,-1.2414,-1.1182,-1.1384,-1.2633,-1.1873,-1.2713,-1.4662,-1.6916,-1.9272,-2.1657,-2.3588,-2.4525,-2.4862,-2.5183,-2.5183,-2.4832,-2.3384,-2.2362,-2.1487,-1.9956,-1.9064,-1.8241,-1.6277,-1.6547,-1.6994,-1.482,-1.4834,-1.5374,-1.5064,-1.5219,0.0,0.0,-1.6715,-1.6903,-1.9679,-1.9167,-1.8745,-2.0208,-2.0223,-2.0062,-2.0208,-2.1993,-2.3354,-2.3369,-2.533,-2.6749,-2.6749,-2.6749,-2.6808,-2.6969,-2.6983,-2.7056,-2.7217,-2.7232,-2.7232,-2.7232,-2.7086,-2.6692,-2.58,-2.58,-2.5428,-2.485,-2.4716,-2.4716,-2.4863,-2.4703,-2.4636,-2.4649,-2.5251,-2.5518,-2.5545,-2.6132,-2.6386,-2.6386,-2.6386,-2.6386,-2.6386,-2.6386,-2.656,-2.6841,-2.6987,-2.7321,-2.7722,-0.5826,-0.6391,-0.7341,-0.89,-0.9934,-1.0982,-1.257,-1.2789,-1.2929,-1.3173,-1.3614,-1.3911,-1.3872,-1.3858,-1.3666,-1.3072,-1.1971,-1.0933,-1.0203,-0.9113,-0.8574,-0.8637,-0.8622,-0.9048,-0.9864,-0.9578,-0.9688,-1.0316,-0.979,-0.9307,-0.8882,-0.9321,-1.0384,-1.1778,-1.032,-1.1048,-1.3347,-1.1655,-1.2356,-1.4882,-1.8086,-2.0047,-2.1276,-2.3457,-2.4247,-2.4276,-2.4847,-2.5052,-2.4891,-2.3793,-2.2297,-2.0887,-2.054,-1.9527,-1.7966,-1.6053,-1.6418,-1.6974,-1.4911,-1.4823,-1.535,-1.5482,-1.5423,-1.5657,0.0,0.0,0.0,-1.9199,-1.8833,-1.8335,-1.9008,-1.854,-1.8247,-1.8847,-2.0442,-2.113,-1.9769,-2.3106,-2.5681,-2.5681,-2.6296,-2.6632,-2.6457,-2.6427,-2.672,-2.7274,-2.6925,-2.6867,-2.7303,-2.7012,-2.6399,-2.5653,-2.5653,-2.5359,-2.4636,-2.4636,-2.4636,-2.4636,-2.4636,-2.4636,-2.4649,-2.5251,-2.5518,-2.5545,-2.6132,-2.6386,-2.6386,-2.6386,-2.6386,-2.64,-2.6453,-2.6613,-2.6867,-2.7215,-2.7495,-2.7736,-0.4713,-0.5788,-0.6855,-0.733,-0.923,-1.0924,-1.144,-1.222,-1.2929,-1.3173,-1.4148,-1.4897,-1.5124,-1.515,-1.5204,-1.5364,-1.4394,-1.3131,-1.1817,-1.0907,-1.0684,-1.1362,-0.991,-0.9785,-1.1177,-1.0024,-0.932,-0.9156,-0.9198,-0.9321,-0.9511,-0.9321,-0.9489,-0.9945,-1.0849,-1.1611,-1.2299,-1.3457,-1.5763,-1.8686,-1.9418,-1.9301,-1.9023,-2.2111,-2.3091,-2.3032,-2.4525,-2.5052,-2.4818,-2.303,-2.2552,-2.2224,-1.8992,-1.9722,-2.0812,-1.682,-1.7465,-1.8891,-1.6374,-1.6155,-1.6506,-1.5994,-1.6257,-1.6404,-1.5482,0.0,-1.5935,-1.5657,0.0,-1.5672,-1.5204,0.0,0.0,-1.4384,-1.633,-1.7765,-1.7311,-1.9418,-2.0998,-2.0998,-2.3779,-2.5359,-2.4496,-2.4408,-2.512,-2.6714,-2.5039,-2.4644,-2.6298,-2.6115,-2.5653,-2.5226,-2.5226,-2.5079,-2.4636,-2.4636,-2.4636,-2.4636,-2.4636,-2.4636,-2.4649,-2.5251,-2.5518,-2.5545,-2.6132,-2.6386,-2.6386,-2.6386,-2.6386,-2.6413,-2.668,-2.6787,-2.6894,-2.7442,-2.7669,-2.7569,-0.4832,-0.5479,-0.6334,-0.7189,-0.8799,-1.0325,-1.1267,-1.2609,-1.3398,-1.2953,-1.3939,-1.4883,-1.5351,-1.4937,-1.503,-1.6005,-1.5017,-1.3854,-1.2808,-1.2114,-1.1519,-1.1152,-1.0123,-0.9879,-1.0526,-0.9618,-0.9057,-0.8898,-0.8727,-0.8661,-0.8604,-0.8475,-0.9363,-1.1095,-1.1689,-1.3047,-1.4838,-1.5175,-1.5922,-1.6914,-1.7793,-1.7606,-1.7213,-2.2108,-2.3738,-2.3465,-2.4463,-2.4645,-2.4409,-2.3605,-2.2256,-2.1081,-2.1272,-2.023,-1.8816,-1.7839,-1.7754,-1.7609,-1.5903,-1.6497,-1.7297,-1.6397,-1.6985,-1.7311,-1.5848,-1.5423,-1.5335,-1.5248,0.0,0.0,0.0,0.0,0.0,0.0,-1.5584,-1.6404,-1.5335,-1.7618,-1.9608,-2.0164,-2.1554,-2.2813,-2.372,-2.3793,-2.4684,-2.6686,-2.4982,-2.445,-2.615,-2.6136,-2.5917,-2.5499,-2.5322,-2.5174,-2.489,-2.4716,-2.4636,-2.4636,-2.4636,-2.4636,-2.4649,-2.5251,-2.5518,-2.5545,-2.6132,-2.6386,-2.6386,-2.6386,-2.6386,-2.6413,-2.6707,-2.6934,-2.7108,-2.7348,-2.6887,-2.6029,-0.486,-0.5281,-0.5852,-0.6722,-0.8021,-0.9416,-1.0861,-1.2221,-1.3021,-1.2675,-1.3572,-1.4655,-1.5671,-1.4983,-1.5139,-1.6994,-1.5967,-1.4969,-1.4469,-1.3561,-1.2943,-1.2746,-1.0981,-1.0411,-1.1302,-0.9928,-0.9081,-0.8763,-0.8441,-0.8217,-0.8137,-0.8137,-0.9362,-1.1586,-1.2372,-1.4145,-1.6621,-1.6567,-1.6829,-1.7176,-1.7895,-1.8006,-1.831,-2.2227,-2.3782,-2.3933,-2.4246,-2.4181,-2.3798,-2.3546,-2.2062,-2.0635,-2.2198,-2.069,-1.8448,-1.8919,-1.8679,-1.7918,-1.6383,-1.7063,-1.7882,-1.6494,-1.6915,-1.7203,-1.5864,-1.534,-1.5248,-1.5394,-1.5072,0.0,0.0,0.0,-1.4223,-1.4443,0.0,-1.5379,-1.4033,-1.5862,-1.7633,-1.8423,-1.9067,-2.0252,-2.2345,-2.214,-2.2928,-2.5598,-2.3856,-2.3602,-2.5838,-2.588,-2.5689,-2.5405,-2.5201,-2.5039,-2.4957,-2.4743,-2.4636,-2.4636,-2.4636,-2.4676,-2.477,-2.5277,-2.5558,-2.5665,-2.6172,-2.6386,-2.6386,-2.6386,-2.6386,-2.6413,-2.6613,-2.6558,-2.6496,-2.6574,-2.5842,-2.4782,-0.4353,-0.5085,-0.5563,-0.5409,-0.6623,-0.8213,-0.9744,-1.0393,-1.1131,-1.2206,-1.3088,-1.444,-1.6441,-1.5871,-1.6361,-1.9017,-1.7805,-1.7043,-1.7397,-1.5565,-1.5578,-1.813,-1.3293,-1.1948,-1.4736,-1.1546,-0.9384,-0.8614,-0.8407,-0.8441,-0.8672,-0.8672,-0.9187,-1.0244,-1.2648,-1.461,-1.6095,-1.7633,-1.9828,-2.2159,-2.1296,-2.1992,-2.3504,-2.177,-2.2202,-2.3532,-2.384,-2.377,-2.3378,-2.2226,-2.2074,-2.2005,-2.0145,-2.0727,-2.1866,-2.0205,-2.0901,-2.1672,-1.8972,-1.8471,-1.8324,-1.6211,-1.5658,-1.5462,-1.4789,-1.5271,-1.5804,-1.5496,-1.614,-1.6579,-1.5994,-1.5862,-1.554,-1.4618,-1.4501,0.0,0.0,-1.3594,-1.3799,-1.415,-1.6096,-1.8072,0.0,-1.8452,-1.9074,-2.2702,-2.0898,-2.1286,-2.5012,-2.481,-2.4649,-2.4649,-2.4636,-2.4636,-2.4649,-2.4636,-2.4636,-2.4636,-2.4636,-2.4783,-2.5077,-2.5371,-2.5665,-2.5959,-2.6266,-2.6386,-2.6386,-2.6386,-2.6386,-2.6386,-2.64,-2.5602,-2.4413,-2.4681,-2.4608,-2.3773,-0.4503,-0.5035,-0.5408,-0.5179,-0.6369,-0.7702,-0.8832,-1.0036,-1.0985,-1.1385,-1.2384,-1.3713,-1.5251,-1.4844,-1.5591,-1.8604,-1.7961,-1.7873,-1.8685,-1.7368,-1.7034,-1.813,-1.4589,-1.316,-1.4362,-1.2051,-1.0268,-0.8991,-0.895,-0.895,-0.9045,-0.8842,-0.9342,-1.0554,-1.2916,-1.5107,-1.7144,-1.844,-1.9834,-2.0902,-2.0605,-2.1436,-2.2794,-2.312,-2.3523,-2.3749,-2.4052,-2.3954,-2.3691,-2.3241,-2.2687,-2.216,-2.2324,-2.1545,-2.0699,-2.0859,-2.0726,-2.024,-1.9712,-2.0465,-2.0653,-1.8122,-1.7928,-1.771,-1.5233,-1.5234,-1.5561,-1.5015,-1.5778,-1.6545,-1.6301,-1.5691,-1.5288,-1.5271,-1.464,-1.3993,0.0,-1.3055,-1.2965,0.0,0.0,0.0,0.0,0.0,0.0,0.0,-2.1562,-2.2119,-2.4636,-2.5064,-2.5211,-2.5211,-2.5024,-2.493,-2.493,-2.473,-2.4636,-2.4636,-2.4636,-2.4796,-2.509,-2.5384,-2.5678,-2.5972,-2.6266,-2.6386,-2.6386,-2.6386,-2.6386,-2.6386,-2.6386,-2.5314,-2.3973,-2.4238,-2.2792,-2.0405,-0.4606,-0.4933,-0.5195,-0.527,-0.6333,-0.7476,-0.824,-0.948,-1.06,-1.0988,-1.1952,-1.3138,-1.451,-1.3982,-1.4908,-1.8268,-1.7913,-1.7961,-1.8946,-1.8467,-1.8326,-1.835,-1.6236,-1.5378,-1.6099,-1.3868,-1.2011,-1.0584,-1.002,-0.9713,-0.9699,-0.9406,-0.9793,-1.0795,-1.2746,-1.4977,-1.7368,-1.8771,-2.0067,-2.1162,-2.1162,-2.1773,-2.2821,-2.3873,-2.3694,-2.3065,-2.3795,-2.3843,-2.3634,-2.3728,-2.3327,-2.2913,-2.3688,-2.2819,-2.167,-2.2432,-2.1977,-2.1203,-2.1056,-2.1625,-2.1842,-1.9442,-1.9234,-1.8877,-1.6164,-1.6012,-1.6448,-1.5838,-1.6154,-1.672,-1.7709,-1.633,-1.5262,-1.58,-1.4823,-1.3796,0.0,-1.2684,0.0,0.0,0.0,0.0,0.0,0.0,0.0,0.0,0.0,0.0,0.0,-2.4997,-2.5251,-2.5358,-2.5077,-2.4917,-2.4917,-2.473,-2.4636,-2.4636,-2.4636,-2.4796,-2.509,-2.5384,-2.5678,-2.5972,-2.6266,-2.6386,-2.6386,-2.6386,-2.6386,-2.6386,-2.6386,-2.4933,-2.2854,-2.3028,-2.0958,-1.7835,-0.4674,-0.4734,-0.4976,-0.5533,-0.6523,-0.7407,-0.7943,-0.8771,-0.9807,-1.0815,-1.1649,-1.2635,-1.422,-1.3558,-1.437,-1.8113,-1.7513,-1.7345,-1.8106,-1.888,-1.9218,-1.9175,-1.8194,-1.8233,-1.9786,-1.666,-1.4442,-1.3293,-1.1503,-1.0621,-1.0685,-1.0314,-1.0474,-1.1062,-1.2298,-1.4229,-1.6847,-1.8584,-2.0708,-2.2913,-2.2926,-2.3247,-2.3728,-2.3794,-2.2899,-2.1817,-2.3287,-2.3634,-2.3434,-2.3714,-2.3995,-2.4222,-2.4222,-2.4409,-2.4636,-2.4636,-2.4636,-2.4329,-2.2913,-2.2325,-2.1764,-2.0294,-1.9609,-1.8888,-1.749,-1.7819,-1.8268,-1.7936,-1.7315,-1.751,-1.9929,-1.7622,-1.5595,-1.6313,-1.4993,-1.3557,-1.2656,0.0,0.0,0.0,0.0,0.0,0.0,0.0,0.0,0.0,0.0,0.0,0.0,-2.4543,-2.4676,-2.5064,-2.4796,-2.4623,-2.4609,-2.4609,-2.4609,-2.4609,-2.4623,-2.4796,-2.5117,-2.5384,-2.5678,-2.5999,-2.6266,-2.6386,-2.6386,-2.6386,-2.6386,-2.6386,-2.6386,-2.4123,-2.106,-2.0888,-1.8799,-1.6048,-0.487,-0.5401,-0.6036,-0.652,-0.6935,-0.7447,-0.8122,-0.8755,-0.9559,-1.0623,-1.126,-1.2048,-1.3087,-1.3088,-1.3849,-1.6052,-1.5998,-1.6358,-1.7631,-1.7312,-1.7897,-1.9784,-1.8155,-1.8093,-2.0107,-1.6536,-1.4694,-1.4509,-1.1904,-1.0975,-1.153,-1.1223,-1.1169,-1.1356,-1.2318,-1.4435,-1.7114,-1.8237,-2.0588,-2.3554,-2.3768,-2.3554,-2.3193,-2.4075,-2.3634,-2.2686,-2.3955,-2.4369,-2.4315,-2.4382,-2.4462,-2.4529,-2.4529,-2.4569,-2.4636,-2.4636,-2.4636,-2.4556,-2.4168,-2.4008,-2.3607,-2.2111,-2.1309,-2.0617,-1.9139,-1.9246,-1.9577,-1.9056,-1.9439,-1.9631,-1.8974,-1.7673,-1.6347,-1.5438,-1.3952,0.0,0.0,0.0,0.0,-1.3033,0.0,0.0,0.0,0.0,0.0,0.0,0.0,0.0,-2.4155,-2.3273,-2.3407,-2.5024,-2.4796,-2.4529,-2.4315,-2.4315,-2.4315,-2.4315,-2.4529,-2.4903,-2.5411,-2.5478,-2.5798,-2.6279,-2.636,-2.6386,-2.6386,-2.6386,-2.6386,-2.6228,-2.4945,-2.235,-1.9115,-1.7828,-1.6689,-1.6048,-0.5406,-0.6096,-0.6734,-0.6914,-0.7507,-0.8169,-0.8926,-0.9315,-0.9892,-1.0802,-1.1468,-1.2012,-1.2434,-1.2921,-1.379,-1.5245,-1.5475,-1.5779,-1.6186,-1.7456,-1.8381,-1.8904,-1.8758,-1.9497,-2.1376,-1.8071,-1.6181,-1.6112,-1.3395,-1.1887,-1.1531,-1.1134,-1.0942,-1.0912,-1.2197,-1.4045,-1.6166,-1.8597,-2.0855,-2.2873,-2.3688,-2.3781,0.0,-2.4195,-2.4115,-2.3728,-2.4396,-2.4636,-2.4636,-2.4636,-2.4636,-2.4636,-2.4636,-2.4636,-2.4636,-2.4636,-2.4636,-2.4636,-2.4636,-2.4636,-2.4436,-2.3594,-2.314,-2.2512,-2.1042,-2.0949,-2.1042,-2.0794,-2.0605,-2.0578,-2.0835,-1.8537,-1.59,-1.409,-1.2974,0.0,0.0,0.0,0.0,0.0,-1.3192,0.0,0.0,0.0,0.0,0.0,0.0,0.0,0.0,-2.2485,-2.3073,-2.5024,-2.4543,-2.4182,-2.4022,-2.4022,-2.4075,-2.4209,-2.4502,-2.4877,-2.5331,-2.5451,-2.5772,-2.6213,-2.6333,-2.6386,-2.6386,-2.6386,-2.5911,-2.4933,-2.251,-2.0403,-1.8463,-1.6689,-1.6048,-1.6048,-0.6057,-0.6728,-0.719,-0.7202,-0.8153,-0.9116,-0.9975,-1.0257,-1.0615,-1.1281,-1.1971,-1.2361,-1.2223,-1.2921,-1.3959,-1.5064,-1.5496,-1.5301,-1.4577,-1.7809,-1.8982,-1.7195,-1.9038,-2.0768,-2.2297,-1.9536,-1.7827,-1.7212,-1.4829,-1.2687,-1.0849,-1.0455,-1.0158,-1.0089,-1.17,-1.3316,-1.5127,-1.9193,-2.1314,-2.2017,-2.3354,-2.4035,-2.4262,-2.4262,-2.4422,-2.4636,-2.4636,-2.4636,-2.4636,-2.4636,-2.4636,-2.4636,-2.4636,-2.4636,-2.4636,-2.4636,-2.4636,-2.4636,-2.4636,-2.4636,-2.4636,-2.4636,-2.4636,-2.4302,-2.3006,-2.2712,-2.2712,-2.2712,-2.1496,-2.1149,-2.3487,-1.9679,-1.5431,-1.3133,-1.2492,0.0,0.0,0.0,0.0,0.0,0.0,0.0,0.0,0.0,0.0,0.0,0.0,0.0,0.0,0.0,-2.2806,-2.4903,-2.4222,-2.3768,-2.3661,-2.3768,-2.3915,-2.4088,-2.4462,-2.481,-2.5144,-2.5398,-2.5692,-2.6026,-2.6279,-2.6386,-2.6386,-2.6228,-2.4933,-2.2843,-1.9755,-1.8463,-1.8146,-1.6525,-1.6048,-1.6048,-0.6369,-0.6963,-0.7334,-0.7453,-0.8115,-0.9249,-1.063,-1.102,-1.128,-1.206,-1.2605,-1.3003,-1.3124,-1.3409,-1.3792,-1.4073,-1.4257,-1.4223,-1.4089,-1.4647,-1.5388,-1.6221,-1.6637,-1.7549,-1.9217,-1.781,-1.6425,-1.5085,-1.3385,-1.1569,-0.9667,-0.9578,-0.9433,-0.9208,-1.016,-1.2901,-1.6959,-1.9296,-2.1667,-2.3781,-2.4289,-2.4516,-2.4556,-2.4556,-2.4596,-2.4636,-2.4636,-2.4636,-2.4636,-2.4636,-2.4636,-2.4636,-2.4636,-2.4636,-2.4636,-2.4636,-2.4636,-2.4636,-2.4636,-2.4636,-2.4636,-2.4636,-2.4636,-2.4569,-2.4302,-2.4249,-2.4249,-2.4249,-2.4008,-2.35,-2.2552,-1.9987,-1.7408,-1.5511,0.0,0.0,0.0,0.0,0.0,0.0,0.0,0.0,0.0,0.0,0.0,0.0,0.0,0.0,0.0,0.0,-2.0521,-2.4235,-2.4209,-2.3768,-2.3033,-2.3754,-2.3915,-2.3487,-2.4262,-2.4917,-2.5438,-2.5491,-2.5798,-2.6319,-2.6373,-2.6386,-2.6228,-2.4786,-2.235,-1.943,-1.8789,-1.7656,-1.6369,-1.6048,-1.6048,-1.6048,-0.7027,-0.7353,-0.7651,-0.8007,-0.8675,-0.9525,-1.0822,-1.1494,-1.2049,-1.2467,-1.28,-1.2994,-1.3084,-1.3506,-1.3815,-1.3896,-1.3904,-1.3904,-1.3904,-1.4608,-1.531,-1.6009,-1.6254,-1.7014,-1.8573,-1.7337,-1.6043,-1.4492,-1.3254,-1.1368,-0.8867,-0.8836,-0.8653,-0.8533,-1.0345,-1.2609,-1.5079,-1.7759,-1.9935,-2.1862,-2.2873,-2.3883,-2.4636,-2.4636,-2.4636,-2.4636,-2.4636,-2.4636,-2.4636,-2.4636,-2.4636,-2.4636,-2.4636,-2.4636,-2.4636,-2.4636,-2.4636,-2.4636,-2.4636,-2.4636,-2.4636,-2.4636,-2.4636,-2.4636,-2.4636,-2.4636,-2.4636,-2.4636,-2.4636,-2.4048,-2.2124,-2.0094,-1.8437,0.0,0.0,0.0,0.0,0.0,0.0,0.0,0.0,0.0,0.0,0.0,0.0,0.0,0.0,0.0,0.0,0.0,-2.0174,0.0,-2.3981,-2.3541,-2.3113,-2.3688,-2.3834,-2.3567,-2.4449,-2.509,-2.5518,-2.5678,-2.5972,-2.6386,-2.6386,-2.6386,-2.6228,-2.3484,-2.0888,-1.8463,-1.7656,-1.6689,-1.6048,-1.6048,-1.6048,-1.6048,-0.7794,-0.7977,-0.8228,-0.8648,-0.9293,-1.0012,-1.0806,-1.176,-1.2666,-1.2847,-1.2925,-1.3059,-1.3059,-1.3563,-1.3904,-1.3904,-1.3937,-1.3961,-1.3961,-1.5131,-1.5721,-1.5721,-1.5867,-1.6519,-1.7816,-1.7127,-1.5875,-1.4114,-1.3226,-1.1365,-0.8462,-0.8134,-0.8116,-0.8367,-1.0692,-1.2384,-1.3521,-1.6059,-1.8161,-1.976,-2.157,-2.298,-2.4179,-2.4488,-2.4636,-2.4636,-2.4636,-2.4636,-2.4636,-2.4636,-2.4636,-2.4636,-2.4636,-2.4636,-2.4636,-2.4636,-2.4636,-2.4488,-2.4179,-2.4341,-2.4488,-2.3735,-2.4031,-2.4488,-2.4179,-2.4341,-2.4636,-2.4636,-2.4636,-2.4022,-2.2017,-2.0775,-1.9681,-1.881,0.0,0.0,0.0,0.0,0.0,0.0,0.0,0.0,0.0,0.0,0.0,0.0,0.0,0.0,-2.0695,0.0,0.0,0.0,-2.3434,-2.2979,-2.2859,-2.3527,-2.3834,-2.3781,-2.4663,-2.5237,-2.5518,-2.5825,-2.6119,-2.6386,-2.6386,-2.5898,-2.5092,-2.1856,-1.9592,-1.7983,-1.6534,-1.6048,-1.6048,-1.6048,-1.6048,-1.6048,-0.8526,-0.8832,-0.913,-0.9449,-0.9897,-1.0452,-1.1155,-1.1905,-1.2692,-1.3216,-1.3515,-1.3798,-1.3798,-1.3863,-1.3904,-1.3904,-1.4058,-1.4156,-1.4156,-1.4441,-1.4523,-1.4523,-1.4539,-1.4695,-1.4843,-1.603,-1.5539,-1.2913,-1.2943,-1.1512,-0.8738,-0.7737,-0.7967,-0.9349,-1.0012,-1.223,-1.5274,-1.5759,-1.747,-1.9927,-2.1566,-2.2223,-2.2521,-2.4031,-2.4636,-2.4636,-2.4636,-2.4636,-2.4636,-2.4636,-2.4636,-2.4636,-2.4636,-2.4636,-2.4636,-2.4636,-2.4636,-2.4327,-2.2831,-2.3426,-2.3883,-2.1014,-2.2372,-2.4179,-2.2831,-2.3574,-2.4636,-2.4636,-2.4636,-2.4088,-2.2271,-2.2913,-2.2374,-1.8478,-1.9376,0.0,0.0,0.0,-2.012,-2.1176,0.0,0.0,0.0,-1.4242,0.0,0.0,0.0,0.0,0.0,0.0,0.0,-2.2552,-2.2285,-2.1857,-2.1323,-2.3207,-2.4035,-2.3781,-2.4663,-2.5237,-2.5518,-2.5825,-2.6119,-2.6386,-2.6386,-2.4614,-2.1545,-1.9592,-1.7819,-1.6205,-1.6048,-1.6048,-1.6048,-1.6048,-1.6048,-1.6048,-0.9429,-0.9469,-0.9605,-1.0175,-1.0351,-1.0568,-1.1323,-1.1916,-1.2543,-1.2888,-1.3468,-1.3904,-1.3904,-1.4002,-1.4066,-1.4066,-1.4229,-1.4326,-1.4326,-1.4391,-1.4432,-1.4432,-1.4538,-1.4594,-1.4594,-1.5002,-1.4471,-1.2602,-1.201,-1.0741,-0.8909,-0.8665,-0.9153,-1.0371,-1.1443,-1.2733,-1.4074,-1.4962,-1.6499,-1.8461,-2.0113,-2.1314,-2.2372,-2.4031,-2.4636,-2.4636,-2.4636,-2.4636,-2.4636,-2.4636,-2.4636,-2.4636,-2.4636,-2.4636,-2.4341,-2.3426,-2.3129,-2.2819,-2.1164,-2.1014,-2.1153,-2.0113,-2.0564,-2.1302,-2.0864,-2.1314,-2.1775,-2.1775,-2.1775,-2.1733,-2.2107,-2.1772,-2.1495,-2.1854,-2.1819,-2.1792,0.0,0.0,0.0,-2.2355,0.0,0.0,0.0,0.0,0.0,0.0,0.0,0.0,0.0,0.0,0.0,-2.0775,-2.2285,-2.2686,-2.1897,-2.3434,-2.4142,-2.4035,-2.4917,-2.5398,-2.5531,-2.5999,-2.6279,-2.6386,-2.5263,-2.3484,-2.106,-1.9277,-1.7492,-1.6048,-1.6048,-1.6048,-1.6048,-1.6048,-1.6048,-1.6048,-1.0283,-1.0243,-1.0344,-1.1002,-1.1023,-1.1097,-1.1525,-1.1969,-1.2474,-1.2757,-1.3336,-1.3754,-1.3985,-1.4148,-1.4253,-1.4253,-1.4416,-1.4513,-1.4513,-1.4562,-1.4586,-1.4586,-1.4565,-1.4637,-1.4637,-1.4298,-1.3798,-1.2818,-1.1751,-1.0688,-0.9874,-0.9934,-1.053,-1.1599,-1.2783,-1.3401,-1.3701,-1.4586,-1.5727,-1.6797,-1.8461,-2.0113,-2.1613,-2.3277,-2.4179,-2.4636,-2.4636,-2.4636,-2.4636,-2.4636,-2.4636,-2.4488,-2.4031,-2.3883,-2.3574,-2.1763,-2.1314,-2.1014,-1.9197,-1.8895,-1.8885,-1.8138,-1.8592,-1.9036,-1.8744,-1.9046,-1.9499,-1.9499,-1.9499,-1.9801,-2.0853,-2.0135,-1.9866,-2.1293,-2.1346,-2.0907,-1.9934,-2.1733,0.0,-2.1606,-2.1732,-2.1718,-2.1623,-1.8313,0.0,0.0,0.0,0.0,0.0,0.0,0.0,0.0,-2.2138,-2.2766,-2.2298,-2.3474,-2.4155,-2.4342,-2.513,-2.5518,-2.5531,-2.6119,-2.607,-2.5581,-2.3804,-2.2028,-2.0241,-1.8626,-1.7173,-1.6048,-1.6048,-1.6048,-1.6048,-1.6048,-1.6048,-1.6048,-1.1036,-1.1267,-1.1511,-1.1965,-1.2047,-1.2047,-1.2054,-1.2352,-1.265,-1.265,-1.2947,-1.3481,-1.4051,-1.4326,-1.4432,-1.4432,-1.4594,-1.4708,-1.4708,-1.4862,-1.496,-1.496,-1.4661,-1.4361,-1.4361,-1.3898,-1.3737,-1.3722,-1.2433,-1.1865,-1.1836,-1.1283,-1.168,-1.2795,-1.3408,-1.4123,-1.4944,-1.496,-1.4968,-1.5122,-1.6797,-1.8461,-1.9962,-2.1625,-2.3277,-2.4636,-2.4636,-2.4636,-2.4636,-2.4636,-2.4636,-2.4327,-2.2682,-2.2223,-2.1763,-1.9801,-1.9187,-1.8734,-1.677,-1.7369,-1.7815,-1.4653,-1.616,-1.8118,-1.6617,-1.7521,-1.8572,-1.8572,-1.8572,-1.8572,-1.8572,-1.8562,-1.7752,-1.4919,-1.6845,-1.7653,-1.4618,-1.5621,0.0,-1.8634,-1.5434,-1.4889,-1.9334,-1.539,0.0,0.0,0.0,0.0,0.0,0.0,0.0,-2.2311,-2.1577,-2.1416,-2.1991,-2.318,-2.4062,-2.4636,-2.5237,-2.5518,-2.5531,-2.6119,-2.5422,-2.3656,-2.2028,-2.0241,-1.8463,-1.6689,-1.6048,-1.6048,-1.6048,-1.6048,-1.6048,-1.6048,-1.6048,-1.6048,-1.1701,-1.1816,-1.1891,-1.204,-1.206,-1.206,-1.206,-1.221,-1.2359,-1.2508,-1.2899,-1.3244,-1.3641,-1.3829,-1.386,-1.386,-1.387,-1.3969,-1.3969,-1.4014,-1.4045,-1.4045,-1.4053,-1.3898,-1.3898,-1.3583,-1.3274,-1.3274,-1.213,-1.1783,-1.2042,-1.2037,-1.2711,-1.3878,-1.4082,-1.4406,-1.4968,-1.4968,-1.4968,-1.5113,-1.6797,-1.7702,-1.8309,-1.9962,-2.0864,-2.1314,-2.1314,-2.1314,-2.1314,-2.1314,-2.1164,-2.0703,-1.9046,-1.9951,-2.1153,-1.8128,-1.7227,-1.677,-1.4952,-1.4645,-1.4637,-1.3891,-1.4345,-1.479,-1.4499,-1.4952,-1.525,-1.525,-1.525,-1.5557,-1.677,-1.6913,-1.702,-1.6846,-1.7981,-1.8039,-1.5478,-1.7102,-1.8101,-1.7175,-1.7228,-1.8025,-1.9517,-1.6594,0.0,0.0,0.0,0.0,0.0,0.0,0.0,0.0,-2.2311,-2.302,-2.2592,-2.3567,-2.4262,-2.4649,-2.5237,-2.5718,-2.6119,-2.5028,-2.4295,-2.3656,-2.0727,-1.9105,-1.8463,-1.6689,-1.6048,-1.6048,-1.6048,-1.6048,-1.6048,-1.6048,-1.6048,-1.6048,-1.2108,-1.2189,-1.223,-1.223,-1.223,-1.223,-1.223,-1.223,-1.2374,-1.2526,-1.2609,-1.2817,-1.3123,-1.3123,-1.3275,-1.358,-1.3685,-1.3744,-1.3744,-1.3744,-1.3744,-1.3744,-1.3583,-1.3428,-1.3428,-1.312,-1.2811,-1.2811,-1.2241,-1.1956,-1.2244,-1.2489,-1.3103,-1.3898,-1.4053,-1.4361,-1.4814,-1.4814,-1.4814,-1.5122,-1.6033,-1.6797,-1.7559,-1.8461,-1.9208,-1.9811,-1.9811,-1.9811,-1.9811,-1.9661,-1.9348,-1.8885,-1.6922,-1.7673,-1.8723,-1.5854,-1.5097,-1.4798,-1.3583,-1.312,-1.2965,-1.312,-1.312,-1.2965,-1.312,-1.3274,-1.3274,-1.3274,-1.3274,-1.3583,-1.4637,-1.479,-1.5056,-1.5841,-1.6321,-1.6068,-1.4573,-1.5846,-1.6283,-1.4821,-1.6104,-1.7006,0.0,-1.5971,-1.5327,0.0,0.0,0.0,0.0,0.0,-1.982,-2.0502,-2.2849,-2.3821,-2.3367,-2.3928,-2.4409,-2.481,-2.4775,-2.4971,-2.5422,-2.3644,-2.251,-2.1706,-1.9602,-1.83,-1.7501,-1.6534,-1.6048,-1.6048,-1.6048,-1.6048,-1.6048,-1.6048,-1.6048,-1.6048,-1.2305,-1.2413,-1.2501,-1.2501,-1.2501,-1.2501,-1.2501,-1.2501,-1.2501,-1.2501,-1.2501,-1.2501,-1.2501,-1.2501,-1.2811,-1.3583,-1.3583,-1.3583,-1.3583,-1.3583,-1.3583,-1.3583,-1.3274,-1.312,-1.312,-1.2656,-1.2501,-1.2501,-1.2501,-1.2501,-1.2501,-1.2811,-1.312,-1.312,-1.3428,-1.3898,-1.4368,-1.4368,-1.4669,-1.4968,-1.4968,-1.588,-1.7255,-1.7255,-1.8158,-1.951,-1.951,-1.951,-1.9359,-1.9046,-1.8895,-1.8431,-1.5998,-1.5234,-1.4935,-1.3575,-1.312,-1.2965,-1.2656,-1.2501,-1.2501,-1.2501,-1.2501,-1.2501,-1.2501,-1.2501,-1.2501,-1.2501,-1.2501,-1.2501,-1.2501,-1.2501,-1.2501,-1.2501,-1.2501,-1.2454,-1.2311,-1.2535,-1.2546,-1.2315,-1.2566,-1.2904,-1.3181,-1.3742,-1.4063,0.0,0.0,0.0,0.0,-1.7293,-1.8836,-2.1618,-2.2947,-2.3811,-2.4077,-2.4249,-2.4556,-2.4993,-2.3953,-2.3538,-2.3484,-2.1867,-2.0079,-1.8626,-1.8463,-1.7501,-1.6048,-1.6048,-1.6048,-1.6048,-1.6048,-1.6048,-1.6048,-1.6048,-1.6048,-1.6048,-1.2454,-1.2481,-1.2501,-1.2501,-1.2501,-1.2501,-1.2501,-1.2501,-1.2501,-1.2501,-1.2501,-1.2501,-1.2501,-1.2501,-1.2656,-1.2811,-1.2811,-1.2811,-1.2811,-1.2811,-1.2811,-1.2811,-1.2656,-1.2656,-1.2656,-1.2501,-1.2501,-1.2501,-1.2501,-1.2501,-1.2501,-1.2656,-1.2811,-1.312,-1.3274,-1.3428,-1.3898,-1.4207,-1.4515,-1.4515,-1.4814,-1.5267,-1.5573,-1.5573,-1.5727,-1.6177,-1.6177,-1.6177,-1.6024,-1.5727,-1.5267,-1.4798,-1.3883,-1.3421,-1.3112,-1.2811,-1.2656,-1.2656,-1.2501,-1.2501,-1.2501,-1.2501,-1.2501,-1.2501,-1.2501,-1.2501,-1.2501,-1.2501,-1.2501,-1.2501,-1.2501,-1.2501,-1.2501,-1.2501,-1.2501,-1.2454,-1.2311,-1.244,-1.2546,-1.2261,-1.2671,-1.3086,-1.3086,-1.3537,-1.3583,-1.3099,-1.3802,-1.4198,-1.3916,-1.5672,-1.7778,-2.0142,-2.1769,-2.267,-2.2732,-2.4149,-2.454,-2.3847,-2.349,-2.2894,-2.1706,-2.0079,-1.8942,-1.8463,-1.7173,-1.6369,-1.6048,-1.6048,-1.6048,-1.6048,-1.6048,-1.6048,-1.6048,-1.6048,-1.6048,-1.6048,-1.2501,-1.2501,-1.2501,-1.2501,-1.2501,-1.2501,-1.2501,-1.2501,-1.2501,-1.2501,-1.2501,-1.2501,-1.2501,-1.2501,-1.2501,-1.2501,-1.2501,-1.2501,-1.2501,-1.2501,-1.2501,-1.2501,-1.2501,-1.2501,-1.2501,-1.2501,-1.2501,-1.2501,-1.2501,-1.2501,-1.2501,-1.2501,-1.2656,-1.2811,-1.2811,-1.312,-1.3428,-1.3744,-1.4053,-1.4361,-1.4669,-1.4814,-1.4968,-1.4968,-1.4968,-1.4968,-1.4814,-1.4669,-1.4669,-1.4053,-1.359,-1.3428,-1.2965,-1.2656,-1.2501,-1.2501,-1.2501,-1.2501,-1.2501,-1.2501,-1.2501,-1.2501,-1.2501,-1.2501,-1.2501,-1.2501,-1.2501,-1.2501,-1.2501,-1.2501,-1.2501,-1.2501,-1.2501,-1.2501,-1.2447,-1.2379,-1.2298,-1.2359,-1.2379,-1.2298,-1.2567,-1.2811,-1.2811,-1.312,-1.3181,-1.2857,-1.3275,-1.3696,-1.3547,-1.4813,-1.6489,-1.8431,-2.0208,-2.1164,-2.1164,-2.2293,-2.2627,-2.2107,-2.1545,-2.0761,-1.9917,-1.8146,-1.7337,-1.7337,-1.6369,-1.6048,-1.6048,-1.6048,-1.6048,-1.6048,-1.6048,-1.6048,-1.6048,-1.6048,-1.6048,-1.6048,-1.2501,-1.2501,-1.2501,-1.2501,-1.2501,-1.2501,-1.2501,-1.2501,-1.2501,-1.2501,-1.2501,-1.2501,-1.2501,-1.2501,-1.2501,-1.2501,-1.2501,-1.2501,-1.2501,-1.2501,-1.2501,-1.2501,-1.2501,-1.2501,-1.2501,-1.2501,-1.2501,-1.2501,-1.2501,-1.2501,-1.2501,-1.2501,-1.2501,-1.2501,-1.2501,-1.2656,-1.2965,-1.312,-1.359,-1.4207,-1.4368,-1.4669,-1.4968,-1.4968,-1.4968,-1.4814,-1.4515,-1.4368,-1.4207,-1.3436,-1.312,-1.2965,-1.2656,-1.2501,-1.2501,-1.2501,-1.2501,-1.2501,-1.2501,-1.2501,-1.2501,-1.2501,-1.2501,-1.2501,-1.2501,-1.2501,-1.2501,-1.2501,-1.2501,-1.2501,-1.2501,-1.2501,-1.2467,-1.2352,-1.2311,-1.225,-1.2135,-1.2216,-1.2291,-1.2291,-1.2413,-1.2501,-1.2501,-1.2811,-1.2965,-1.312,-1.361,-1.4037,-1.4322,-1.4517,-1.5177,-1.6637,-1.8491,-1.9542,-1.9919,-2.0307,-2.0377,-2.0137,-1.9091,-1.8463,-1.8146,-1.6689,-1.6048,-1.6048,-1.6048,-1.6048,-1.6048,-1.6048,-1.6048,-1.6048,-1.6048,-1.6048,-1.6048,-1.6048,-1.6048,-1.6048,-1.2501,-1.2501,-1.2501,-1.2501,-1.2501,-1.2501,-1.2501,-1.2501,-1.2501,-1.2501,-1.2501,-1.2501,-1.2501,-1.2501,-1.2501,-1.2501,-1.2501,-1.2501,-1.2501,-1.2501,-1.2501,-1.2501,-1.2501,-1.2501,-1.2501,-1.2501,-1.2501,-1.2501,-1.2501,-1.2501,-1.2501,-1.2501,-1.2501,-1.2501,-1.2501,-1.2501,-1.2656,-1.2965,-1.312,-1.3436,-1.4053,-1.4368,-1.4515,-1.4814,-1.4814,-1.4515,-1.4361,-1.4207,-1.3744,-1.3274,-1.312,-1.2965,-1.2656,-1.2501,-1.2501,-1.2501,-1.2501,-1.2501,-1.2501,-1.2501,-1.2501,-1.2501,-1.2501,-1.2501,-1.2501,-1.2501,-1.2501,-1.2501,-1.2501,-1.2501,-1.2501,-1.2501,-1.2298,-1.1667,-1.1972,-1.2067,-1.143,-1.1884,-1.2291,-1.2291,-1.2413,-1.2501,-1.2501,-1.2501,-1.2656,-1.312,-1.3252,-1.3341,-1.3687,-1.3793,-1.4099,-1.4549,-1.6688,-1.8632,-2.0393,-2.0468,-1.9916,-1.8846,-1.8751,-1.7819,-1.6369,-1.604,-1.6048,-1.6048,-1.6048,-1.6048,-1.6048,-1.6048,-1.6048,-1.6048,-1.6048,-1.6048,-1.6048,-1.6048,-1.6048,-1.6048,-1.2501,-1.2501,-1.2501,-1.2501,-1.2501,-1.2501,-1.2501,-1.2501,-1.2501,-1.2501,-1.2501,-1.2501,-1.2501,-1.2501,-1.2501,-1.2501,-1.2501,-1.2501,-1.2501,-1.2501,-1.2501,-1.2501,-1.2501,-1.2501,-1.2501,-1.2501,-1.2501,-1.2501,-1.2501,-1.2501,-1.2501,-1.2501,-1.2501,-1.2501,-1.2501,-1.2501,-1.2501,-1.2656,-1.2965,-1.312,-1.359,-1.3898,-1.4053,-1.4199,-1.4199,-1.4053,-1.3744,-1.359,-1.3274,-1.2965,-1.2811,-1.2811,-1.2501,-1.2501,-1.2501,-1.2501,-1.2501,-1.2501,-1.2501,-1.2501,-1.2501,-1.2501,-1.2501,-1.2501,-1.2501,-1.2501,-1.2501,-1.2501,-1.2501,-1.2501,-1.2501,-1.2501,-1.2366,-1.1945,-1.2108,-1.2142,-1.1708,-1.202,-1.2291,-1.2291,-1.2413,-1.2501,-1.2501,-1.2501,-1.2656,-1.2811,-1.2965,-1.3091,-1.3319,-1.3546,-1.3707,-1.3938,-1.5378,-1.6626,-1.7686,-1.7798,-1.7536,-1.7016,-1.7121,-1.6854,-1.6048,-1.6048,-1.6048,-1.6048,-1.6048,-1.6048,-1.6048,-1.6048,-1.6048,-1.6048,-1.6048,-1.6048,-1.6048,-1.6048,-1.6048,-1.6048,-1.2501,-1.2501,-1.2501,-1.2501,-1.2501,-1.2501,-1.2501,-1.2501,-1.2501,-1.2501,-1.2501,-1.2501,-1.2501,-1.2501,-1.2501,-1.2501,-1.2501,-1.2501,-1.2501,-1.2501,-1.2501,-1.2501,-1.2501,-1.2501,-1.2501,-1.2501,-1.2501,-1.2501,-1.2501,-1.2501,-1.2501,-1.2501,-1.2501,-1.2501,-1.2501,-1.2501,-1.2501,-1.2501,-1.2656,-1.2965,-1.312,-1.3274,-1.3583,-1.359,-1.359,-1.3583,-1.3274,-1.2965,-1.2965,-1.2656,-1.2501,-1.2501,-1.2501,-1.2501,-1.2501,-1.2501,-1.2501,-1.2501,-1.2501,-1.2501,-1.2501,-1.2501,-1.2501,-1.2501,-1.2501,-1.2501,-1.2501,-1.2501,-1.2501,-1.2501,-1.2501,-1.2501,-1.2413,-1.2128,-1.2196,-1.2203,-1.1945,-1.2128,-1.2305,-1.2338,-1.2433,-1.2501,-1.2501,-1.2501,-1.2501,-1.2501,-1.2811,-1.2965,-1.2965,-1.3274,-1.3583,-1.3744,-1.4507,-1.4919,-1.5301,-1.5447,-1.5626,-1.5837,-1.5975,-1.6048,-1.6048,-1.6048,-1.6048,-1.6048,-1.6048,-1.6048,-1.6048,-1.6048,-1.6048,-1.6048,-1.6048,-1.6048,-1.6048,-1.6048,-1.6048,-1.6048,-1.2501,-1.2501,-1.2501,-1.2501,-1.2501,-1.2501,-1.2501,-1.2501,-1.2501,-1.2501,-1.2501,-1.2501,-1.2501,-1.2501,-1.2501,-1.2501,-1.2501,-1.2501,-1.2501,-1.2501,-1.2501,-1.2501,-1.2501,-1.2501,-1.2501,-1.2501,-1.2501,-1.2501,-1.2501,-1.2501,-1.2501,-1.2501,-1.2501,-1.2501,-1.2501,-1.2501,-1.2501,-1.2501,-1.2501,-1.2656,-1.2965,-1.312,-1.312,-1.3583,-1.3428,-1.312,-1.312,-1.2811,-1.2501,-1.2501,-1.2501,-1.2501,-1.2501,-1.2501,-1.2501,-1.2501,-1.2501,-1.2501,-1.2501,-1.2501,-1.2501,-1.2501,-1.2501,-1.2501,-1.2501,-1.2501,-1.2501,-1.2501,-1.2501,-1.2501,-1.2501,-1.2501,-1.2271,-1.1572,-1.1925,-1.2094,-1.1518,-1.1932,-1.2338,-1.2467,-1.2494,-1.2501,-1.2501,-1.2501,-1.2501,-1.2501,-1.2501,-1.2501,-1.2501,-1.2501,-1.2965,-1.3737,-1.4207,-1.4836,-1.5496,-1.5512,-1.5691,-1.6024,-1.604,-1.6048,-1.6048,-1.6048,-1.6048,-1.6048,-1.6048,-1.6048,-1.6048,-1.6048,-1.6048,-1.6048,-1.6048,-1.6048,-1.6048,-1.6048,-1.6048,-1.6048,-1.2501,-1.2501,-1.2501,-1.2501,-1.2501,-1.2501,-1.2501,-1.2501,-1.2501,-1.2501,-1.2501,-1.2501,-1.2501,-1.2501,-1.2501,-1.2501,-1.2501,-1.2501,-1.2501,-1.2501,-1.2501,-1.2501,-1.2501,-1.2501,-1.2501,-1.2501,-1.2501,-1.2501,-1.2501,-1.2501,-1.2501,-1.2501,-1.2501,-1.2501,-1.2501,-1.2501,-1.2501,-1.2501,-1.2501,-1.2501,-1.2656,-1.2656,-1.2811,-1.2965,-1.2811,-1.2656,-1.2656,-1.2656,-1.2501,-1.2501,-1.2501,-1.2501,-1.2501,-1.2501,-1.2501,-1.2501,-1.2501,-1.2501,-1.2501,-1.2501,-1.2501,-1.2501,-1.2501,-1.2501,-1.2501,-1.2501,-1.2501,-1.2501,-1.2501,-1.2501,-1.2501,-1.2501,-1.2379,-1.2006,-1.2216,-1.2311,-1.1993,-1.2223,-1.244,-1.2494,-1.2501,-1.2501,-1.2501,-1.2501,-1.2501,-1.2501,-1.2501,-1.2501,-1.2501,-1.2501,-1.2894,-1.3562,-1.3945,-1.4633,-1.5512,-1.5618,-1.5804,-1.6048,-1.6048,-1.6048,-1.6048,-1.6048,-1.6048,-1.6048,-1.6048,-1.6048,-1.6048,-1.6048,-1.6048,-1.6048,-1.6048,-1.6048,-1.6048,-1.6048,-1.6048,-1.6048,-1.2501,-1.2501,-1.2501,-1.2501,-1.2501,-1.2501,-1.2501,-1.2501,-1.2501,-1.2501,-1.2501,-1.2501,-1.2501,-1.2501,-1.2501,-1.2501,-1.2501,-1.2501,-1.2501,-1.2501,-1.2501,-1.2501,-1.2501,-1.2501,-1.2501,-1.2501,-1.2501,-1.2501,-1.2501,-1.2501,-1.2501,-1.2501,-1.2501,-1.2501,-1.2501,-1.2501,-1.2501,-1.2501,-1.2501,-1.2501,-1.2501,-1.2501,-1.2501,-1.2501,-1.2501,-1.2501,-1.2501,-1.2501,-1.2501,-1.2501,-1.2501,-1.2501,-1.2501,-1.2501,-1.2501,-1.2501,-1.2501,-1.2501,-1.2501,-1.2501,-1.2501,-1.2501,-1.2501,-1.2501,-1.2501,-1.2501,-1.2501,-1.2501,-1.2501,-1.2501,-1.2501,-1.2501,-1.2467,-1.2372,-1.244,-1.2467,-1.2372,-1.244,-1.2501,-1.2501,-1.2501,-1.2501,-1.2501,-1.2501,-1.2501,-1.2501,-1.2501,-1.2501,-1.2501,-1.2501,-1.2773,-1.3504,-1.3771,-1.4298,-1.5433,-1.5715,-1.5861,-1.6048,-1.6048,-1.6048,-1.6048,-1.6048,-1.6048,-1.6048,-1.6048,-1.6048,-1.6048,-1.6048,-1.6048,-1.6048,-1.6048,-1.6048,-1.6048,-1.6048,-1.6048,-1.6048,-1.2501,-1.2501,-1.2501,-1.2501,-1.2501,-1.2501,-1.2501,-1.2501,-1.2501,-1.2501,-1.2501,-1.2501,-1.2501,-1.2501,-1.2501,-1.2501,-1.2501,-1.2501,-1.2501,-1.2501,-1.2501,-1.2501,-1.2501,-1.2501,-1.2501,-1.2501,-1.2501,-1.2501,-1.2501,-1.2501,-1.2501,-1.2501,-1.2501,-1.2501,-1.2501,-1.2501,-1.2501,-1.2501,-1.2501,-1.2501,-1.2501,-1.2501,-1.2501,-1.2501,-1.2501,-1.2501,-1.2501,-1.2501,-1.2501,-1.2501,-1.2501,-1.2501,-1.2501,-1.2501,-1.2501,-1.2501,-1.2501,-1.2501,-1.2501,-1.2501,-1.2501,-1.2501,-1.2501,-1.2501,-1.2501,-1.2501,-1.2501,-1.2501,-1.2501,-1.2501,-1.2501,-1.2501,-1.2501,-1.2501,-1.2501,-1.2501,-1.2501,-1.2501,-1.2501,-1.2501,-1.2501,-1.2501,-1.2501,-1.2501,-1.2501,-1.2501,-1.2501,-1.2501,-1.2501,-1.2501,-1.2731,-1.3362,-1.3511,-1.415,-1.5132,-1.5618,-1.5861,-1.6048,-1.6048,-1.6048,-1.6048,-1.6048,-1.6048,-1.6048,-1.6048,-1.6048,-1.6048,-1.6048,-1.6048,-1.6048,-1.6048,-1.6048,-1.6048,-1.6048,-1.6048,-1.6048,-1.2501,-1.2501,-1.2501,-1.2501,-1.2501,-1.2501,-1.2501,-1.2501,-1.2501,-1.2501,-1.2501,-1.2501,-1.2501,-1.2501,-1.2501,-1.2501,-1.2501,-1.2501,-1.2501,-1.2501,-1.2501,-1.2501,-1.2501,-1.2501,-1.2501,-1.2501,-1.2501,-1.2501,-1.2501,-1.2501,-1.2501,-1.2501,-1.2501,-1.2501,-1.2501,-1.2501,-1.2501,-1.2501,-1.2501,-1.2501,-1.2501,-1.2501,-1.2501,-1.2501,-1.2501,-1.2501,-1.2501,-1.2501,-1.2501,-1.2501,-1.2501,-1.2501,-1.2501,-1.2501,-1.2501,-1.2501,-1.2501,-1.2501,-1.2501,-1.2501,-1.2501,-1.2501,-1.2501,-1.2501,-1.2501,-1.2501,-1.2501,-1.2501,-1.2501,-1.2501,-1.2501,-1.2501,-1.2501,-1.2501,-1.2501,-1.2501,-1.2501,-1.2501,-1.2501,-1.2501,-1.2501,-1.2501,-1.2501,-1.2501,-1.2501,-1.2501,-1.2501,-1.2549,-1.2657,-1.2562,-1.2664,-1.3192,-1.3457,-1.3879,-1.4324,-1.5147,-1.5663,-1.6048,-1.6048,-1.6048,-1.6048,-1.6048,-1.6048,-1.6048,-1.6048,-1.6048,-1.6048,-1.6048,-1.6048,-1.6048,-1.6048,-1.6048,-1.6048,-1.6048,-1.6048,-1.6048,-1.2501,-1.2501,-1.2501,-1.2501,-1.2501,-1.2501,-1.2501,-1.2501,-1.2501,-1.2501,-1.2501,-1.2501,-1.2501,-1.2501,-1.2501,-1.2501,-1.2501,-1.2501,-1.2501,-1.2501,-1.2501,-1.2501,-1.2501,-1.2501,-1.2501,-1.2501,-1.2501,-1.2501,-1.2501,-1.2501,-1.2501,-1.2501,-1.2501,-1.2501,-1.2501,-1.2501,-1.2501,-1.2501,-1.2501,-1.2501,-1.2501,-1.2501,-1.2501,-1.2501,-1.2501,-1.2501,-1.2501,-1.2501,-1.2501,-1.2501,-1.2501,-1.2501,-1.2501,-1.2501,-1.2501,-1.2501,-1.2501,-1.2501,-1.2501,-1.2501,-1.2501,-1.2501,-1.2501,-1.2501,-1.2501,-1.2501,-1.2501,-1.2501,-1.2501,-1.2501,-1.2501,-1.2501,-1.2501,-1.2501,-1.2501,-1.2501,-1.2501,-1.2501,-1.2501,-1.2501,-1.2501,-1.2501,-1.2501,-1.2501,-1.2501,-1.2501,-1.2501,-1.2542,-1.2637,-1.2556,-1.2684,-1.3078,-1.3318,-1.3584,-1.4066,-1.4563,-1.5216,-1.5711,-1.5883,-1.6048,-1.6048,-1.6048,-1.6048,-1.6048,-1.6048,-1.5883,-1.5719,-1.5883,-1.5883,-1.5719,-1.5883,-1.6048,-1.6048,-1.6048,-1.5883,-1.5711,-1.2501,-1.2501,-1.2501,-1.2501,-1.2501,-1.2501,-1.2501,-1.2501,-1.2501,-1.2501,-1.2501,-1.2501,-1.2501,-1.2501,-1.2501,-1.2501,-1.2501,-1.2501,-1.2501,-1.2501,-1.2501,-1.2501,-1.2501,-1.2501,-1.2501,-1.2501,-1.2501,-1.2501,-1.2501,-1.2501,-1.2501,-1.2501,-1.2501,-1.2501,-1.2501,-1.2501,-1.2501,-1.2501,-1.2501,-1.2501,-1.2501,-1.2501,-1.2501,-1.2501,-1.2501,-1.2501,-1.2501,-1.2501,-1.2501,-1.2501,-1.2501,-1.2501,-1.2501,-1.2501,-1.2501,-1.2501,-1.2501,-1.2501,-1.2501,-1.2501,-1.2501,-1.2501,-1.2501,-1.2501,-1.2501,-1.2501,-1.2501,-1.2501,-1.2501,-1.2501,-1.2501,-1.2501,-1.2501,-1.2501,-1.2501,-1.2501,-1.2501,-1.2501,-1.2501,-1.2501,-1.2501,-1.2501,-1.2501,-1.2501,-1.2501,-1.2501,-1.2501,-1.2501,-1.2501,-1.2515,-1.2657,-1.2949,-1.2976,-1.3281,-1.4066,-1.4066,-1.4563,-1.5381,-1.5711,-1.5883,-1.5883,-1.6048,-1.6048,-1.5883,-1.5883,-1.5711,-1.5381,-1.5711,-1.5711,-1.5381,-1.5711,-1.5883,-1.5883,-1.5883,-1.5711,-1.5381,-1.2501,-1.2501,-1.2501,-1.2501,-1.2501,-1.2501,-1.2501,-1.2501,-1.2501,-1.2501,-1.2501,-1.2501,-1.2501,-1.2501,-1.2501,-1.2501,-1.2501,-1.2501,-1.2501,-1.2501,-1.2501,-1.2501,-1.2501,-1.2501,-1.2501,-1.2501,-1.2501,-1.2501,-1.2501,-1.2501,-1.2501,-1.2501,-1.2501,-1.2501,-1.2501,-1.2501,-1.2501,-1.2501,-1.2501,-1.2501,-1.2501,-1.2501,-1.2501,-1.2501,-1.2501,-1.2501,-1.2501,-1.2501,-1.2501,-1.2501,-1.2501,-1.2501,-1.2501,-1.2501,-1.2501,-1.2501,-1.2501,-1.2501,-1.2501,-1.2501,-1.2501,-1.2501,-1.2501,-1.2501,-1.2501,-1.2501,-1.2501,-1.2501,-1.2501,-1.2501,-1.2501,-1.2501,-1.2501,-1.2501,-1.2501,-1.2501,-1.2501,-1.2501,-1.2501,-1.2501,-1.2501,-1.2501,-1.2501,-1.2501,-1.2501,-1.2501,-1.2501,-1.2501,-1.2501,-1.2617,-1.2766,-1.2956,-1.3071,-1.3214,-1.3569,-1.3901,-1.4397,-1.4878,-1.5381,-1.5546,-1.5546,-1.5875,-1.5883,-1.5546,-1.5546,-1.5216,-1.4878,-1.4878,-1.4878,-1.4878,-1.4878,-1.5043,-1.5043,-1.5043,-1.4878,-1.4878,-1.2501,-1.2501,-1.2501,-1.2501,-1.2501,-1.2501,-1.2501,-1.2501,-1.2501,-1.2501,-1.2501,-1.2501,-1.2501,-1.2501,-1.2501,-1.2501,-1.2501,-1.2501,-1.2501,-1.2501,-1.2501,-1.2501,-1.2501,-1.2501,-1.2501,-1.2501,-1.2501,-1.2501,-1.2501,-1.2501,-1.2501,-1.2501,-1.2501,-1.2501,-1.2501,-1.2501,-1.2501,-1.2501,-1.2501,-1.2501,-1.2501,-1.2501,-1.2501,-1.2501,-1.2501,-1.2501,-1.2501,-1.2501,-1.2501,-1.2501,-1.2501,-1.2501,-1.2501,-1.2501,-1.2501,-1.2501,-1.2501,-1.2501,-1.2501,-1.2501,-1.2501,-1.2501,-1.2501,-1.2501,-1.2501,-1.2501,-1.2501,-1.2501,-1.2501,-1.2501,-1.2501,-1.2501,-1.2501,-1.2501,-1.2501,-1.2501,-1.2501,-1.2501,-1.2501,-1.2501,-1.2501,-1.2501,-1.2501,-1.2501,-1.2501,-1.2501,-1.2501,-1.2535,-1.261,-1.2684,-1.2834,-1.3057,-1.3071,-1.3146,-1.3288,-1.3624,-1.3781,-1.3945,-1.4676,-1.5051,-1.5051,-1.5546,-1.5546,-1.5051,-1.5381,-1.5051,-1.439,-1.4548,-1.4555,-1.439,-1.4548,-1.4713,-1.4713,-1.4713,-1.4555,-1.439,-1.2501,-1.2501,-1.2501,-1.2501,-1.2501,-1.2501,-1.2501,-1.2501,-1.2501,-1.2501,-1.2501,-1.2501,-1.2501,-1.2501,-1.2501,-1.2501,-1.2501,-1.2501,-1.2501,-1.2501,-1.2501,-1.2501,-1.2501,-1.2501,-1.2501,-1.2501,-1.2501,-1.2501,-1.2501,-1.2501,-1.2501,-1.2501,-1.2501,-1.2501,-1.2501,-1.2501,-1.2501,-1.2501,-1.2501,-1.2501,-1.2501,-1.2501,-1.2501,-1.2501,-1.2501,-1.2501,-1.2501,-1.2501,-1.2501,-1.2501,-1.2501,-1.2501,-1.2501,-1.2501,-1.2501,-1.2501,-1.2501,-1.2501,-1.2501,-1.2501,-1.2501,-1.2501,-1.2501,-1.2501,-1.2501,-1.2501,-1.2501,-1.2501,-1.2501,-1.2501,-1.2501,-1.2501,-1.2501,-1.2501,-1.2501,-1.2501,-1.2501,-1.2501,-1.2501,-1.2501,-1.2501,-1.2501,-1.2501,-1.2501,-1.2501,-1.2501,-1.2501,-1.2556,-1.2684,-1.2739,-1.2881,-1.3125,-1.3071,-1.3078,-1.3173,-1.32,-1.32,-1.3173,-1.4145,-1.4555,-1.4548,-1.5051,-1.5051,-1.4548,-1.5051,-1.4721,-1.4066,-1.439,-1.4225,-1.4066,-1.439,-1.4548,-1.4548,-1.4548,-1.4225,-1.3901,-1.2501,-1.2501,-1.2501,-1.2501,-1.2501,-1.2501,-1.2501,-1.2501,-1.2501,-1.2501,-1.2501,-1.2501,-1.2501,-1.2501,-1.2501,-1.2501,-1.2501,-1.2501,-1.2501,-1.2501,-1.2501,-1.2501,-1.2501,-1.2501,-1.2501,-1.2501,-1.2501,-1.2501,-1.2501,-1.2501,-1.2501,-1.2501,-1.2501,-1.2501,-1.2501,-1.2501,-1.2501,-1.2501,-1.2501,-1.2501,-1.2501,-1.2501,-1.2501,-1.2501,-1.2501,-1.2501,-1.2501,-1.2501,-1.2501,-1.2501,-1.2501,-1.2501,-1.2501,-1.2501,-1.2501,-1.2501,-1.2501,-1.2501,-1.2501,-1.2501,-1.2501,-1.2501,-1.2501,-1.2501,-1.2501,-1.2501,-1.2501,-1.2501,-1.2501,-1.2501,-1.2501,-1.2501,-1.2501,-1.2501,-1.2501,-1.2501,-1.2501,-1.2501,-1.2501,-1.2501,-1.2501,-1.2501,-1.2501,-1.2501,-1.2501,-1.2501,-1.2501,-1.2508,-1.2528,-1.2786,-1.2949,-1.299,-1.322,-1.3288,-1.3173,-1.3302,-1.3302,-1.3173,-1.3494,-1.3735,-1.4232,-1.4555,-1.4555,-1.4232,-1.4232,-1.3901,-1.3569,-1.3569,-1.3562,-1.3569,-1.3569,-1.3562,-1.3562,-1.3562,-1.3562,-1.3569,-1.2501,-1.2501,-1.2501,-1.2501,-1.2501,-1.2501,-1.2501,-1.2501,-1.2501,-1.2501,-1.2501,-1.2501,-1.2501,-1.2501,-1.2501,-1.2501,-1.2501,-1.2501,-1.2501,-1.2501,-1.2501,-1.2501,-1.2501,-1.2501,-1.2501,-1.2501,-1.2501,-1.2501,-1.2501,-1.2501,-1.2501,-1.2501,-1.2501,-1.2501,-1.2501,-1.2501,-1.2501,-1.2501,-1.2501,-1.2501,-1.2501,-1.2501,-1.2501,-1.2501,-1.2501,-1.2501,-1.2501,-1.2501,-1.2501,-1.2501,-1.2501,-1.2501,-1.2501,-1.2501,-1.2501,-1.2501,-1.2501,-1.2501,-1.2501,-1.2501,-1.2501,-1.2501,-1.2501,-1.2501,-1.2501,-1.2501,-1.2501,-1.2501,-1.2501,-1.2501,-1.2501,-1.2501,-1.2501,-1.2501,-1.2501,-1.2501,-1.2501,-1.2501,-1.2501,-1.2501,-1.2501,-1.2501,-1.2501,-1.2501,-1.2501,-1.2501,-1.2501,-1.2535,-1.2623,-1.2759,-1.2908,-1.3071,-1.3125,-1.3159,-1.3173,-1.3241,-1.3241,-1.3173,-1.3329,-1.3569,-1.3735,-1.4232,-1.4059,-1.3735,-1.4066,-1.3901,-1.3403,-1.3403,-1.3403,-1.3403,-1.3403,-1.3403,-1.3403,-1.3403,-1.3403,-1.3403]}]]